[[{"header":{"parameterUnit":"m.s-1","parameterCategory":1,"la1":30.6,"la2":28.766,"lo1":-90.7593,"lo2":-88.6598,"dx":0.0162,"dy":0.0183,"nx":116,"ny":114,"refTime":"2023-02-02T18:00:00:Z","depth":0,"parameterNumber":2,"parameterNumberName":"U-component_of_WINDS"},"data":[0.0,0.0,0.0,0.0,0.0,0.0,0.0,0.0,0.0,0.0,0.0,0.0,0.0,0.0,0.0,0.0,0.0,0.0,0.0,0.0,0.0,0.0,0.0,0.0,0.0,0.0,0.0,0.0,0.0,0.0,0.0,0.0,0.0,0.0,0.0,0.0,0.0,0.0,0.0,0.0,0.0,0.0,0.0,0.0,0.0,0.0,0.0,0.0,0.0,0.0,0.0,0.0,0.0,0.0,0.0,0.0,0.0,0.0,0.0,0.0,0.0,0.0,0.0,0.0,0.0,0.0,0.0,0.0,0.0,0.0,0.0,0.0,0.0,0.0,0.0,0.0,0.0,0.0,0.0,0.0,0.0,0.0,0.0,0.0,0.0,0.0,0.0,0.0,0.0,0.0,0.0,0.0,0.0,0.0,0.0,0.0,0.0,0.0,0.0,0.0,0.0,0.0,0.0,0.0,0.0,0.0,0.0,0.0,0.0,0.0,0.0,0.0,0.0,0.0,0.0,0.0,0.0,0.0,0.0,0.0,0.0,0.0,0.0,0.0,0.0,0.0,0.0,0.0,0.0,0.0,0.0,0.0,0.0,0.0,0.0,0.0,0.0,0.0,0.0,0.0,0.0,0.0,0.0,0.0,0.0,0.0,0.0,0.0,0.0,0.0,0.0,0.0,0.0,0.0,0.0,0.0,0.0,0.0,0.0,0.0,0.0,0.0,0.0,0.0,0.0,0.0,0.0,0.0,0.0,0.0,0.0,0.0,0.0,0.0,0.0,0.0,0.0,0.0,0.0,0.0,0.0,0.0,0.0,0.0,0.0,0.0,0.0,0.0,0.0,0.0,0.0,0.0,0.0,0.0,0.0,0.0,0.0,0.0,0.0,0.0,0.0,0.0,0.0,0.0,0.0,0.0,0.0,0.0,0.0,0.0,0.0,0.0,0.0,0.0,0.0,0.0,0.0,0.0,0.0,0.0,0.0,0.0,0.0,0.0,0.0,0.0,0.0,0.0,0.0,0.0,0.0,0.0,0.0,0.0,0.0,0.0,0.0,0.0,0.0,0.0,0.0,0.0,0.0,0.0,0.0,0.0,0.0,0.0,0.0,0.0,0.0,0.0,0.0,0.0,0.0,0.0,0.0,0.0,0.0,0.0,0.0,0.0,0.0,0.0,0.0,0.0,0.0,0.0,0.0,0.0,0.0,0.0,0.0,0.0,0.0,0.0,0.0,0.0,0.0,0.0,0.0,0.0,0.0,0.0,0.0,0.0,0.0,0.0,0.0,0.0,0.0,0.0,0.0,0.0,0.0,0.0,0.0,0.0,0.0,0.0,0.0,0.0,0.0,0.0,0.0,0.0,0.0,0.0,0.0,0.0,0.0,0.0,0.0,0.0,0.0,0.0,0.0,0.0,0.0,0.0,0.0,0.0,0.0,0.0,0.0,0.0,0.0,0.0,0.0,0.0,0.0,0.0,0.0,0.0,0.0,0.0,0.0,0.0,0.0,0.0,0.0,0.0,0.0,0.0,0.0,0.0,0.0,0.0,0.0,0.0,0.0,0.0,0.0,0.0,0.0,0.0,0.0,0.0,0.0,0.0,0.0,0.0,0.0,0.0,0.0,0.0,0.0,0.0,0.0,0.0,0.0,0.0,0.0,0.0,0.0,0.0,0.0,0.0,0.0,0.0,0.0,0.0,0.0,0.0,0.0,0.0,0.0,0.0,0.0,0.0,0.0,0.0,0.0,0.0,0.0,0.0,0.0,0.0,0.0,0.0,0.0,0.0,0.0,0.0,0.0,0.0,0.0,0.0,0.0,0.0,0.0,0.0,0.0,0.0,0.0,0.0,0.0,0.0,0.0,0.0,0.0,0.0,0.0,0.0,0.0,0.0,0.0,0.0,0.0,0.0,0.0,0.0,0.0,0.0,0.0,0.0,0.0,0.0,0.0,0.0,0.0,0.0,0.0,0.0,0.0,0.0,0.0,0.0,0.0,0.0,0.0,0.0,0.0,0.0,0.0,0.0,0.0,0.0,0.0,0.0,0.0,0.0,0.0,0.0,0.0,0.0,0.0,0.0,0.0,0.0,0.0,0.0,0.0,0.0,0.0,0.0,0.0,0.0,0.0,0.0,0.0,0.0,0.0,0.0,0.0,0.0,0.0,0.0,0.0,0.0,0.0,0.0,0.0,0.0,0.0,0.0,0.0,0.0,0.0,0.0,0.0,0.0,0.0,0.0,0.0,0.0,0.0,0.0,0.0,0.0,0.0,0.0,0.0,0.0,0.0,0.0,0.0,0.0,0.0,0.0,0.0,0.0,0.0,0.0,0.0,0.0,0.0,0.0,0.0,0.0,0.0,0.0,0.0,0.0,0.0,0.0,0.0,0.0,0.0,0.0,0.0,0.0,0.0,0.0,0.0,0.0,0.0,0.0,0.0,0.0,0.0,0.0,0.0,0.0,0.0,0.0,0.0,0.0,0.0,0.0,0.0,0.0,0.0,0.0,0.0,0.0,0.0,0.0,0.0,0.0,0.0,0.0,0.0,0.0,0.0,0.0,0.0,0.0,0.0,0.0,0.0,0.0,0.0,0.0,0.0,0.0,0.0,0.0,0.0,0.0,0.0,0.0,0.0,0.0,0.0,0.0,0.0,0.0,0.0,0.0,0.0,0.0,0.0,0.0,0.0,0.0,0.0,0.0,0.0,0.0,0.0,0.0,0.0,0.0,0.0,0.0,0.0,0.0,0.0,0.0,0.0,0.0,0.0,0.0,0.0,0.0,0.0,0.0,0.0,0.0,0.0,0.0,0.0,0.0,0.0,0.0,0.0,0.0,0.0,0.0,0.0,0.0,0.0,0.0,0.0,0.0,0.0,0.0,0.0,0.0,0.0,0.0,0.0,0.0,0.0,0.0,0.0,0.0,0.0,0.0,0.0,0.0,0.0,0.0,0.0,0.0,0.0,0.0,0.0,0.0,0.0,0.0,0.0,0.0,0.0,0.0,0.0,0.0,0.0,0.0,0.0,0.0,0.0,0.0,0.0,0.0,0.0,0.0,0.0,0.0,0.0,0.0,0.0,0.0,0.0,0.0,0.0,0.0,0.0,0.0,0.0,0.0,0.0,0.0,0.0,0.0,0.0,0.0,0.0,0.0,0.0,0.0,0.0,0.0,0.0,0.0,0.0,0.0,0.0,0.0,0.0,0.0,0.0,0.0,0.0,0.0,0.0,0.0,0.0,0.0,0.0,0.0,0.0,0.0,0.0,0.0,0.0,0.0,0.0,0.0,0.0,0.0,0.0,0.0,0.0,0.0,0.0,0.0,0.0,0.0,0.0,0.0,0.0,0.0,0.0,0.0,0.0,0.0,0.0,0.0,0.0,0.0,0.0,0.0,0.0,0.0,0.0,0.0,0.0,0.0,0.0,0.0,0.0,0.0,0.0,0.0,0.0,0.0,0.0,0.0,0.0,0.0,0.0,0.0,0.0,0.0,0.0,0.0,0.0,0.0,0.0,0.0,0.0,0.0,0.0,0.0,0.0,0.0,0.0,0.0,0.0,0.0,0.0,0.0,0.0,0.0,0.0,0.0,0.0,0.0,0.0,0.0,0.0,0.0,0.0,0.0,0.0,0.0,0.0,0.0,0.0,0.0,0.0,0.0,0.0,0.0,0.0,0.0,0.0,0.0,0.0,0.0,0.0,0.0,0.0,0.0,0.0,0.0,0.0,0.0,0.0,0.0,0.0,0.0,0.0,0.0,0.0,0.0,0.0,0.0,0.0,0.0,0.0,0.0,0.0,0.0,0.0,0.0,0.0,0.0,0.0,0.0,0.0,0.0,0.0,0.0,0.0,0.0,0.0,0.0,0.0,0.0,0.0,0.0,0.0,0.0,0.0,0.0,0.0,0.0,0.0,0.0,0.0,0.0,0.0,0.0,0.0,0.0,0.0,0.0,0.0,0.0,0.0,0.0,0.0,0.0,0.0,0.0,0.0,0.0,0.0,0.0,0.0,0.0,0.0,0.0,0.0,0.0,0.0,0.0,0.0,0.0,0.0,0.0,0.0,0.0,0.0,0.0,0.0,0.0,0.0,0.0,0.0,0.0,0.0,0.0,0.0,0.0,0.0,0.0,0.0,0.0,0.0,0.0,0.0,0.0,0.0,0.0,0.0,0.0,0.0,0.0,0.0,0.0,0.0,0.0,0.0,0.0,0.0,0.0,0.0,0.0,0.0,0.0,0.0,0.0,0.0,0.0,0.0,0.0,0.0,0.0,0.0,0.0,0.0,0.0,0.0,0.0,0.0,0.0,0.0,0.0,0.0,0.0,0.0,0.0,0.0,0.0,0.0,0.0,0.0,0.0,0.0,0.0,0.0,0.0,0.0,0.0,0.0,0.0,0.0,0.0,0.0,0.0,0.0,0.0,0.0,0.0,0.0,0.0,0.0,0.0,0.0,0.0,0.0,0.0,0.0,0.0,0.0,0.0,0.0,0.0,0.0,0.0,0.0,0.0,0.0,0.0,0.0,0.0,0.0,0.0,0.0,0.0,0.0,0.0,0.0,0.0,0.0,0.0,0.0,0.0,0.0,0.0,0.0,0.0,0.0,0.0,0.0,0.0,0.0,0.0,0.0,0.0,0.0,0.0,0.0,0.0,0.0,0.0,0.0,0.0,0.0,0.0,0.0,0.0,0.0,0.0,0.0,0.0,0.0,0.0,0.0,0.0,0.0,0.0,0.0,0.0,0.0,0.0,0.0,0.0,0.0,0.0,0.0,0.0,0.0,0.0,0.0,0.0,0.0,0.0,0.0,0.0,0.0,0.0,0.0,0.0,0.0,0.0,0.0,0.0,0.0,0.0,0.0,0.0,0.0,0.0,0.0,0.0,0.0,0.0,0.0,0.0,0.0,0.0,0.0,0.0,0.0,0.0,0.0,0.0,0.0,0.0,0.0,0.0,0.0,0.0,0.0,0.0,0.0,0.0,0.0,0.0,0.0,0.0,0.0,0.0,0.0,0.0,0.0,0.0,0.0,0.0,0.0,0.0,0.0,0.0,0.0,0.0,0.0,0.0,0.0,0.0,0.0,0.0,0.0,0.0,0.0,0.0,0.0,0.0,0.0,0.0,0.0,0.0,0.0,0.0,0.0,0.0,0.0,0.0,0.0,0.0,0.0,0.0,0.0,0.0,0.0,0.0,0.0,0.0,0.0,0.0,0.0,0.0,0.0,0.0,0.0,0.0,0.0,0.0,0.0,0.0,0.0,0.0,0.0,0.0,0.0,0.0,0.0,0.0,0.0,0.0,0.0,0.0,0.0,0.0,0.0,0.0,0.0,0.0,0.0,0.0,0.0,0.0,0.0,0.0,0.0,0.0,0.0,0.0,0.0,0.0,0.0,0.0,0.0,0.0,0.0,0.0,0.0,0.0,0.0,0.0,0.0,0.0,0.0,0.0,0.0,0.0,0.0,0.0,0.0,0.0,0.0,0.0,0.0,0.0,0.0,0.0,0.0,0.0,0.0,0.0,0.0,0.0,0.0,0.0,0.0,0.0,0.0,0.0,0.0,0.0,0.0,0.0,0.0,0.0,0.0,0.0,0.0,0.0,0.0,0.0,0.0,0.0,0.0,0.0,0.0,0.0,0.0,0.0,0.0,0.0,0.0,0.0,0.0,0.0,0.0,0.0,0.0,0.0,0.0,0.0,0.0,0.0,0.0,0.0,0.0,0.0,0.0,0.0,0.0,0.0,0.0,0.0,0.0,0.0,0.0,0.0,0.0,0.0,0.0,0.0,0.0,0.0,0.0,0.0,0.0,0.0,0.0,0.0,0.0,0.0,0.0,0.0,0.0,0.0,0.0,0.0,0.0,0.0,0.0,0.0,0.0,0.0,0.0,0.0,0.0,0.0,0.0,0.0,0.0,0.0,0.0,0.0,0.0,0.0,0.0,0.0,0.0,0.0,0.0,0.0,0.0,0.0,0.0,0.0,0.0,0.0,0.0,0.0,0.0,0.0,0.0,0.0,0.0,0.0,0.0,0.0,0.0,0.0,0.0,0.0,0.0,0.0,0.0,0.0,0.0,0.0,0.0,0.0,0.0,0.0,0.0,0.0,0.0,0.0,0.0,0.0,5.7773,5.8633,0.0,0.0,0.0,0.0,0.0,0.0,0.0,0.0,0.0,0.0,0.0,0.0,0.0,0.0,0.0,0.0,0.0,0.0,0.0,0.0,0.0,0.0,0.0,0.0,0.0,0.0,0.0,0.0,0.0,0.0,0.0,0.0,0.0,0.0,0.0,0.0,0.0,0.0,0.0,0.0,0.0,0.0,0.0,0.0,0.0,0.0,0.0,0.0,0.0,0.0,0.0,0.0,0.0,0.0,0.0,0.0,0.0,0.0,0.0,0.0,0.0,0.0,0.0,0.0,0.0,0.0,0.0,0.0,0.0,0.0,0.0,0.0,0.0,0.0,0.0,0.0,0.0,0.0,0.0,0.0,0.0,0.0,0.0,0.0,0.0,0.0,0.0,0.0,0.0,0.0,0.0,0.0,0.0,0.0,0.0,0.0,0.0,0.0,0.0,0.0,0.0,0.0,0.0,0.0,0.0,0.0,0.0,0.0,0.0,0.0,0.0,0.0,0.0,0.0,5.8984,5.832,0.0,0.0,0.0,0.0,0.0,0.0,0.0,0.0,0.0,0.0,0.0,0.0,0.0,0.0,0.0,0.0,0.0,0.0,0.0,0.0,0.0,0.0,0.0,0.0,0.0,0.0,0.0,0.0,0.0,0.0,0.0,0.0,0.0,0.0,0.0,0.0,0.0,0.0,0.0,0.0,0.0,0.0,0.0,0.0,0.0,0.0,0.0,0.0,0.0,0.0,0.0,0.0,0.0,0.0,0.0,0.0,0.0,0.0,0.0,0.0,0.0,0.0,0.0,0.0,0.0,0.0,0.0,0.0,0.0,0.0,0.0,0.0,0.0,0.0,0.0,0.0,0.0,0.0,0.0,0.0,0.0,0.0,0.0,0.0,0.0,0.0,0.0,0.0,0.0,0.0,0.0,0.0,0.0,0.0,0.0,0.0,0.0,0.0,0.0,0.0,0.0,0.0,0.0,0.0,0.0,0.0,0.0,0.0,6.2695,6.3828,6.4531,6.4687,6.4062,6.2773,6.207,5.9648,5.6328,5.8047,0.0,0.0,0.0,0.0,0.0,0.0,0.0,0.0,0.0,0.0,0.0,0.0,0.0,0.0,0.0,0.0,0.0,0.0,0.0,0.0,0.0,0.0,0.0,0.0,0.0,0.0,0.0,0.0,0.0,0.0,0.0,0.0,0.0,0.0,0.0,0.0,0.0,0.0,0.0,0.0,0.0,0.0,0.0,0.0,0.0,0.0,0.0,0.0,0.0,0.0,0.0,0.0,0.0,0.0,0.0,0.0,0.0,0.0,0.0,0.0,0.0,0.0,0.0,0.0,0.0,0.0,0.0,0.0,0.0,0.0,0.0,0.0,0.0,0.0,0.0,0.0,0.0,0.0,0.0,0.0,0.0,0.0,0.0,0.0,0.0,0.0,5.1445,5.1484,0.0,0.0,0.0,0.0,0.0,0.0,0.0,0.0,0.0,0.0,0.0,0.0,0.0,5.9375,6.0859,6.1836,6.2812,6.3789,6.4805,6.5312,6.5469,6.6211,6.6836,6.7344,6.7226,0.0,5.957,5.7695,0.0,0.0,0.0,0.0,0.0,0.0,0.0,0.0,0.0,0.0,0.0,0.0,0.0,0.0,0.0,0.0,0.0,0.0,0.0,0.0,0.0,0.0,0.0,0.0,0.0,0.0,0.0,0.0,0.0,0.0,0.0,0.0,0.0,0.0,0.0,0.0,0.0,0.0,0.0,0.0,0.0,0.0,0.0,0.0,0.0,0.0,0.0,0.0,0.0,0.0,0.0,0.0,0.0,0.0,0.0,0.0,0.0,0.0,0.0,0.0,0.0,0.0,0.0,0.0,0.0,0.0,0.0,0.0,0.0,0.0,0.0,0.0,0.0,0.0,0.0,0.0,0.0,0.0,0.0,0.0,0.0,0.0,0.0,0.0,0.0,5.3249,5.3954,5.2186,5.4726,5.6289,0.0,0.0,0.0,0.0,0.0,0.0,0.0,0.0,0.0,5.8086,5.9726,6.1172,6.2422,6.3789,6.539,6.7226,6.8555,6.9219,6.9219,7.0117,7.0703,7.1055,7.1055,6.9492,6.6601,6.2578,6.0703,6.0156,0.0,0.0,0.0,0.0,5.9453,6.0625,0.0,0.0,0.0,0.0,0.0,0.0,0.0,0.0,0.0,0.0,0.0,0.0,0.0,0.0,0.0,0.0,0.0,0.0,0.0,0.0,0.0,0.0,0.0,0.0,0.0,0.0,0.0,0.0,0.0,0.0,0.0,0.0,0.0,0.0,0.0,0.0,0.0,0.0,0.0,0.0,0.0,0.0,0.0,0.0,0.0,0.0,0.0,0.0,0.0,0.0,0.0,0.0,0.0,0.0,0.0,0.0,0.0,0.0,0.0,0.0,0.0,0.0,0.0,0.0,0.0,0.0,0.0,0.0,0.0,0.0,0.0,0.0,0.0,0.0,0.0,0.0,0.0,5.3876,5.4948,5.2441,5.538,5.7148,0.0,0.0,0.0,0.0,0.0,0.0,5.7539,6.0,6.1211,6.0859,6.2695,6.4101,6.4961,6.6719,6.8672,7.082,7.2305,7.3125,7.3359,7.3984,7.4297,7.4297,7.4297,7.3789,7.2578,6.7187,6.3828,6.1836,5.9726,5.9531,6.0469,6.0234,6.1094,6.2422,0.0,0.0,0.0,0.0,0.0,0.0,0.0,0.0,0.0,0.0,0.0,0.0,0.0,0.0,6.1027,0.0,0.0,0.0,0.0,0.0,0.0,0.0,0.0,0.0,0.0,0.0,0.0,0.0,0.0,0.0,0.0,0.0,0.0,0.0,0.0,0.0,0.0,0.0,0.0,0.0,0.0,0.0,0.0,0.0,0.0,0.0,0.0,0.0,0.0,0.0,0.0,0.0,0.0,0.0,0.0,0.0,0.0,0.0,0.0,0.0,0.0,0.0,0.0,0.0,0.0,0.0,0.0,0.0,0.0,0.0,0.0,0.0,0.0,0.0,0.0,0.0,0.0,0.0,0.0,5.1283,5.4956,0.0,0.0,0.0,0.0,5.7773,5.9258,6.0156,6.0195,6.2695,6.4453,6.5234,6.7773,6.9492,7.0312,7.2031,7.3398,7.4336,7.5273,7.6133,7.6953,7.6992,7.6992,7.6992,7.6992,7.6523,7.5234,6.9258,6.668,6.625,6.2812,6.2539,6.3945,6.3125,6.3398,6.4062,0.0,0.0,0.0,0.0,0.0,0.0,0.0,0.0,0.0,0.0,0.0,0.0,0.0,6.1709,6.4176,0.0,0.0,0.0,0.0,0.0,0.0,0.0,0.0,0.0,0.0,0.0,0.0,0.0,0.0,0.0,0.0,0.0,0.0,0.0,0.0,0.0,0.0,0.0,0.0,0.0,0.0,0.0,0.0,0.0,0.0,0.0,0.0,0.0,0.0,0.0,0.0,0.0,0.0,0.0,0.0,0.0,0.0,0.0,0.0,0.0,0.0,0.0,0.0,0.0,0.0,0.0,0.0,0.0,0.0,0.0,0.0,0.0,0.0,0.0,0.0,0.0,0.0,0.0,0.0,5.7366,5.9893,0.0,5.9726,5.9531,5.9726,6.0312,6.1406,6.2578,6.3672,6.6172,6.8242,6.9687,7.1719,7.3476,7.4883,7.6055,7.707,7.789,7.7656,7.7734,7.8047,7.8047,7.7734,7.7226,7.7773,7.7539,7.6523,7.3828,7.1367,6.9062,6.6172,6.5078,6.5117,6.4805,6.5234,6.6094,0.0,0.0,0.0,0.0,0.0,0.0,0.0,0.0,0.0,0.0,0.0,5.715,6.0513,6.3946,6.6924,0.0,0.0,0.0,0.0,0.0,0.0,0.0,0.0,0.0,0.0,0.0,0.0,0.0,0.0,0.0,0.0,0.0,0.0,0.0,0.0,0.0,0.0,0.0,0.0,0.0,0.0,0.0,6.1273,0.0,0.0,0.0,0.0,0.0,0.0,0.0,0.0,0.0,0.0,0.0,0.0,0.0,0.0,0.0,0.0,0.0,0.0,0.0,0.0,0.0,0.0,0.0,0.0,0.0,0.0,0.0,0.0,0.0,0.0,0.0,0.0,0.0,0.0,5.7435,6.0163,6.1682,6.4006,6.512,6.4101,6.3437,6.3281,6.3867,6.4961,6.6211,6.7695,7.0195,7.2265,7.3711,7.543,7.6875,7.8047,7.8633,7.918,7.9687,7.8867,7.8633,7.8906,7.8633,7.8164,7.7656,7.8242,7.8008,7.7148,7.625,7.4375,7.1797,6.9492,6.789,6.6953,6.7539,6.8125,6.8828,0.0,0.0,0.0,0.0,0.0,0.0,0.0,0.0,0.0,0.0,0.0,5.6958,6.1917,6.5652,6.9074,7.2312,7.0064,0.0,0.0,0.0,0.0,0.0,0.0,0.0,0.0,0.0,0.0,0.0,0.0,0.0,0.0,0.0,0.0,0.0,0.0,0.0,0.0,0.0,0.0,0.0,0.0,6.3444,6.3218,0.0,0.0,0.0,0.0,0.0,0.0,0.0,0.0,0.0,0.0,0.0,0.0,0.0,0.0,0.0,0.0,0.0,0.0,0.0,0.0,0.0,0.0,0.0,0.0,0.0,0.0,0.0,0.0,0.0,0.0,0.0,0.0,0.0,5.4416,5.8995,6.2552,6.358,6.6853,6.8432,6.6945,6.7734,6.8359,6.8359,6.9883,7.1211,7.2109,7.457,7.6367,7.7265,7.8867,7.9726,7.9726,7.9765,7.9765,7.9765,7.8945,7.8984,7.9687,7.8906,7.8515,7.8476,7.8476,7.8008,7.7148,7.625,7.539,7.4414,7.2695,7.0976,6.9687,7.1367,7.2031,7.2148,0.0,0.0,0.0,0.0,0.0,0.0,0.0,0.0,0.0,0.0,5.6302,5.9976,6.383,6.8542,7.2469,7.5055,7.1731,6.8769,6.6795,0.0,0.0,0.0,0.0,0.0,0.0,0.0,0.0,0.0,0.0,0.0,0.0,0.0,0.0,0.0,0.0,0.0,0.0,0.0,0.0,0.0,6.8844,6.6602,6.5658,0.0,0.0,0.0,0.0,0.0,0.0,0.0,0.0,0.0,0.0,0.0,0.0,0.0,0.0,0.0,0.0,0.0,0.0,0.0,0.0,0.0,0.0,0.0,0.0,0.0,0.0,0.0,0.0,0.0,0.0,0.0,5.4919,5.6912,5.7973,6.1488,6.4936,6.7664,7.0008,7.1356,7.1065,7.1421,7.1758,7.1875,7.289,7.418,7.5703,7.6445,7.75,7.8984,8.0078,8.0625,8.0625,8.1289,8.1601,8.1562,8.0703,8.0117,7.9687,7.9453,7.8711,7.7578,7.8242,7.8008,7.7148,7.625,7.539,7.4492,7.3398,7.2265,7.1328,7.1836,7.2383,7.289,0.0,0.0,0.0,0.0,0.0,0.0,0.0,0.0,0.0,0.0,5.7537,6.1641,6.4281,6.9369,7.3213,7.4745,7.1291,6.7964,6.5612,0.0,0.0,0.0,0.0,0.0,0.0,0.0,0.0,0.0,0.0,0.0,0.0,0.0,0.0,0.0,0.0,0.0,0.0,0.0,8.01,7.8608,7.511,7.2783,7.0863,6.628,6.5216,6.5782,6.2983,6.2775,6.343,6.0781,0.0,0.0,0.0,0.0,0.0,0.0,0.0,0.0,0.0,0.0,0.0,0.0,0.0,0.0,0.0,0.0,0.0,0.0,0.0,0.0,0.0,0.0,0.0,0.0,5.8171,6.118,6.3469,6.5769,6.8359,7.1437,7.3745,7.4988,7.4788,7.4991,7.5195,7.5351,7.5898,7.6836,7.8164,7.8594,7.9258,8.0195,8.1094,8.1523,8.1523,8.2031,8.2304,8.2304,8.1406,8.0937,8.0781,8.039,7.9492,7.8281,7.8789,7.832,7.7109,7.5859,7.5078,0.0,0.0,0.0,0.0,0.0,7.3086,7.3789,0.0,0.0,0.0,0.0,0.0,0.0,0.0,0.0,0.0,0.0,0.0,6.2144,6.3649,6.8679,7.2208,7.2792,6.9512,6.6379,0.0,0.0,0.0,5.7667,6.2257,6.5839,6.8015,7.1866,7.5033,7.7493,7.8254,7.9092,7.9939,8.0054,8.0477,8.1246,8.1323,8.1439,8.1554,8.2201,8.2086,8.1516,8.14,7.9746,7.6793,7.2057,7.1506,7.2685,6.869,6.6491,6.5149,6.3315,0.0,0.0,0.0,0.0,0.0,0.0,0.0,0.0,0.0,0.0,0.0,0.0,0.0,0.0,0.0,0.0,0.0,0.0,0.0,0.0,0.0,0.0,0.0,0.0,6.1781,6.5487,6.9682,7.1133,7.2552,7.4745,7.7198,7.8498,7.7805,7.8001,7.8235,7.832,7.8515,7.8984,7.9805,8.0586,0.0,0.0,0.0,8.2304,8.2304,8.2304,8.2304,8.2304,8.1523,8.1484,8.2148,8.1367,8.0469,7.957,7.957,7.8672,7.707,7.5312,7.4492,7.4219,7.3476,7.2734,7.2226,7.289,7.3711,7.4453,0.0,0.0,0.0,0.0,0.0,0.0,0.0,0.0,0.0,5.3225,5.8107,6.1704,6.2034,6.7148,7.102,7.2235,6.863,6.5182,0.0,0.0,5.9881,6.2786,6.5687,6.8402,7.0863,7.4105,7.6688,7.8596,7.9242,7.9977,8.0862,8.1516,8.19,8.2093,8.2785,8.3516,8.4132,8.358,8.3664,8.4099,8.3394,8.0785,7.704,7.4627,7.2755,7.112,6.8912,6.9258,7.0259,6.7176,6.7255,6.7845,6.3097,0.0,0.0,0.0,0.0,0.0,0.0,0.0,0.0,0.0,0.0,0.0,0.0,0.0,0.0,0.0,0.0,0.0,0.0,0.0,0.0,6.1771,6.5769,6.9717,7.3245,7.562,7.6967,7.6823,7.7852,7.8545,7.8584,7.8632,7.8798,7.9139,7.9219,7.9687,8.0703,8.0898,8.1328,8.2031,8.2226,8.2304,8.2304,8.2304,8.2304,8.2304,0.0,0.0,8.125,8.1094,8.0156,7.8711,7.8711,7.8164,7.707,7.5312,7.3789,7.25,7.2305,7.2578,7.2969,7.2461,7.2812,7.3437,0.0,0.0,0.0,0.0,0.0,0.0,0.0,0.0,0.0,0.0,5.7409,6.0236,5.9832,6.3796,6.6478,6.6677,6.4078,0.0,0.0,6.1321,6.2843,6.6213,6.9095,7.1649,7.3794,7.5966,7.7906,7.9515,8.0272,8.098,8.1708,8.2554,8.2939,8.2978,8.3862,8.4478,8.4939,8.5318,8.5472,8.5511,8.5472,8.3747,8.0844,7.873,7.6831,7.5148,7.3447,7.3111,7.3073,7.0514,6.9939,6.9541,6.5295,6.3075,6.1494,0.0,0.0,0.0,0.0,0.0,0.0,0.0,0.0,0.0,0.0,0.0,0.0,0.0,0.0,5.4318,5.6028,0.0,6.269,6.6511,6.9975,7.3226,7.6186,7.8092,7.9007,7.8622,7.9285,7.9669,7.9323,7.9361,7.9559,7.9881,7.999,8.0508,8.1601,8.164,8.1836,8.2304,8.2304,8.2304,8.2304,8.2304,8.2304,8.2304,8.2304,8.207,8.164,8.164,8.0976,7.9726,7.9297,7.8633,7.7734,7.5976,7.4219,7.2695,7.3125,7.3047,7.2617,7.2148,7.2539,7.3242,0.0,0.0,0.0,0.0,0.0,0.0,0.0,0.0,0.0,0.0,0.0,5.8437,5.7629,6.0272,6.1677,0.0,0.0,0.0,0.0,6.3604,6.622,6.9397,7.2481,7.4784,7.6121,7.7654,7.9056,8.022,8.134,8.2148,8.2616,8.3791,8.4439,8.4632,8.5324,8.5901,8.644,8.744,8.7666,8.7391,8.7743,8.6978,8.5406,8.2978,8.1323,8.0061,7.8416,7.644,7.4528,7.333,7.1611,6.9442,6.6681,6.5601,6.4547,6.0376,5.9819,0.0,0.0,0.0,0.0,0.0,0.0,0.0,0.0,5.1684,5.2085,5.3643,5.5528,5.7819,6.0742,6.3767,6.705,7.0811,7.3674,7.6216,7.8454,7.9492,8.0054,8.0046,8.0669,8.0823,8.01,8.0215,8.0369,8.0561,8.0791,8.1289,8.2187,8.2265,8.2304,8.2304,8.2304,8.2304,8.2304,8.2304,8.2304,8.2304,8.2304,8.2304,8.2304,8.2304,8.1836,8.0937,7.9922,7.8906,7.789,7.6484,7.4961,7.3633,7.4336,7.375,7.2461,7.2305,7.2812,7.3515,0.0,0.0,0.0,0.0,0.0,0.0,0.0,0.0,0.0,0.0,0.0,0.0,0.0,0.0,0.0,0.0,0.0,0.0,6.5322,6.6592,6.9258,7.361,7.5732,7.6948,7.7132,7.9297,8.0468,8.0651,8.2627,8.3674,8.3752,8.5961,8.7401,8.8132,8.8209,8.9517,9.1556,9.0175,9.0479,9.1668,9.021,8.9098,8.8064,8.6214,8.4055,8.1816,8.0131,7.7424,7.4765,7.5403,7.343,7.0693,7.031,6.9183,6.7199,6.3296,6.0939,5.8736,5.447,5.1425,4.9776,5.1257,5.1162,5.1491,0.0,5.5132,5.5401,5.6374,5.9142,6.1743,6.282,6.6936,7.0848,7.288,7.5975,7.843,7.9523,8.0407,8.0939,8.0939,8.1054,8.1054,8.0977,8.0977,8.1054,8.1246,8.1466,8.1719,8.2031,8.2187,8.2304,8.2304,8.2304,8.2304,8.2304,8.2304,8.2304,8.2304,8.2304,8.2304,8.2304,8.2304,8.1836,8.0898,7.9336,7.7695,7.6172,7.5976,7.5312,7.4453,7.457,7.4492,7.4219,7.3437,7.3711,7.4219,0.0,0.0,0.0,0.0,0.0,0.0,0.0,0.0,0.0,0.0,0.0,0.0,0.0,0.0,0.0,0.0,0.0,0.0,6.472,6.7994,7.1912,7.6655,7.8492,7.969,8.0131,8.107,8.1756,8.2089,8.3532,8.4367,8.4787,8.6653,8.7963,8.8844,8.9722,9.1018,9.2479,9.2213,9.2556,9.3133,9.2405,9.1328,8.9906,8.7679,8.4681,8.1298,7.9114,7.6765,0.0,0.0,7.2426,7.1593,7.1044,6.9596,6.7438,6.426,6.1524,5.8654,5.4654,5.2844,5.218,5.2569,5.3532,5.4996,5.7371,5.868,5.981,6.1142,6.3729,6.6473,6.8809,7.136,7.4004,7.6727,7.8344,7.9546,8.0439,8.0407,8.0138,7.9677,7.96,7.9984,8.1016,8.1093,8.117,8.1362,8.1585,8.178,8.1991,8.2187,8.2304,8.2304,8.2304,8.2304,8.2304,8.2304,8.2304,8.2304,8.2304,8.2304,8.2304,8.2304,8.1836,8.0937,7.9726,7.8515,7.7383,7.6875,7.6133,7.539,7.5937,7.5508,7.457,7.418,7.4297,7.4414,0.0,0.0,0.0,0.0,0.0,0.0,0.0,0.0,0.0,0.0,0.0,0.0,0.0,0.0,0.0,0.0,0.0,0.0,0.0,6.8201,7.301,7.8369,8.0131,8.1489,8.2517,8.2957,8.3429,8.3878,8.5157,8.5955,8.6417,8.7961,8.9254,9.0307,9.122,9.2295,9.3557,9.3941,9.41,9.4099,9.3831,9.2561,9.0562,8.7494,8.3696,7.9697,7.7179,7.4549,0.0,0.0,6.9104,6.9167,6.8876,6.7784,6.6088,6.3562,6.0361,5.6974,5.4204,5.3722,5.409,5.4496,5.6172,5.8319,6.0727,6.2421,6.4026,6.5961,6.8193,7.0632,7.3311,7.4697,7.6284,7.8977,7.9661,8.0123,8.0977,8.0138,7.9107,7.8262,7.7754,7.8023,7.9554,8.0323,8.09,8.1285,8.1554,8.1769,8.1912,8.2148,8.2304,8.2304,8.2304,8.2304,8.2304,8.2304,8.2304,8.2304,8.2304,8.2304,8.2304,8.2304,8.1836,8.0937,8.0078,7.9258,7.8437,7.7578,7.6836,7.6328,7.6953,7.6445,7.5312,7.5312,7.5,7.4492,0.0,0.0,0.0,0.0,0.0,0.0,0.0,0.0,0.0,0.0,0.0,0.0,0.0,0.0,0.0,0.0,0.0,0.0,0.0,6.7173,7.1872,7.8332,8.0131,8.1746,8.3361,8.4903,8.5673,8.5741,8.8032,8.915,8.9248,9.0663,9.2241,9.3739,9.29,9.3935,9.6134,9.5288,9.5052,9.5077,9.406,9.2255,8.9685,8.5353,8.109,7.7078,7.4514,0.0,0.0,0.0,6.31,6.1935,6.3142,6.3552,6.311,6.0866,5.6676,5.2716,5.2627,5.2627,5.3552,5.7251,5.8812,6.0508,6.4742,6.6343,6.7648,7.0182,7.2092,7.3611,7.4504,7.6053,7.7515,7.84,7.9254,8.01,8.0977,7.9638,7.8223,7.7429,7.5831,7.5176,7.6053,7.8369,8.0177,8.1054,8.1477,8.173,8.1717,8.207,8.2304,8.2304,8.2304,8.2304,8.2304,8.2304,8.2304,8.2304,8.2304,8.2304,8.2304,8.2304,8.1836,8.0937,8.0078,7.9258,7.8437,7.7578,7.7187,7.7148,7.7187,7.7187,7.7109,7.7109,7.6055,7.4492,0.0,0.0,0.0,0.0,0.0,0.0,0.0,0.0,0.0,0.0,0.0,0.0,0.0,0.0,0.0,0.0,0.0,0.0,0.0,6.6219,7.1064,7.5946,7.9764,8.2553,8.4168,8.5233,8.6297,8.7399,8.8151,8.8871,8.9424,9.0379,9.1387,9.2448,9.2625,9.3517,9.479,9.3916,9.3867,9.4285,9.2169,9.0612,8.9044,8.4662,7.9131,7.3212,0.0,0.0,0.0,0.0,0.0,0.0,5.895,5.8589,5.7529,5.5332,5.4691,5.4726,5.5331,5.7194,5.9634,6.2574,6.4834,6.6934,6.9525,7.1151,7.2198,7.2582,7.263,7.2736,7.2996,7.3505,7.4542,7.6532,7.8031,7.9415,8.09,8.01,7.8408,7.587,7.5567,7.4988,7.3581,7.5763,7.8115,8.01,8.0631,8.1088,8.1678,8.207,8.2304,8.2304,8.2304,8.2304,8.2304,8.2304,8.2304,8.2304,8.2304,8.2304,8.2304,8.2304,8.2148,8.1797,8.0312,7.9531,7.918,7.7773,7.7187,7.7187,7.7187,7.7187,7.7187,7.7187,7.6445,7.5351,0.0,0.0,0.0,0.0,0.0,0.0,0.0,0.0,0.0,0.0,0.0,0.0,0.0,0.0,0.0,0.0,0.0,0.0,0.0,0.0,6.7797,7.2129,7.5616,7.8332,8.0241,8.1048,8.2553,8.4756,8.5049,8.604,8.7692,8.8191,8.8764,8.9584,9.0322,9.1131,9.1892,9.1325,9.0925,9.0448,8.7819,8.5603,8.3483,7.8863,7.3489,0.0,0.0,0.0,0.0,0.0,0.0,0.0,5.5061,5.4763,5.4179,5.2614,5.4411,5.7192,5.8781,6.1761,6.5025,6.791,7.0063,7.1832,7.3234,7.4168,7.4379,7.3274,7.2121,7.1122,7.0486,6.9871,7.0448,7.3265,7.4657,7.6386,7.93,7.8723,7.7301,7.5399,7.5143,7.4462,7.28,7.4437,7.6601,7.9131,8.0208,8.101,8.1678,8.1992,8.2226,8.2304,8.2304,8.2304,8.2304,8.2304,8.2304,8.2304,8.2304,8.2304,8.2304,8.2304,8.2304,8.2187,8.0469,7.9687,7.957,7.789,7.7187,7.7187,7.7187,7.7187,7.7187,7.7187,7.6836,7.625,0.0,0.0,0.0,0.0,0.0,0.0,0.0,0.0,0.0,0.0,0.0,0.0,0.0,0.0,0.0,0.0,0.0,0.0,0.0,0.0,0.0,6.7247,6.8385,7.0,7.2349,7.3156,7.5139,7.8332,7.9103,8.1048,8.4095,8.4095,8.4442,8.5222,8.5909,8.6668,8.7324,8.7286,8.6004,8.3751,8.1253,7.7881,7.3865,6.8931,0.0,0.0,0.0,0.0,0.0,0.0,5.2602,5.2416,5.1635,5.2225,5.32,5.294,5.5872,5.9793,6.2791,6.6147,6.959,7.2869,7.4303,7.5101,7.5899,7.5322,7.4139,7.2429,7.0584,6.8744,6.6969,6.5465,6.5572,6.8989,6.9794,7.1708,7.6778,7.6094,7.5295,7.5979,7.4714,7.3678,7.3597,7.4368,7.5898,7.8334,8.02,8.1375,8.167,8.1875,8.2109,8.2304,8.2304,8.2304,8.2304,8.2304,8.2304,8.2304,8.2304,8.2304,8.2304,8.2304,8.2304,8.2226,8.0508,7.9726,7.957,7.793,7.7226,7.7187,7.7187,7.7187,7.7187,7.7187,7.7187,7.707,0.0,0.0,0.0,0.0,0.0,0.0,0.0,0.0,0.0,0.0,0.0,0.0,0.0,0.0,0.0,0.0,0.0,0.0,0.0,0.0,0.0,0.0,0.0,0.0,0.0,0.0,0.0,0.0,0.0,7.5983,7.7378,7.7378,7.7463,7.7666,7.7887,7.8042,7.8199,7.7607,7.7345,7.7097,0.0,7.2982,7.1726,0.0,0.0,0.0,0.0,0.0,0.0,5.2742,5.2414,5.2158,5.2183,5.3052,5.4522,5.6818,6.0114,6.3788,6.6978,7.0907,7.442,7.5972,7.6924,7.7455,7.704,7.5358,7.3151,7.0821,6.6949,6.333,6.0988,6.1764,6.3836,6.7227,7.0961,7.5011,7.9515,7.9754,7.8869,7.7169,7.7112,7.6496,7.4589,7.6284,7.7824,7.8458,7.9084,8.0126,8.1639,8.1898,8.2109,8.2304,8.2304,8.2304,8.2304,8.2304,8.2304,8.2304,8.2304,8.2304,8.2304,8.2304,8.2304,8.2226,8.1133,8.0312,7.9609,7.8594,7.7773,7.7187,7.7187,7.7187,7.7187,7.7187,7.7187,7.7187,0.0,0.0,0.0,0.0,0.0,0.0,0.0,0.0,0.0,0.0,0.0,0.0,0.0,0.0,0.0,0.0,0.0,0.0,0.0,0.0,0.0,0.0,0.0,0.0,0.0,0.0,0.0,0.0,0.0,0.0,0.0,7.1725,7.1725,7.1762,7.2129,7.2275,7.2239,7.1798,0.0,0.0,0.0,0.0,0.0,0.0,0.0,0.0,0.0,0.0,5.3392,5.4751,5.4378,5.3595,5.5209,5.7074,5.9175,6.1874,6.5042,6.8235,7.0934,7.4443,7.747,7.8308,7.88,7.8461,7.6171,7.3921,7.1015,6.6206,6.2375,5.8979,5.6036,5.7274,5.9996,6.372,6.8283,7.3101,7.816,7.9199,7.9169,7.8477,7.8815,7.8331,7.6548,7.8023,7.9075,7.9095,7.9546,8.0369,8.1662,8.1828,8.1992,8.2304,8.2304,8.2304,8.2304,8.2304,8.2304,8.2304,8.2304,8.2304,8.2304,8.2304,8.2304,8.2265,8.1367,8.0703,8.0195,7.8984,7.8203,7.7734,7.7344,7.7187,7.7187,7.7187,7.7187,7.7187,0.0,0.0,0.0,0.0,0.0,0.0,0.0,0.0,0.0,0.0,0.0,0.0,0.0,0.0,0.0,0.0,0.0,0.0,0.0,0.0,0.0,0.0,0.0,0.0,0.0,0.0,0.0,0.0,0.0,0.0,0.0,0.0,0.0,0.0,0.0,0.0,0.0,0.0,0.0,0.0,0.0,0.0,0.0,0.0,0.0,0.0,0.0,0.0,5.3625,5.767,5.7523,5.6327,5.9698,6.2598,6.5162,6.7332,6.9926,7.2595,7.4673,7.7214,7.942,8.0075,7.9946,7.8608,7.4451,7.1724,6.8024,6.0807,5.7641,5.5206,5.2146,5.3184,5.5962,6.0416,6.468,6.9544,7.563,7.716,7.8207,7.9792,7.9984,7.9677,7.8915,7.953,7.9984,7.9984,8.0669,8.1285,8.1701,8.1711,8.1875,8.2304,8.2304,8.2304,8.2304,8.2304,8.2304,8.2304,8.2304,8.2304,8.2304,8.2304,8.2304,8.2265,8.1484,8.1094,8.0898,7.9297,7.8594,7.8398,7.7539,7.7187,7.7187,7.7187,7.7187,7.7187,0.0,0.0,0.0,0.0,0.0,0.0,0.0,0.0,0.0,0.0,0.0,0.0,0.0,0.0,0.0,0.0,0.0,0.0,0.0,0.0,0.0,0.0,0.0,0.0,0.0,0.0,0.0,0.0,5.8841,0.0,0.0,0.0,0.0,0.0,0.0,0.0,0.0,0.0,0.0,0.0,0.0,0.0,0.0,0.0,0.0,0.0,0.0,5.2779,0.0,0.0,6.0344,6.0211,6.4468,6.6864,6.8651,7.1671,7.3799,7.5689,7.8014,7.9856,8.1087,8.1106,8.0023,7.8031,7.435,6.9461,6.4309,5.9491,5.492,5.1395,5.0064,5.2391,5.6348,6.1964,6.6441,7.1543,7.8216,7.9254,7.9715,8.0746,8.0862,8.0823,8.0669,8.0785,8.0862,8.0862,8.1016,8.1285,8.1701,8.1711,8.1875,8.2304,8.2304,8.2304,8.2304,8.2304,8.2304,8.2304,8.2304,8.2304,8.2304,8.2304,8.2304,8.2304,8.2148,0.0,8.0937,7.9922,7.9101,7.8398,7.7539,7.7187,7.7187,7.7187,7.7187,7.7187,0.0,0.0,0.0,0.0,0.0,0.0,0.0,0.0,0.0,0.0,0.0,0.0,0.0,0.0,0.0,0.0,0.0,0.0,0.0,0.0,0.0,0.0,0.0,0.0,0.0,5.7997,5.7997,5.7997,0.0,5.7997,5.7997,5.7997,5.7997,5.7997,5.7997,5.7997,0.0,0.0,0.0,0.0,0.0,0.0,0.0,0.0,0.0,0.0,0.0,0.0,0.0,0.0,6.1128,6.3855,6.8903,7.1525,7.3124,7.5565,7.7045,7.829,7.9837,8.135,8.2264,8.1581,7.9776,7.6655,7.1094,6.6097,6.0867,5.4628,5.1239,4.8933,4.7679,5.0545,5.4496,5.8642,6.2938,6.829,7.5503,7.6509,7.7693,8.0746,8.1093,8.1093,8.1093,8.1093,8.1093,8.1093,8.1093,8.1285,8.1701,8.1906,8.2109,8.2304,8.2304,8.2304,8.2304,8.2304,8.2304,8.2304,8.2304,8.2304,8.2304,8.2304,8.2304,8.2304,8.2304,8.207,8.1562,8.0234,7.9453,7.8984,7.7695,7.7187,7.7187,7.7187,7.7187,7.7187,0.0,0.0,0.0,0.0,0.0,0.0,0.0,0.0,0.0,0.0,0.0,0.0,0.0,0.0,0.0,0.0,0.0,0.0,0.0,0.0,0.0,0.0,0.0,0.0,0.0,0.0,0.0,5.7997,5.7997,0.0,0.0,0.0,0.0,0.0,5.7997,5.7997,5.796,0.0,0.0,0.0,0.0,5.5941,0.0,0.0,0.0,0.0,0.0,5.2821,5.4312,5.7075,6.064,6.4924,7.0434,7.3979,7.6332,7.7684,7.904,8.0239,8.1256,8.2488,8.3141,8.1982,7.9451,7.5357,6.7983,6.3015,5.7857,5.0354,4.8123,4.7278,4.6317,4.8854,5.2223,5.5668,5.9242,6.427,7.2112,7.3522,7.5518,8.0254,8.0977,8.1093,8.1093,8.1093,8.1093,8.1093,8.1131,8.1321,8.1683,8.2084,8.2304,8.2304,8.2304,8.2304,8.2304,8.2304,8.2304,8.2304,8.2304,8.2304,8.2304,8.2304,8.2304,8.2304,8.2304,8.2304,8.2148,8.0429,7.9687,7.9531,7.8047,7.7461,7.7461,7.7422,7.7539,7.7578,0.0,0.0,0.0,0.0,0.0,0.0,0.0,0.0,0.0,0.0,0.0,0.0,0.0,0.0,0.0,0.0,0.0,0.0,0.0,0.0,0.0,0.0,0.0,0.0,0.0,0.0,0.0,5.7997,5.7997,0.0,0.0,0.0,0.0,0.0,0.0,5.7997,5.7997,5.7923,0.0,0.0,0.0,0.0,0.0,0.0,0.0,0.0,0.0,5.2095,5.2803,5.6668,5.8782,6.0646,6.5605,7.1267,7.6118,7.6301,7.85,8.122,8.2806,8.3793,8.4012,8.2272,7.9179,7.4666,6.7372,6.1362,5.5701,4.9969,4.7216,4.6257,4.7604,4.8179,5.0583,5.7004,5.9001,6.269,7.112,7.3636,7.5908,7.9485,8.0631,8.1093,8.1093,8.1093,8.1093,8.1093,8.1246,8.1469,8.1699,8.2068,8.2304,8.2304,8.2304,8.2304,8.2304,8.2304,8.2304,8.2304,8.2304,8.2304,8.2304,8.2304,8.2304,8.2304,8.2304,8.2304,0.0,8.0429,7.9687,7.9609,7.8711,7.8398,7.8359,7.8164,7.8555,7.8945,0.0,0.0,0.0,0.0,0.0,0.0,0.0,0.0,0.0,0.0,0.0,0.0,0.0,0.0,0.0,0.0,0.0,0.0,0.0,0.0,0.0,0.0,0.0,0.0,0.0,0.0,5.7997,5.7997,5.7997,0.0,0.0,0.0,0.0,0.0,0.0,5.7997,5.7923,5.6969,0.0,0.0,0.0,0.0,0.0,0.0,0.0,0.0,0.0,0.0,5.2103,5.2699,5.5073,5.7962,5.8904,6.3689,6.9658,7.3493,7.6601,7.9559,8.3171,8.5032,8.5577,8.3797,7.932,7.3387,6.6174,5.9425,5.3372,4.868,4.6429,4.5701,4.7124,4.7373,4.8949,5.3685,5.4321,5.6967,6.5003,6.6704,6.9513,7.5947,7.7493,7.8838,8.09,8.1093,8.1093,8.1093,8.1285,8.1435,8.1524,8.189,8.2187,8.2304,8.2304,8.2304,8.2304,8.2304,8.2304,8.2304,8.2304,8.2304,8.2304,8.2304,8.2304,8.2304,8.2304,8.2304,0.0,8.0429,7.9687,7.957,7.8242,7.7656,7.7578,7.8008,7.8285,7.8375,0.0,0.0,0.0,0.0,0.0,0.0,0.0,0.0,0.0,0.0,0.0,0.0,0.0,0.0,0.0,0.0,0.0,0.0,0.0,0.0,0.0,0.0,0.0,0.0,0.0,0.0,0.0,0.0,5.7886,5.7997,0.0,0.0,5.7997,5.7997,0.0,0.0,0.0,0.0,0.0,0.0,0.0,0.0,0.0,0.0,0.0,0.0,0.0,0.0,0.0,0.0,0.0,5.4847,5.399,5.7149,0.0,6.9265,7.3593,7.7239,8.1615,8.4345,8.5474,8.376,7.869,7.2299,6.512,5.838,5.2302,4.7908,4.6186,4.574,4.6719,4.6914,4.8009,0.0,5.1645,5.393,6.1087,6.2529,6.5408,7.2388,7.4226,7.6125,7.9261,8.0484,8.1093,8.1093,8.1208,8.1323,8.14,8.1731,8.202,8.2187,8.2265,8.2304,8.2304,8.2304,8.2304,8.2304,8.2304,8.2304,8.2304,8.2304,8.2304,8.2304,8.2304,8.2304,0.0,8.0429,7.9687,7.9531,7.8086,7.7539,7.7694,7.8149,7.8392,7.8459,0.0,0.0,0.0,0.0,0.0,0.0,0.0,0.0,0.0,0.0,0.0,0.0,0.0,0.0,0.0,0.0,0.0,0.0,0.0,0.0,0.0,0.0,0.0,0.0,0.0,0.0,0.0,0.0,0.0,0.0,5.7997,5.7997,5.7997,5.796,0.0,0.0,0.0,0.0,0.0,0.0,0.0,0.0,0.0,0.0,0.0,0.0,0.0,0.0,0.0,0.0,0.0,0.0,0.0,5.3145,0.0,0.0,6.9336,7.4441,7.7788,8.0982,8.3048,8.1411,7.7109,7.1472,6.4425,5.8466,5.3051,4.8044,4.662,4.6429,4.6814,4.6876,4.7991,5.1375,5.2608,5.5265,6.1267,6.3544,6.5874,6.9335,7.1217,7.3245,7.5787,7.9107,8.1093,8.1093,8.1093,8.117,8.1362,8.1585,8.179,8.1991,8.2187,8.2304,8.2304,8.2304,8.2304,8.2304,8.2304,8.2304,8.2304,8.2304,8.2304,8.2304,8.2304,8.2304,0.0,8.0429,7.9687,7.9609,7.8594,7.8672,7.9329,7.8934,7.9365,7.9798,0.0,0.0,0.0,0.0,0.0,0.0,0.0,0.0,0.0,0.0,0.0,0.0,0.0,0.0,0.0,0.0,0.0,0.0,0.0,0.0,0.0,0.0,0.0,0.0,0.0,0.0,0.0,0.0,0.0,0.0,0.0,0.0,5.7207,5.7189,5.6878,5.6475,0.0,0.0,0.0,0.0,0.0,0.0,0.0,0.0,0.0,0.0,0.0,0.0,0.0,0.0,0.0,0.0,0.0,0.0,0.0,0.0,6.2634,6.8807,7.2605,7.5146,7.6384,7.4766,7.1048,6.6358,6.0803,5.6029,5.186,4.8532,4.7273,4.716,4.8392,4.7681,4.8392,5.2916,5.2915,5.399,5.8792,6.2436,6.5874,6.9301,7.4769,7.8584,7.9408,8.0446,8.1093,8.1093,8.1093,8.1131,8.117,8.1362,8.1674,8.1991,8.2187,8.2304,8.2304,8.2304,8.2226,8.2109,8.2109,8.2031,8.1875,8.1875,8.1875,8.1875,8.1875,8.1953,8.1953,8.0078,7.9375,7.9336,7.7734,7.7176,7.7349,7.7814,7.81,7.8177,0.0,0.0,0.0,0.0,0.0,0.0,0.0,0.0,0.0,0.0,0.0,0.0,0.0,0.0,0.0,0.0,0.0,0.0,0.0,0.0,0.0,0.0,0.0,0.0,0.0,0.0,0.0,0.0,0.0,0.0,0.0,0.0,0.0,0.0,5.6786,0.0,0.0,0.0,0.0,0.0,0.0,0.0,5.3188,0.0,0.0,0.0,0.0,0.0,0.0,0.0,0.0,0.0,0.0,0.0,0.0,0.0,5.6676,6.1898,6.7158,7.001,7.1202,7.0172,6.7163,6.3177,5.8585,5.4667,5.1265,4.8712,4.7559,4.7391,4.8663,4.8066,4.8623,5.2454,5.2702,5.3678,5.7319,6.1466,6.5727,7.0119,7.5694,7.9326,7.9653,8.0546,8.1093,8.1093,8.1093,8.1093,8.1093,8.1285,8.1517,8.1766,8.2046,8.2187,8.2187,8.2187,8.2109,8.1875,8.1867,8.1816,8.17,8.17,8.17,8.17,8.17,8.1583,0.0,7.9711,7.8996,7.867,7.71,7.6612,7.6852,7.7331,7.7416,7.7339,0.0,0.0,0.0,0.0,0.0,0.0,0.0,0.0,0.0,0.0,0.0,0.0,0.0,0.0,0.0,0.0,0.0,0.0,0.0,0.0,0.0,0.0,0.0,0.0,0.0,0.0,0.0,0.0,0.0,0.0,0.0,0.0,0.0,0.0,0.0,0.0,0.0,0.0,0.0,0.0,0.0,0.0,0.0,0.0,0.0,0.0,0.0,0.0,0.0,0.0,0.0,0.0,0.0,0.0,0.0,0.0,0.0,0.0,0.0,6.4964,6.676,6.6686,6.4373,6.1085,5.7258,5.4051,0.0,4.8748,4.7672,4.745,4.826,4.8299,4.8836,5.0835,5.2338,5.4216,5.6806,6.1012,6.6026,7.1973,7.4832,7.663,7.7295,7.9623,8.1093,8.1093,8.1093,8.1093,8.1093,8.1285,8.1362,8.14,8.1753,8.195,8.1992,8.1989,8.1868,8.1712,8.1691,8.1701,8.1701,8.1662,8.1624,8.1554,8.1662,8.1131,8.0222,7.9393,7.8611,7.7766,7.6698,7.6775,7.7429,7.7275,7.7198,7.7198,0.0,0.0,0.0,0.0,0.0,0.0,0.0,0.0,0.0,0.0,0.0,0.0,0.0,0.0,0.0,0.0,0.0,0.0,0.0,0.0,0.0,0.0,0.0,0.0,0.0,0.0,0.0,0.0,0.0,0.0,0.0,0.0,0.0,0.0,0.0,0.0,0.0,0.0,0.0,0.0,0.0,0.0,0.0,0.0,0.0,0.0,5.0671,5.0632,0.0,0.0,0.0,0.0,0.0,0.0,0.0,0.0,5.0634,0.0,5.4013,0.0,5.7354,5.6759,5.6051,5.489,0.0,5.1609,5.0635,4.9074,4.8843,4.945,5.1204,5.0189,5.051,5.4824,5.4785,5.5283,5.8462,6.4795,7.1083,7.6394,7.8715,7.9469,7.8331,7.9977,8.1093,8.1093,8.1093,8.1093,8.1093,8.1131,8.1246,8.14,8.1478,8.1609,8.1758,8.1781,8.1732,8.1693,8.1543,8.1477,8.1477,8.1285,8.09,8.0292,8.1093,8.0631,7.9138,7.894,7.8374,7.7574,7.6506,7.6207,7.6361,7.6322,7.6284,7.6284,0.0,0.0,0.0,0.0,0.0,0.0,0.0,0.0,0.0,0.0,0.0,0.0,0.0,0.0,0.0,0.0,0.0,0.0,0.0,0.0,0.0,0.0,0.0,0.0,0.0,0.0,0.0,0.0,0.0,0.0,0.0,0.0,0.0,0.0,0.0,0.0,0.0,0.0,0.0,0.0,5.3225,0.0,0.0,0.0,0.0,0.0,4.9783,4.9932,0.0,5.1527,5.2218,5.2511,0.0,0.0,0.0,0.0,4.9673,0.0,5.0073,5.2302,5.4298,5.3888,5.3744,5.3249,5.1255,5.0211,4.9294,4.808,4.8077,4.8891,5.0588,5.0406,5.1145,5.4688,5.515,5.6922,6.2227,6.7226,7.2402,7.7847,7.9315,7.9845,7.9715,8.0523,8.1093,8.1093,8.1093,8.1093,8.1093,8.1093,8.1131,8.1246,8.1246,8.1375,8.1569,8.1556,8.1516,8.1431,8.1325,8.1265,8.1246,8.0739,8.0238,7.9823,8.0008,7.9327,7.8103,7.8091,7.7612,7.6813,7.6207,7.6015,7.6015,7.6015,7.6015,7.6015,0.0,0.0,0.0,0.0,0.0,0.0,0.0,0.0,0.0,0.0,0.0,0.0,0.0,0.0,0.0,0.0,0.0,0.0,0.0,0.0,0.0,0.0,0.0,0.0,0.0,0.0,0.0,0.0,0.0,0.0,0.0,0.0,0.0,0.0,0.0,0.0,0.0,0.0,0.0,0.0,5.2999,0.0,0.0,0.0,0.0,0.0,0.0,0.0,0.0,5.1834,5.2692,5.3111,5.3524,0.0,0.0,0.0,0.0,0.0,4.8601,5.1581,5.4417,5.3634,5.3662,5.3265,5.0936,4.9328,4.8014,4.698,4.7151,4.7919,4.9302,5.045,5.1818,5.3857,5.578,5.9672,6.7224,6.9547,7.2433,7.7839,7.872,7.9394,8.0592,8.0939,8.1093,8.1093,8.1093,8.1093,8.1093,8.1093,8.1093,8.1093,8.1093,8.117,8.1323,8.1323,8.1285,8.1162,8.0987,8.0921,8.09,7.9999,7.9528,7.9422,7.8806,0.0,7.7101,7.7279,7.6813,7.6015,7.6015,7.6015,7.6015,7.6015,7.6015,7.6015,0.0,0.0,0.0,0.0,0.0,0.0,0.0,0.0,0.0,0.0,0.0,0.0,0.0,0.0,0.0,0.0,0.0,0.0,0.0,0.0,0.0,0.0,0.0,0.0,0.0,0.0,0.0,0.0,0.0,0.0,0.0,0.0,0.0,0.0,0.0,0.0,0.0,0.0,0.0,0.0,5.2181,0.0,0.0,0.0,0.0,0.0,0.0,0.0,0.0,4.9189,5.0446,5.1964,5.0724,0.0,0.0,0.0,0.0,0.0,5.0043,5.2839,5.4406,5.0263,5.03,5.0863,4.9072,4.8495,4.8234,4.805,4.8862,5.0226,5.2229,5.2992,5.4472,5.7989,6.1204,6.5639,7.2559,7.3752,7.5061,7.815,7.9798,8.0208,7.9031,8.0215,8.1093,8.1093,8.1093,8.1093,8.1093,8.1093,8.1093,8.1093,8.1093,8.1093,8.1131,8.1131,8.1208,8.1323,8.0431,8.0084,8.023,7.9161,7.8314,7.7699,0.0,7.7764,7.6262,7.7169,7.6929,7.6015,7.6015,7.6015,7.6015,7.6015,7.6015,7.6015,0.0,0.0,0.0,0.0,0.0,0.0,0.0,0.0,0.0,0.0,0.0,0.0,0.0,0.0,0.0,0.0,0.0,0.0,0.0,0.0,0.0,0.0,0.0,0.0,0.0,0.0,0.0,0.0,0.0,0.0,0.0,0.0,0.0,0.0,0.0,0.0,0.0,0.0,0.0,0.0,0.0,0.0,0.0,0.0,0.0,0.0,0.0,0.0,0.0,0.0,5.0695,5.1962,5.1632,0.0,0.0,0.0,0.0,0.0,4.9266,5.1527,5.3016,5.0322,5.2156,5.4038,5.149,5.0257,4.9638,4.9636,4.9891,5.0721,5.2862,5.4694,5.7555,6.2757,6.609,6.9425,7.3482,7.4417,7.5659,7.819,7.9208,7.9754,7.9908,8.0631,8.1093,8.1093,8.1093,8.1093,8.1093,8.1093,8.1093,8.1093,8.1093,8.0862,8.04,8.04,8.0669,8.1208,7.9777,7.9392,7.9892,7.8507,7.766,7.7314,0.0,7.6813,7.6053,7.6544,7.6438,7.6015,7.6015,7.6015,7.6015,7.6015,7.6015,7.6015,0.0,0.0,0.0,0.0,0.0,0.0,0.0,0.0,0.0,0.0,0.0,0.0,0.0,0.0,0.0,0.0,0.0,0.0,0.0,0.0,0.0,0.0,0.0,0.0,0.0,0.0,0.0,0.0,0.0,0.0,0.0,0.0,0.0,0.0,0.0,0.0,0.0,0.0,0.0,0.0,0.0,0.0,0.0,0.0,0.0,0.0,0.0,0.0,0.0,0.0,0.0,0.0,0.0,0.0,0.0,0.0,4.9746,4.8675,4.9044,5.0826,5.2316,5.133,0.0,5.608,5.4166,5.2511,5.1605,5.2327,5.2197,5.2417,5.3912,5.6829,6.0958,6.6756,7.0014,7.2552,7.4697,7.5515,7.6677,7.8838,7.9107,7.9638,8.0977,8.1093,8.1093,8.1093,8.1093,8.1093,8.1093,8.09,8.0785,8.0785,8.0592,8.0169,7.9477,7.9323,7.9631,8.0477,7.8938,7.8554,7.9131,7.766,7.7006,7.6938,7.6284,7.6015,7.6015,7.6015,7.6015,7.6015,7.6015,7.6015,7.6015,7.6015,7.6015,7.6015,0.0,0.0,0.0,0.0,0.0,0.0,0.0,0.0,0.0,0.0,0.0,0.0,0.0,0.0,0.0,0.0,0.0,0.0,0.0,0.0,0.0,0.0,0.0,0.0,0.0,0.0,0.0,0.0,0.0,0.0,0.0,0.0,6.1648,0.0,0.0,0.0,0.0,0.0,0.0,0.0,0.0,0.0,0.0,0.0,0.0,0.0,0.0,0.0,0.0,0.0,0.0,0.0,0.0,0.0,0.0,0.0,5.019,4.982,5.134,5.2936,5.3859,5.2297,5.2175,5.2956,5.4987,5.4208,5.3854,5.6875,5.7434,5.7368,5.7143,6.055,6.4775,6.8828,7.2294,7.5592,7.89,7.94,7.9785,8.0785,8.09,8.0977,8.1093,8.1093,8.1093,8.1093,8.1093,8.1093,8.1093,8.0323,7.99,7.99,7.9092,7.8669,7.8592,7.7861,7.7861,7.8699,7.7784,7.74,7.7438,7.6515,7.6092,7.6092,7.6015,7.6015,7.6015,7.6015,7.6015,7.6015,7.6015,7.6015,7.6015,7.6015,7.6015,7.6015,0.0,0.0,0.0,0.0,0.0,0.0,0.0,0.0,0.0,0.0,0.0,0.0,0.0,0.0,0.0,0.0,0.0,0.0,0.0,0.0,0.0,0.0,0.0,0.0,0.0,0.0,0.0,0.0,0.0,0.0,0.0,6.369,0.0,0.0,0.0,0.0,0.0,0.0,0.0,0.0,0.0,0.0,0.0,0.0,0.0,0.0,0.0,0.0,0.0,0.0,0.0,0.0,0.0,0.0,0.0,0.0,4.983,4.8912,4.9522,5.1265,5.2747,5.2155,5.3134,0.0,0.0,5.8178,5.9088,6.1312,6.1789,6.1691,6.1374,6.3988,6.7216,7.0316,7.3889,7.7139,7.9477,8.0285,8.0708,8.1054,8.1093,8.1093,8.1093,8.1093,8.0862,8.0323,8.0285,8.0023,7.9485,7.9177,7.9015,7.8977,7.8669,7.8246,7.7746,7.7438,7.6899,7.613,7.6361,7.6784,7.7246,7.5822,7.5207,7.5178,7.5207,7.5207,7.5178,7.5178,7.5178,7.5178,7.5178,7.5197,7.5264,7.5813,7.5322,7.4514,0.0,0.0,0.0,0.0,0.0,0.0,0.0,0.0,0.0,0.0,0.0,0.0,0.0,0.0,0.0,0.0,0.0,0.0,0.0,0.0,0.0,0.0,0.0,0.0,0.0,0.0,0.0,0.0,0.0,0.0,6.7455,0.0,0.0,0.0,0.0,0.0,0.0,0.0,0.0,0.0,0.0,0.0,0.0,0.0,0.0,0.0,0.0,0.0,0.0,0.0,0.0,0.0,0.0,0.0,0.0,0.0,0.0,4.8967,4.8418,4.9936,5.1599,5.1595,5.3812,5.6821,6.0029,6.1382,6.2784,6.5783,6.5359,6.4434,6.4435,6.6036,6.8223,7.0681,7.4797,7.8062,7.9246,8.04,8.09,8.0323,8.0746,8.0862,8.0323,8.0516,8.0323,7.9477,7.94,7.91,7.8523,7.7985,7.7831,7.8092,7.7592,7.7053,7.6476,7.6476,7.5745,7.4322,7.4938,7.5515,7.6053,7.513,7.4591,7.4332,7.4322,7.4293,7.4303,7.4303,7.4332,7.4322,7.4322,7.4312,7.4379,7.4966,7.4476,7.3591,0.0,0.0,0.0,0.0,0.0,0.0,0.0,0.0,0.0,0.0,0.0,0.0,0.0,0.0,0.0,0.0,0.0,0.0,0.0,0.0,0.0,0.0,0.0,0.0,0.0,0.0,0.0,0.0,7.0872,7.1142,6.6677,0.0,0.0,0.0,0.0,0.0,0.0,0.0,0.0,0.0,0.0,0.0,0.0,0.0,0.0,0.0,0.0,0.0,0.0,0.0,0.0,0.0,0.0,0.0,0.0,0.0,5.0806,5.0419,4.8751,4.9517,5.0787,5.0832,5.3833,5.8107,6.3012,6.3443,6.4439,7.0113,6.8128,6.5485,6.5939,6.6612,6.7724,6.9889,7.4834,7.8477,7.8477,7.9977,8.0439,7.8707,8.0015,8.04,7.8669,7.9285,7.94,7.8523,7.8477,7.8468,7.8438,7.687,7.637,7.7246,7.5601,7.4678,7.4707,7.4707,7.4284,7.3514,7.3514,7.3514,7.3553,7.4322,7.4245,7.3514,7.3514,7.3486,7.3466,7.3466,7.3514,7.3482,7.3482,7.3493,7.3476,7.3493,7.3493,7.3476,0.0,0.0,0.0,0.0,0.0,0.0,0.0,0.0,0.0,0.0,0.0,0.0,0.0,0.0,0.0,0.0,0.0,0.0,0.0,0.0,0.0,0.0,0.0,0.0,0.0,0.0,6.14,6.6474,6.803,6.6508,0.0,0.0,0.0,5.5141,0.0,0.0,0.0,0.0,0.0,0.0,0.0,0.0,0.0,0.0,0.0,0.0,0.0,0.0,0.0,0.0,0.0,0.0,0.0,0.0,0.0,5.0477,5.0373,5.0281,4.805,4.9122,5.1077,5.2209,5.5952,6.0619,6.5508,6.5983,6.6858,7.1915,7.0653,6.8733,6.8873,6.9348,6.9926,7.0421,7.3649,7.6453,7.7493,7.8592,7.9092,7.8554,7.8938,7.9054,7.8554,7.8707,7.8284,7.6861,7.6746,7.6245,7.5053,7.4514,7.4361,7.462,7.413,7.386,7.386,7.386,7.3437,7.2591,7.3206,7.3514,7.3514,7.3091,7.2822,7.2591,7.2619,7.258,7.2591,7.2591,7.258,7.2608,7.2608,7.258,7.2657,7.3273,7.2706,7.1745,0.0,0.0,0.0,0.0,0.0,0.0,0.0,0.0,0.0,0.0,0.0,0.0,0.0,0.0,0.0,0.0,0.0,0.0,0.0,0.0,0.0,0.0,0.0,0.0,0.0,5.5683,5.9235,0.0,0.0,0.0,0.0,0.0,0.0,5.6667,0.0,0.0,0.0,0.0,0.0,0.0,0.0,0.0,0.0,0.0,0.0,0.0,0.0,0.0,0.0,0.0,0.0,0.0,0.0,0.0,0.0,4.9923,4.9455,4.9156,4.8294,4.9398,5.1458,5.441,5.8007,6.2155,6.7083,6.9284,7.1264,7.4458,7.2702,7.0694,7.0992,7.0708,7.0511,7.0718,7.349,7.5778,7.635,7.7616,7.8246,7.7592,7.8092,7.8246,7.7553,7.7515,7.6938,7.5592,7.5207,7.4553,7.3553,7.3168,7.3157,7.3504,7.3168,7.2822,7.2447,7.2476,7.186,7.0706,7.1245,7.1475,7.1514,7.1975,7.2014,7.1668,7.1349,7.1387,7.1657,7.1321,7.1426,7.1695,7.1695,7.1695,7.1772,7.2283,7.1783,7.0975,0.0,0.0,0.0,0.0,0.0,0.0,0.0,0.0,0.0,0.0,0.0,0.0,0.0,0.0,0.0,0.0,0.0,0.0,0.0,0.0,0.0,0.0,0.0,0.0,0.0,0.0,0.0,0.0,0.0,0.0,0.0,0.0,6.1738,6.0994,0.0,6.1405,0.0,0.0,0.0,0.0,0.0,0.0,0.0,0.0,0.0,0.0,0.0,0.0,0.0,0.0,0.0,0.0,0.0,4.8992,4.8545,4.9117,4.836,4.761,4.909,5.0247,5.2193,5.7021,6.0377,6.3693,6.8307,7.281,7.6125,7.6704,7.4068,7.1829,7.2511,7.1242,7.0362,7.1082,7.3921,7.5779,7.5091,7.6695,7.7408,7.5938,7.713,7.7438,7.5938,7.5784,7.5399,7.4553,7.3783,7.336,7.3273,7.2437,7.236,7.3234,7.236,7.1486,7.0805,7.0717,6.9937,6.841,6.8398,6.8398,6.8475,7.0783,7.1398,7.0629,6.9925,7.004,7.0744,6.9986,7.0179,7.0898,7.0898,7.0898,7.0898,7.0898,7.0898,7.0898,0.0,0.0,0.0,0.0,0.0,0.0,0.0,0.0,0.0,0.0,0.0,0.0,0.0,0.0,0.0,0.0,0.0,0.0,0.0,0.0,0.0,0.0,0.0,0.0,0.0,0.0,0.0,0.0,0.0,0.0,0.0,0.0,0.0,5.8693,0.0,6.0028,0.0,0.0,0.0,0.0,0.0,0.0,0.0,0.0,0.0,0.0,0.0,0.0,0.0,0.0,0.0,0.0,4.8495,4.8898,4.8967,4.7205,4.7787,4.8908,4.8648,5.0617,5.3835,5.871,6.4604,6.9797,7.213,7.3949,7.4843,7.3772,7.3836,7.3969,7.356,7.3088,7.2871,7.2894,7.3004,7.3326,7.4066,7.3976,7.391,7.4024,7.4361,7.4437,7.4091,7.4053,7.3668,7.2783,7.2591,7.2168,7.1475,7.0667,7.0629,7.1437,7.0014,6.9475,6.9975,6.9256,6.8756,6.8398,6.8398,6.8398,6.8436,6.8975,6.9129,6.891,6.8717,6.9167,6.9925,6.9756,7.0179,7.0898,7.0898,7.0898,7.0898,7.0898,7.0898,7.0898,0.0,0.0,0.0,0.0,0.0,0.0,0.0,0.0,0.0,0.0,0.0,0.0,0.0,0.0,0.0,0.0,0.0,0.0,0.0,0.0,0.0,0.0,0.0,0.0,0.0,0.0,0.0,0.0,0.0,0.0,0.0,0.0,0.0,5.8524,0.0,5.9945,0.0,0.0,0.0,0.0,0.0,0.0,0.0,0.0,0.0,0.0,0.0,0.0,0.0,0.0,0.0,0.0,0.0,0.0,4.7721,4.7198,4.7132,4.7641,4.9554,5.1908,5.539,6.2181,6.8235,7.2483,7.2569,7.3162,7.3312,7.1668,7.2915,7.3964,7.2789,7.2569,7.2389,7.1907,7.1701,7.1808,7.2402,7.2548,7.2716,7.3022,7.2937,7.2899,7.2899,7.2514,7.1898,7.1052,7.1014,7.0629,6.9744,6.9321,6.9283,6.9706,6.8859,6.8436,6.8475,6.8013,6.759,6.7205,6.7205,6.7205,6.7244,6.8052,6.8398,6.8371,6.7975,6.8282,6.9052,6.8629,6.8975,6.9679,6.9395,6.9336,6.9344,6.9502,6.9589,6.9594,0.0,0.0,0.0,0.0,0.0,0.0,0.0,0.0,0.0,0.0,0.0,0.0,0.0,0.0,0.0,0.0,0.0,0.0,0.0,0.0,0.0,0.0,0.0,0.0,0.0,0.0,0.0,0.0,0.0,0.0,0.0,0.0,0.0,5.9268,0.0,0.0,0.0,0.0,0.0,0.0,0.0,0.0,0.0,0.0,0.0,0.0,0.0,0.0,0.0,0.0,0.0,0.0,0.0,0.0,4.6096,4.7159,4.6165,4.5657,4.997,5.3256,5.7376,6.5448,7.0293,7.2757,7.1414,7.1637,7.1618,7.0037,7.1507,7.2684,7.1321,7.1101,7.0881,7.022,7.0428,7.0685,7.0746,7.1312,7.1709,7.1819,7.1574,7.143,7.143,7.0832,7.0206,6.9513,6.9475,6.9167,6.8436,6.8282,6.8244,6.8398,6.8129,6.7705,6.7128,6.6821,6.632,6.5667,6.5513,6.5436,6.5513,6.7051,6.7821,6.7936,6.7205,6.7359,6.8129,6.7398,6.7564,6.8224,6.7775,6.7545,6.7521,6.7808,6.7994,6.822,0.0,0.0,0.0,0.0,0.0,0.0,0.0,0.0,0.0,0.0,0.0,0.0,0.0,0.0,0.0,0.0,0.0,0.0,0.0,0.0,0.0,0.0,0.0,0.0,0.0,0.0,0.0,0.0,0.0,0.0,0.0,0.0,0.0,0.0,0.0,0.0,0.0,0.0,0.0,0.0,0.0,0.0,0.0,0.0,0.0,0.0,0.0,0.0,0.0,0.0,4.8306,0.0,0.0,0.0,4.5663,4.4485,4.441,4.5147,4.7195,5.3551,6.0774,6.5477,6.866,7.0531,7.0293,7.0312,6.9963,6.8365,6.9394,7.0551,7.0293,7.0257,7.022,7.011,6.9595,6.9347,6.9793,6.88,6.8178,6.8637,6.8399,6.8209,6.8209,6.8513,6.8706,6.859,6.859,6.8513,6.8398,6.7667,6.7628,6.8398,6.6974,6.6513,6.709,6.5667,6.4859,6.4743,6.4012,6.3666,6.3666,6.4666,6.5513,6.6244,6.609,6.6513,6.7244,6.7128,6.7323,6.7713,6.761,6.7338,6.7014,6.7051,6.7503,6.8107,0.0,0.0,0.0,0.0,0.0,0.0,0.0,0.0,0.0,0.0,0.0,0.0,0.0,0.0,0.0,0.0,0.0,0.0,0.0,0.0,0.0,0.0,0.0,0.0,0.0,0.0,0.0,0.0,0.0,0.0,0.0,5.5721,5.7137,0.0,0.0,0.0,0.0,0.0,0.0,0.0,0.0,0.0,0.0,0.0,0.0,0.0,0.0,0.0,0.0,0.0,4.8035,4.8122,4.6948,0.0,0.0,0.0,4.4412,4.5655,5.0009,5.5054,6.0164,6.4709,6.6957,6.8092,6.811,6.8091,6.7777,6.6586,6.6916,6.7557,6.7981,6.8458,6.8752,6.8752,6.8091,6.7647,6.7885,6.7205,6.656,6.6336,6.6253,6.6046,6.5588,6.5953,6.6282,6.6282,6.6282,6.6282,6.6282,6.5897,6.5859,6.6244,6.5551,6.5359,6.5705,6.4474,6.3858,6.3883,6.3474,6.3281,6.3281,6.3449,6.4101,6.5205,6.5705,6.609,6.6436,6.6436,6.6336,6.6167,6.5901,6.5502,6.5099,6.524,6.5551,6.5886,0.0,0.0,0.0,0.0,0.0,0.0,0.0,0.0,0.0,0.0,0.0,0.0,0.0,0.0,0.0,0.0,0.0,0.0,0.0,0.0,0.0,0.0,0.0,0.0,0.0,0.0,0.0,0.0,0.0,0.0,5.5716,5.6098,5.7446,0.0,5.7611,0.0,0.0,0.0,0.0,0.0,0.0,0.0,0.0,0.0,0.0,0.0,0.0,0.0,0.0,0.0,4.7838,4.7892,4.7057,4.6397,0.0,0.0,0.0,4.5579,5.1034,5.4489,5.7517,6.1784,6.4046,6.5286,6.527,6.5433,6.5411,6.4787,6.4677,6.4934,6.5742,6.6549,6.71,6.71,6.6586,6.6219,6.6219,6.5866,6.5311,6.4456,6.4405,6.4153,6.3454,6.3848,6.4142,6.4282,6.4282,6.4282,6.4282,6.4282,6.4193,6.4077,6.4077,6.4051,6.3904,6.318,6.2784,6.2651,6.2554,6.2465,6.249,6.2222,6.265,6.3663,6.4627,6.5191,6.5409,6.5526,6.5322,6.4866,6.4518,6.4016,6.3428,6.3702,6.3906,6.42,0.0,0.0,0.0,0.0,0.0,0.0,0.0,0.0,0.0,0.0,0.0,0.0,0.0,0.0,0.0,0.0,0.0,0.0,0.0,0.0,0.0,0.0,0.0,0.0,0.0,0.0,0.0,0.0,0.0,0.0,5.5723,5.7123,6.0075,6.4106,6.1138,5.8632,5.6494,0.0,0.0,0.0,0.0,0.0,0.0,0.0,0.0,0.0,0.0,0.0,0.0,0.0,4.7879,4.7259,4.6285,4.592,4.559,0.0,0.0,0.0,4.6789,4.9841,5.2935,5.5468,5.8967,6.1826,6.1862,6.2412,6.2989,6.2952,6.2952,6.3209,6.4053,6.4897,6.5411,6.5411,6.5411,6.5375,6.5375,6.4692,6.3883,6.3002,6.2695,6.2395,6.203,6.2433,6.2901,6.3334,6.3358,6.3358,6.3358,6.3358,6.3168,6.2718,6.2718,6.2497,6.2024,6.1697,6.1322,6.0935,6.0453,6.0246,6.0285,6.0643,6.0853,6.0963,6.223,6.3253,6.4046,6.4461,6.4603,6.4407,6.4407,6.3766,6.2855,6.2842,6.3392,6.409,0.0,0.0,0.0,0.0,0.0,0.0,0.0,0.0,0.0,0.0,0.0,0.0,0.0,0.0,0.0,0.0,0.0,0.0,0.0,0.0,0.0,0.0,0.0,0.0,0.0,0.0,0.0,0.0,0.0,5.0618,5.4292,5.5314,5.7934,6.1647,6.0062,5.8689,5.7273,5.3585,0.0,0.0,0.0,0.0,0.0,0.0,0.0,0.0,0.0,0.0,4.7797,0.0,4.7263,4.6668,4.6097,4.5624,4.5106,4.3868,4.3497,4.4044,4.6459,4.7942,4.9706,5.3175,5.5932,5.7859,5.8382,5.9953,6.1117,6.0591,6.0921,6.1349,6.1702,6.3254,6.4714,6.5228,6.4861,6.4347,6.3796,6.2989,6.1998,6.0676,6.0633,6.0547,5.9925,6.0534,6.1306,6.2021,6.1851,6.1799,6.2049,6.2087,6.1878,6.1397,6.1363,6.1031,6.033,6.0165,6.0026,5.9885,5.976,5.9625,5.9663,5.9514,5.9439,5.9439,5.9891,6.1049,6.2686,6.3351,6.3421,6.3185,6.3668,6.3453,6.2805,6.2805,6.3025,6.3282,0.0,0.0,0.0,0.0,0.0,0.0,0.0,0.0,0.0,0.0,0.0,0.0,0.0,0.0,0.0,0.0,0.0,0.0,0.0,0.0,0.0,0.0,0.0,0.0,0.0,0.0,0.0,0.0,0.0,0.0,0.0,5.3975,5.6566,6.0035,5.8565,5.8357,0.0,0.0,0.0,5.2063,0.0,0.0,4.948,0.0,0.0,0.0,0.0,4.7595,4.7784,4.699,4.6255,4.5717,4.5639,4.529,4.4704,4.3759,4.3497,4.3826,4.5469,4.6276,4.7459,5.0743,5.2578,5.3934,5.5264,5.6838,5.807,5.8364,5.9014,5.9773,6.0298,6.1752,6.3025,6.3562,6.3195,6.2695,6.2108,6.152,6.0713,5.9391,5.9456,5.9436,5.8788,5.9248,6.002,6.0904,6.0736,6.0686,6.0933,6.0971,6.0659,6.0077,5.989,5.959,5.9139,5.9139,5.9248,5.9389,5.9248,5.9139,5.9139,5.8673,5.8461,5.8461,5.8461,5.9539,6.1319,6.1994,6.2333,6.2439,6.2997,6.3049,6.2805,6.2805,6.2805,6.2805,0.0,0.0,0.0,0.0,0.0,0.0,0.0,0.0,0.0,0.0,0.0,0.0,0.0,0.0,0.0,0.0,0.0,0.0,0.0,0.0,0.0,0.0,0.0,0.0,0.0,0.0,0.0,0.0,0.0,0.0,0.0,0.0,5.6404,5.977,5.6974,5.7707,6.096,0.0,5.7306,5.6258,0.0,4.9882,5.1219,0.0,0.0,0.0,5.136,5.0159,4.8538,4.6253,4.5045,4.46,4.5036,4.4962,4.4562,4.3718,4.3497,4.3497,0.0,0.0,0.0,4.7797,4.8879,5.0149,5.2491,5.3078,5.3812,5.6169,5.7299,5.84,6.0015,6.0309,6.0298,6.0323,6.0359,6.0359,6.0382,6.0382,6.0089,5.9281,5.9171,5.9034,5.8706,5.8713,5.9103,5.9977,6.0074,6.0074,6.0074,6.0074,5.9592,5.8713,5.8238,5.8194,5.8673,5.8673,5.8913,5.9354,5.8913,5.8673,5.8673,5.8194,5.7997,5.7997,5.7997,5.8725,5.9987,6.0491,6.1318,6.2327,6.2364,6.2567,6.2805,6.2805,6.2805,6.2805,0.0,0.0,0.0,0.0,0.0,0.0,0.0,0.0,0.0,0.0,0.0,0.0,0.0,0.0,0.0,0.0,0.0,0.0,0.0,0.0,0.0,0.0,0.0,0.0,0.0,0.0,0.0,0.0,0.0,0.0,0.0,0.0,0.0,0.0,5.5621,5.596,5.6258,5.345,0.0,5.4093,5.0473,5.0198,0.0,0.0,0.0,0.0,0.0,5.0034,4.9573,4.877,4.8172,4.7507,4.6346,4.5355,4.4562,4.3718,4.3497,4.3497,4.3497,0.0,0.0,0.0,0.0,0.0,4.8634,5.0178,5.1789,5.3066,5.4436,5.5889,5.7491,5.828,5.8657,5.8694,5.9637,6.0188,5.9626,5.9553,5.9223,5.8437,5.8327,5.8263,5.8186,5.8503,5.8796,5.9065,5.9389,5.9424,5.9102,5.8756,5.8461,5.8194,5.8088,5.8051,5.8194,5.8194,5.8238,5.8375,5.8238,5.8194,5.8186,5.8088,5.7997,5.7997,5.7997,5.8198,5.86,5.9331,6.0137,6.1034,6.1587,6.2217,6.2805,6.2805,6.2805,6.2805,0.0,0.0,0.0,0.0,0.0,0.0,0.0,0.0,0.0,0.0,0.0,0.0,0.0,0.0,0.0,0.0,0.0,0.0,0.0,0.0,0.0,0.0,0.0,0.0,0.0,0.0,0.0,0.0,0.0,0.0,0.0,0.0,0.0,0.0,0.0,0.0,0.0,0.0,0.0,0.0,5.0879,0.0,0.0,5.1488,5.1575,0.0,0.0,5.1439,5.1184,4.9587,4.873,4.8094,4.6047,4.5791,4.5947,4.4454,4.445,4.4888,4.4158,4.4268,4.4672,4.5516,0.0,0.0,4.6544,4.7463,4.8567,4.974,5.1261,5.2878,5.452,5.5743,5.6603,5.6942,5.805,5.8867,5.871,5.8673,5.8537,5.807,5.7666,5.7629,5.796,5.7943,5.8132,5.8676,5.8951,5.884,5.8231,5.8054,5.785,5.7519,5.7813,5.7997,5.7997,5.7997,5.7997,5.7997,5.7997,5.7997,5.7997,5.7997,5.7997,5.7997,5.7997,5.7997,5.8033,5.851,5.9391,6.0456,6.0933,6.1814,6.2805,6.2805,6.2805,6.2805,0.0,0.0,0.0,0.0,0.0,0.0,0.0,0.0,0.0,0.0,0.0,0.0,0.0,0.0,0.0,0.0,0.0,0.0,0.0,0.0,0.0,0.0,0.0,0.0,0.0,0.0,0.0,0.0,0.0,0.0,0.0,0.0,0.0,0.0,0.0,0.0,0.0,0.0,0.0,5.301,5.1826,5.2706,0.0,0.0,5.416,5.4634,5.389,5.3619,5.3144,4.9664,4.8269,4.7568,4.5404,4.631,4.7738,4.5623,4.5883,4.6617,4.5334,4.5517,4.6176,4.672,4.592,0.0,4.5516,4.5217,4.5244,4.6651,4.8197,4.983,5.1565,5.319,5.4492,5.5195,5.609,5.6942,5.7886,5.7997,5.796,5.7886,5.7226,5.7051,5.7666,5.7079,5.7192,5.8405,5.8595,5.826,5.7478,5.7795,5.7629,5.6822,5.7593,5.7997,5.7997,5.7997,5.7997,5.7997,5.7997,5.7997,5.7997,5.7997,5.7997,5.7997,5.7997,5.7997,5.7997,5.7997,5.8914,6.0272,6.0382,6.1337,6.2695,6.2768,6.2805,6.2805,0.0,0.0,0.0,0.0,0.0,0.0,0.0,0.0,0.0,0.0,0.0,0.0,0.0,0.0,0.0,0.0,0.0,0.0,0.0,0.0,0.0,0.0,0.0,0.0,0.0,0.0,0.0,0.0,0.0,0.0,0.0,0.0,0.0,0.0,0.0,0.0,0.0,0.0,0.0,5.0845,5.1725,5.345,5.548,5.5344,5.5378,5.5412,5.4634,5.4397,5.416,5.284,5.1138,4.9444,4.8923,4.7407,4.5934,4.6578,4.6178,4.5675,4.6542,4.6916,4.6741,4.5623,4.6038,0.0,4.4382,4.4854,4.5772,4.6067,4.691,4.8274,5.0618,5.2324,5.3514,5.3665,5.4883,5.6347,5.7813,5.7997,5.773,5.7134,5.6914,5.663,5.614,5.5941,5.6198,5.7111,5.7773,5.781,5.7,5.7602,5.7629,5.6822,5.7593,5.7997,5.7997,5.7997,5.7997,5.7997,5.7997,5.7997,5.7997,5.7997,5.7997,5.7997,5.7997,5.7997,5.7997,5.7997,5.8584,5.9501,6.0162,6.1006,6.1924,6.2585,6.2805,6.2805,0.0,0.0,0.0,0.0,0.0,0.0,0.0,0.0,0.0,0.0,0.0,0.0,0.0,0.0,0.0,0.0,0.0,0.0,0.0,0.0,0.0,0.0,0.0,0.0,0.0,0.0,0.0,0.0,0.0,0.0,0.0,0.0,0.0,0.0,0.0,0.0,0.0,0.0,4.9763,5.0236,5.1725,0.0,5.5141,5.5141,5.5615,5.6122,5.5006,5.4363,5.3822,5.23,5.1503,5.0798,4.8875,4.8486,4.8644,4.808,4.7711,4.7472,4.7393,4.711,4.6802,4.6791,4.6481,0.0,0.0,4.4127,4.4232,4.4599,4.4998,4.595,4.7979,4.9306,5.0558,5.182,5.237,5.3592,5.6441,5.6809,5.6662,5.625,5.5875,5.5618,5.5588,5.5207,5.531,5.6124,5.6565,5.6455,5.5647,5.6381,5.6418,5.5647,5.6381,5.7005,5.7409,5.7409,5.7593,5.7997,5.7997,5.7997,5.7997,5.7997,5.7997,5.7997,5.7997,5.7997,5.7997,5.7997,5.8253,5.8694,5.9501,6.0309,6.1117,6.1887,6.2218,6.2254,0.0,0.0,0.0,0.0,0.0,0.0,0.0,0.0,0.0,0.0,0.0,0.0,0.0,0.0,0.0,0.0,0.0,0.0,0.0,0.0,0.0,0.0,0.0,4.9154,0.0,0.0,0.0,0.0,0.0,0.0,0.0,0.0,0.0,0.0,0.0,0.0,0.0,0.0,0.0,5.0405,5.1623,5.301,5.4431,5.4871,5.5683,5.6427,5.5074,5.4126,5.3213,5.1386,5.1485,5.1783,4.8678,4.9528,5.1336,4.9818,4.9609,4.9696,4.8694,4.7998,4.7664,4.8259,4.705,4.5507,0.0,0.0,0.0,4.3284,4.3428,4.397,4.5397,4.6322,4.7609,4.972,4.9808,5.0741,5.3998,5.4437,5.4691,5.5318,5.4239,5.3829,5.4816,5.4332,5.4252,5.506,5.528,5.5097,5.4436,5.5133,5.5207,5.4436,5.517,5.5904,5.6565,5.6712,5.7152,5.7776,5.7923,5.7997,5.7997,5.7997,5.7997,5.7997,5.7997,5.7997,5.7997,5.7997,5.7997,5.807,5.8914,5.9612,6.0309,6.1263,6.1594,6.1704,4.9965,5.071,0.0,0.0,0.0,0.0,0.0,0.0,0.0,0.0,0.0,0.0,0.0,0.0,0.0,0.0,0.0,0.0,5.6934,0.0,0.0,0.0,0.0,0.0,4.7192,0.0,0.0,0.0,0.0,0.0,0.0,0.0,0.0,0.0,4.5602,0.0,0.0,0.0,4.8612,5.1116,5.1285,5.2266,5.3856,5.5818,5.6258,5.5716,5.4871,5.4126,5.345,5.3213,5.2739,5.2198,5.182,5.06,4.9699,5.1405,5.0957,5.0285,5.1408,5.172,5.1038,4.8349,4.8097,4.7526,4.3915,0.0,4.44,4.3059,0.0,4.3754,4.4671,0.0,0.0,4.7352,4.8669,4.9779,5.0229,5.0268,5.133,5.4197,5.1879,5.0701,5.2238,5.2348,5.2601,5.3408,5.4142,5.4509,5.4399,5.5133,5.5207,5.4436,5.517,5.5647,5.5721,5.6455,5.6859,5.6932,5.7666,5.7997,5.7997,5.7997,5.7997,5.7997,5.7997,5.7997,5.7997,5.7997,5.7997,5.807,5.8914,5.9281,5.9538,6.1043,6.1594,6.1704,4.9864,5.071,0.0,0.0,0.0,0.0,0.0,0.0,0.0,0.0,0.0,0.0,0.0,0.0,0.0,0.0,0.0,5.6596,0.0,0.0,0.0,0.0,4.9695,4.956,4.9357,0.0,0.0,0.0,4.9221,0.0,0.0,0.0,0.0,0.0,4.594,4.6549,4.7733,4.797,4.8781,5.0033,5.1319,5.1995,5.2469,5.5141,5.5987,5.5615,5.4871,5.4126,5.3315,5.1961,5.2198,5.2773,5.142,5.1285,5.1688,5.2145,5.1555,5.0837,5.1486,5.1042,5.0154,4.9274,4.8289,4.6949,4.4809,4.4092,4.3734,4.3484,0.0,0.0,0.0,0.0,0.0,0.0,4.6214,4.669,4.8606,4.7242,4.7463,5.1157,4.997,4.9079,4.9774,5.0288,5.0545,5.0362,5.1568,5.2302,5.2312,5.3072,5.3586,5.3702,5.4032,5.4442,5.4926,5.5257,5.5875,5.6822,5.7152,5.7556,5.7997,5.7997,5.7997,5.7997,5.7997,5.7997,5.7997,5.7997,5.7997,5.8033,5.8364,5.851,5.8694,6.0309,6.0896,6.1031,4.956,0.0,0.0,0.0,0.0,0.0,0.0,0.0,0.0,0.0,0.0,0.0,6.9248,6.7184,0.0,0.0,6.2144,5.937,0.0,0.0,5.2841,5.071,5.0473,5.027,0.0,0.0,0.0,0.0,0.0,0.0,0.0,0.0,0.0,0.0,0.0,4.7022,4.7496,4.8748,4.9661,5.0338,5.1758,5.2232,5.2367,5.4363,5.5243,5.531,5.4566,5.3957,5.3247,5.1589,5.2131,0.0,5.1555,5.2164,5.3348,5.2536,5.2097,5.1792,5.1589,5.0879,5.0168,4.9864,4.8328,4.6536,4.5161,4.4188,4.3684,4.3957,4.4145,0.0,0.0,0.0,4.5111,4.6063,0.0,4.5224,4.7352,4.5443,4.5178,4.8779,4.868,4.8234,4.8015,4.8529,4.8748,4.8343,4.9221,4.9994,5.0475,5.1229,5.2029,5.2852,5.3072,5.3445,5.4081,5.4307,5.5073,5.6463,5.6712,5.7217,5.7997,5.7997,5.7997,5.7997,5.7997,5.7997,5.7997,5.7997,5.7997,5.7997,5.7997,5.7904,5.7909,5.9469,6.0053,6.0172,4.8883,4.9627,0.0,0.0,0.0,0.0,0.0,0.0,0.0,0.0,0.0,0.0,0.0,0.0,0.0,0.0,0.0,6.1501,6.211,0.0,5.2909,4.9221,5.0439,4.983,0.0,0.0,0.0,0.0,0.0,0.0,0.0,0.0,0.0,0.0,4.6481,4.7597,4.8984,4.9729,5.1319,5.3281,5.257,5.3179,5.4397,5.3822,5.4025,5.4532,5.3788,0.0,0.0,5.3416,5.345,0.0,0.0,0.0,5.3348,5.2536,5.2841,5.3281,5.2469,0.0,5.2672,4.9763,4.8443,4.7056,4.4113,4.4453,4.5131,4.442,4.6377,4.8011,4.7342,4.7729,0.0,0.0,4.7021,0.0,0.0,4.5223,4.5587,4.8041,4.8311,4.8015,4.7198,4.7166,4.75,4.8233,4.761,4.7903,4.9545,5.041,5.1213,5.1993,5.2815,5.3225,5.3261,5.4007,5.4828,5.5649,5.6455,5.7208,5.7997,5.7997,5.7997,5.7997,5.7997,5.7997,5.7997,5.7997,5.7997,5.7997,5.7997,5.7546,5.7093,5.8645,5.9222,5.9331,0.0,0.0,0.0,0.0,0.0,0.0,0.0,5.8007,0.0,0.0,6.6757,0.0,0.0,7.324,7.2631,0.0,0.0,6.6643,6.5392,6.1839,0.0,5.6461,5.6359,5.4972,0.0,0.0,0.0,0.0,0.0,0.0,0.0,0.0,0.0,0.0,0.0,4.7597,4.9086,5.0304,5.1285,5.1995,5.2232,5.3518,5.5209,0.0,5.3957,5.4499,5.3754,5.3518,0.0,5.3518,5.3518,5.3518,5.3518,5.3518,5.345,5.3179,5.3281,5.345,0.0,0.0,5.301,5.098,0.0,0.0,4.55,4.5264,4.5337,4.4509,4.5819,4.7139,4.7276,4.747,0.0,0.0,4.6654,4.603,0.0,4.4377,4.4412,4.5727,4.5919,4.559,4.482,4.5662,4.5956,4.5186,4.5845,4.6544,4.7132,4.8969,5.0354,5.1177,5.2517,5.3225,5.3225,5.3445,5.4307,5.5613,5.5875,5.6748,5.7997,5.7997,5.7997,5.7997,5.7997,5.7997,5.7997,5.7997,5.7997,5.795,5.7449,5.7116,5.7057,5.8067,5.8465,5.8601,5.0439,0.0,0.0,0.0,0.0,0.0,0.0,0.0,0.0,0.0,6.9478,0.0,7.7198,0.0,7.6149,0.0,7.3984,7.1041,6.7455,6.5696,0.0,6.025,5.9641,5.8017,0.0,0.0,0.0,0.0,0.0,4.9661,0.0,0.0,0.0,0.0,0.0,4.8477,4.8781,5.1352,5.2097,5.1657,5.2435,5.3619,5.4837,0.0,5.4126,5.4871,0.0,5.3518,5.3518,5.3518,5.3518,5.3518,5.3518,5.3518,5.345,5.3179,5.3281,5.345,5.3145,5.3281,0.0,5.1589,5.0507,0.0,4.6989,0.0,4.6937,4.5768,4.6975,4.8189,4.8258,4.821,4.7959,4.7299,4.643,4.5553,0.0,4.3826,4.3679,4.4226,4.4781,4.493,4.4418,4.5296,4.5365,4.4044,4.4632,4.5145,4.5469,4.7795,4.9515,5.0362,5.2218,5.3225,5.3225,5.3445,5.4307,5.5613,5.5875,5.6703,5.7997,5.7997,5.7997,5.7997,5.7997,5.7997,5.7997,5.7997,5.7821,5.7546,5.7065,5.6563,5.6201,5.6985,5.7423,5.7706,0.0,0.0,0.0,0.0,5.3145,0.0,0.0,0.0,6.4218,0.0,7.0162,7.4322,7.8855,7.8044,7.7739,7.916,7.7841,7.4525,6.8774,6.8944,0.0,0.0,6.0588,5.9133,5.6122,0.0,0.0,0.0,0.0,0.0,0.0,0.0,0.0,0.0,4.9864,4.9965,4.8206,5.2604,5.3653,5.2367,5.3179,5.3551,5.3619,5.3551,5.4431,5.5513,5.4025,5.3518,5.3518,5.3518,5.3518,5.3518,5.3518,5.3518,5.3348,5.257,5.2909,5.3348,5.257,5.2909,5.3145,5.1657,5.1251,0.0,0.0,0.0,4.9661,4.8206,4.9605,5.0863,5.0105,4.9745,4.9089,4.7542,4.6481,4.5296,4.3718,4.3497,4.3497,4.3534,4.492,4.5843,4.5805,4.5809,4.5506,4.4702,4.3934,4.3826,4.4591,4.6912,4.8666,4.9513,5.1883,5.3188,5.3225,5.397,5.4754,5.5607,5.6381,5.7171,5.796,5.796,5.795,5.7883,5.7904,5.7904,5.7904,5.7904,5.7449,5.6861,5.6809,5.5907,5.4683,5.5444,5.6131,5.69,5.1488,5.2401,5.3687,0.0,5.4126,5.4768,0.0,0.0,0.0,0.0,7.3662,7.7435,8.19,8.1562,8.1156,8.1528,7.9194,0.0,0.0,0.0,0.0,6.8538,6.7387,6.4884,6.0757,6.0317,5.8321,5.4566,0.0,0.0,5.0913,0.0,0.0,0.0,0.0,4.9458,4.8139,5.1488,5.2672,5.2367,5.3179,5.416,5.504,0.0,5.4431,5.5513,5.4025,5.3518,5.3518,5.3518,5.3518,5.3518,5.3518,5.3518,5.345,5.3247,5.3348,5.345,5.3247,5.3348,5.3281,5.2266,5.1623,5.0777,0.0,0.0,0.0,0.0,0.0,0.0,0.0,0.0,4.7961,4.7465,4.6041,4.4674,4.3644,4.3497,4.3718,4.4305,4.4741,4.4745,4.4157,4.4674,4.4665,4.3897,4.3642,4.3605,4.3789,4.6101,4.7793,4.862,5.1041,5.259,5.3188,5.3371,5.4209,5.5623,5.5789,5.6383,5.7171,5.7171,5.6897,5.6291,5.6283,5.6292,5.6319,5.6276,5.6169,5.5948,5.5379,5.4953,5.4668,5.5451,5.6197,5.69,5.2875,0.0,0.0,5.7036,0.0,0.0,6.1028,6.2821,0.0,7.165,7.5033,0.0,8.0784,8.1596,8.19,8.19,8.0107,0.0,7.7063,0.0,0.0,7.1379,6.9891,6.7286,6.3429,6.2313,5.9945,5.619,5.3923,0.0,5.1657,0.0,0.0,0.0,0.0,4.9763,4.8578,5.1183,5.2706,5.3315,5.345,5.3991,0.0,5.3822,5.4025,5.4634,5.3822,5.3518,5.3518,5.3518,5.3518,5.3518,5.3518,5.3518,5.3518,5.3518,5.3518,5.3518,5.3518,5.3518,5.3315,5.2503,5.1995,5.1285,4.983,4.9796,4.9763,0.0,4.8714,4.8897,0.0,0.0,4.6856,4.5998,4.488,4.4048,4.3534,4.3497,4.3644,4.4121,4.4488,4.4382,4.3579,4.4233,4.4373,4.3569,4.3828,4.3864,4.3497,4.6103,4.783,4.83,5.1051,5.2736,5.3225,5.4222,5.503,5.5603,5.6026,5.6405,5.6918,5.6577,5.6139,5.5722,5.5698,5.5707,5.5704,5.5694,5.5495,5.5179,5.4736,5.4836,5.5175,5.5919,5.6461,5.69,0.0,5.6731,0.0,0.0,0.0,0.0,0.0,6.6102,0.0,7.2428,0.0,7.7739,7.8483,8.0209,8.1257,8.1156,8.0479,7.8889,7.6183,7.5709,7.4424,7.1853,7.0229,6.803,6.5087,6.3396,6.0791,5.7239,5.4735,5.3078,5.2266,0.0,0.0,0.0,5.0135,5.0304,4.912,5.115,5.2773,5.3957,5.3518,5.3416,5.3518,5.3518,5.3518,5.3518,5.3518,5.3518,5.3518,5.3518,5.3518,5.3518,5.3518,5.3518,5.3518,5.3518,5.3518,5.3518,5.3518,5.3416,5.3145,5.2367,5.2164,5.1758,5.027,5.0033,4.9898,4.9154,4.8917,4.864,0.0,0.0,4.5718,4.4171,4.3647,4.3465,4.3644,4.3571,4.3534,4.3644,4.42,0.0,4.3719,4.4265,4.4373,4.3569,4.4158,4.4233,4.3534,4.625,4.7976,4.8269,5.1283,5.3078,5.3518,5.5601,5.6424,5.5908,5.651,5.672,5.6712,5.5961,5.5485,5.5449,5.5403,5.5401,5.5427,5.5402,5.5059,5.446,5.46,5.504,5.5818,5.6528,5.6867,5.7036,5.6528,5.8727,6.0351,0.0,0.0,6.5561,6.9519,7.077,7.2394,7.5676,7.8686,8.0818,8.1562,8.1426,8.1054,8.0445,7.9735,7.8822,7.7671,7.5845,7.4559,7.4052,7.2056,6.9789,6.7387,6.4681,6.2076,5.9539,5.548,5.3078,5.2266,0.0,0.0,0.0,4.9593,4.9796,4.9086,5.0067,5.0642,5.098,5.2063,5.2909,5.3518,5.3518,5.3518,5.3518,5.3518,5.3518,5.3518,5.3518,5.3518,5.3518,5.3518,5.3518,5.3518,5.3518,5.3518,5.3518,5.3518,5.301,5.2334,5.1589,5.142,5.1014,4.9526,4.9661,4.9898,4.9154,4.8545,4.8037,4.7928,0.0,0.0,4.4778,4.37,4.3244,4.4344,4.3901,4.3754,4.4415,4.4152,4.4101,4.4455,4.4599,4.4373,4.3569,4.3644,4.3644,4.3497,4.4672,4.625,0.0,5.019,5.2508,0.0,0.0,5.6387,5.7567,5.6432,5.5943,5.5859,5.5144,5.4432,5.3856,5.3887,5.3885,5.3885,5.3849,5.3849,5.3719,5.4364,5.504,5.5818,5.6528,5.7171,5.7712,5.9708,6.0858,6.2245,6.3429,0.0,0.0,0.0,7.4897,7.598,7.6251,7.7502,7.8382,7.8382,7.9431,7.987,7.9126,7.872,7.8044,7.686,7.5439,7.4255,7.351,7.209,7.0229,6.7963,6.5019,6.2381,6.0114,5.5243,5.2672,0.0,0.0,4.9154,4.8477,4.8815,4.9424,5.0135,0.0,0.0,5.1285,5.1995,5.2773,5.3518,5.3518,5.3518,5.345,5.3044,5.2875,5.2942,5.3382,5.3518,5.3518,5.3518,5.3518,5.3518,5.3518,5.3518,5.3518,5.3518,5.2909,5.2131,5.1386,5.0913,5.0338,4.9255,4.9255,4.9424,4.9086,4.8714,4.8376,4.8003,4.6249,0.0,0.0,0.0,4.4361,4.5773,4.4892,4.4268,4.4672,4.4454,4.4233,4.4089,4.4488,4.4377,4.3534,4.3903,4.394,4.3497,4.4671,4.6066,0.0,0.0,0.0,5.4342,0.0,5.6849,5.6804,5.6046,5.5519,5.511,5.4364,5.3822,5.3518,5.3518,5.3518,5.3518,5.3518,5.3518,5.3619,5.4735,5.5412,5.5852,5.6968,5.7577,5.7881,6.2956,6.3328,6.4546,6.7624,6.9688,7.1921,7.4999,7.7401,7.828,7.6657,7.642,7.6149,7.5405,7.7435,7.8517,7.757,7.7502,7.686,7.5337,7.4559,7.3612,7.2462,7.1684,7.0331,6.8199,6.5256,6.2482,5.9877,5.5108,5.2469,5.1792,5.0067,4.8984,0.0,0.0,0.0,0.0,0.0,4.9965,5.186,5.1995,5.2638,5.3484,5.3315,5.3247,5.3145,5.2367,5.2063,5.2164,5.2807,5.3112,5.3247,5.3247,5.3382,5.3484,5.3315,5.3382,5.345,5.3112,5.257,5.1894,5.115,5.0405,4.9695,4.912,4.9018,4.9018,4.9018,4.9018,4.8781,4.8071,4.6681,0.0,0.0,0.0,4.527,4.6462,4.5548,4.4673,4.4309,4.4564,4.4344,4.3251,4.3944,4.4163,4.3389,4.4014,4.4161,4.3534,4.4854,4.6029,4.6875,0.0,5.232,5.347,0.0,5.7193,5.6187,5.5844,5.5305,5.4561,5.3888,5.3518,5.3518,5.3518,5.3518,5.3518,5.3518,5.3518,5.3653,5.5141,5.5716,5.5886,5.734,5.7881,5.7881,0.0,6.6474,0.0,0.0,0.0,7.351,7.4559,7.6623,7.8247,7.872,7.8788,7.8517,7.7739,7.7908,7.7502,7.6048,7.5912,7.527,7.3781,7.3003,7.2529,7.2394,7.1684,7.0567,6.9011,6.6034,6.2719,5.9133,5.5919,5.2976,5.0304,5.0067,0.0,0.0,0.0,0.0,0.0,4.7496,4.8917,5.0338,5.1048,5.2198,5.3416,5.2706,5.2401,5.23,5.1589,5.1319,5.1319,5.142,5.186,5.2401,5.2401,5.2909,5.3382,5.2638,5.2942,5.3213,5.1826,5.1386,5.115,5.0371,4.9661,4.9086,4.9018,4.9018,4.9018,4.9018,4.9018,4.8781,4.8071,4.7251,4.6658,0.0,0.0,4.4576,4.5137,4.5114,4.452,4.3054,4.4185,4.4227,4.215,4.314,4.3572,4.2844,4.3279,4.3571,4.3497,4.4342,4.5257,4.6242,4.9305,5.2072,5.4437,5.6081,5.7235,5.7894,5.642,5.5292,5.4583,5.3847,5.3518,5.3518,5.3518,5.3518,5.3518,5.3518,5.3518,5.3653,5.5141,5.5716,5.5886,5.734,5.7881,5.7881,0.0,0.0,0.0,0.0,0.0,0.0,0.0,7.8077,7.8619,7.845,7.845,7.8145,7.7401,7.6893,7.6183,7.5134,7.4627,7.3916,7.2902,7.2563,7.2191,7.1751,7.1481,7.0635,6.9147,6.6576,6.3429,5.9674,5.6697,5.3957,5.1386,0.0,0.0,0.0,0.0,4.7394,4.7733,4.8308,4.9424,5.0845,5.1555,5.2536,5.345,5.3145,5.301,5.2875,5.1657,5.1217,5.1082,5.0202,5.098,5.2232,5.1792,5.2164,5.2638,5.186,5.2198,5.257,5.1488,5.1217,5.1048,5.027,4.956,4.9018,4.9018,4.9018,4.9018,4.9018,4.9018,4.8917,4.8612,4.797,4.7563,4.7914,0.0,4.573,4.5846,4.5081,4.4107,4.3042,4.3358,4.3286,4.245,4.2852,4.3566,4.4565,4.3903,4.3497,4.3497,4.3791,4.4455,4.5477,0.0,5.0193,5.1814,5.4756,5.5935,5.5322,5.5584,5.5106,5.3939,5.3617,5.3518,5.3518,5.3518,5.3518,5.3518,5.3518,5.3518,5.3653,5.5109,5.5719,5.5886,5.734,5.7881,5.7808,7.1379,0.0,7.1819,0.0,7.5303,7.5709,7.8382,7.8585,7.8179,7.7401,7.7299,7.7029,7.6318,7.5709,7.4999,7.4052,7.3477,7.2868,7.2124,7.209,7.1853,7.1345,7.1312,7.0635,6.9147,6.7286,6.441,6.0452,5.8152,5.5513,0.0,0.0,0.0,0.0,4.7902,4.8206,4.9018,4.9221,5.0168,5.1589,5.2097,5.2773,5.3484,5.3247,5.3145,5.2976,5.1691,5.1082,5.0744,4.9661,5.0371,5.1555,5.1048,5.1522,5.2097,5.115,5.142,5.1792,5.0811,5.071,5.071,4.9965,4.956,4.9323,4.9323,4.9492,4.9593,4.9357,4.9154,4.9018,4.9018,4.8578,4.8252,4.8289,0.0,0.0,4.5632,4.4952,4.4059,4.2774,4.2891,4.2845,4.2271,4.2323,4.3001,4.4335,4.3904,4.376,4.4198,4.3831,4.4044,0.0,0.0,0.0,5.002,5.3419,5.458,5.3489,5.4774,5.4703,5.3518,5.3518,5.3518,5.3518,5.3518,5.3518,5.3518,5.3518,5.3619,5.3924,5.5179,5.5824,5.6193,5.7408,5.7695,5.7323,7.4119,7.4559,7.5506,7.8517,7.845,7.7942,7.801,7.7401,7.6657,7.5845,7.5743,7.5439,7.4728,7.4627,7.4018,7.2563,7.2428,7.209,7.1379,7.1312,7.1312,0.0,0.0,7.0635,6.9147,6.8301,6.5696,6.1298,6.0452,0.0,5.345,0.0,5.0405,4.9018,4.9729,4.9661,4.9052,4.9763,5.0947,5.23,5.23,5.2773,5.3416,5.2638,5.23,5.2232,5.1488,5.0744,5.0101,5.0067,5.0101,5.0101,5.0101,5.1116,5.1995,5.0541,5.0642,5.0913,4.9424,4.956,4.9932,4.9187,4.956,5.0067,5.0067,5.0642,5.098,5.0236,4.9492,4.9018,4.9018,4.8984,4.8483,4.7072,0.0,0.0,4.3597,4.4477,4.4489,4.2114,4.3081,4.3218,4.12,4.1501,4.1561,4.1013,4.2789,4.4447,4.5804,0.0,0.0,4.508,4.6794,0.0,5.0073,5.2276,5.3479,5.3489,5.4235,5.4262,5.3518,5.3518,5.3518,5.3518,5.3518,5.3518,5.3518,5.3518,5.3957,5.4635,5.5416,5.6133,5.6877,5.7616,5.7205,5.6217,7.51,7.5337,7.5845,7.7333,7.7401,7.7232,7.7232,7.7063,7.6826,7.6555,7.6048,7.5439,7.4695,7.4153,7.3443,0.0,7.1954,7.1548,0.0,7.1312,7.1312,7.1312,7.0804,7.0094,6.9113,6.7827,6.5459,6.2042,0.0,0.0,0.0,5.2435,5.115,4.9763,5.0541,5.1014,5.1285,5.2097,5.2706,5.3112,5.3112,5.3281,5.3484,5.3213,5.3112,5.301,5.2232,5.1457,5.075,5.0308,5.013,5.0017,4.952,4.9999,5.0608,4.9627,4.9864,5.0338,4.9864,5.0304,5.0811,5.0574,5.0676,5.0845,5.0845,5.1048,5.1014,5.0236,4.9898,4.9593,4.9086,4.9018,4.8483,4.7072,4.6406,0.0,4.2922,4.2566,4.2098,4.0805,4.1374,4.1631,4.1016,4.1071,4.1751,4.3039,4.2334,4.2404,0.0,0.0,0.0,0.0,4.6254,0.0,4.9344,5.158,5.2708,5.2658,5.398,5.4228,5.3518,5.3518,5.3518,5.3518,5.3518,5.3518,5.3518,5.3518,5.3619,5.3957,5.5204,5.5849,5.6193,5.7408,5.7205,5.609,7.642,7.6555,7.6792,7.7604,7.7502,7.7198,7.6927,7.6893,7.6792,7.6487,7.6014,7.5439,7.4695,7.395,0.0,7.2462,7.1751,7.1312,7.1312,7.1312,7.1312,7.1312,7.0601,6.9857,6.9113,6.7861,0.0,6.3632,6.2076,5.9201,5.5141,5.4363,5.3213,5.1792,5.2266,5.257,5.2773,5.3281,5.3518,5.3518,5.3518,5.3518,5.3518,5.3518,5.3518,5.345,5.2942,5.2065,5.1121,5.0683,5.0168,4.9582,4.9182,4.952,4.9927,4.9187,4.9526,5.0101,5.0101,5.0642,5.1217,5.1217,5.142,5.1691,5.1995,5.1828,5.1358,5.0676,5.027,4.9864,4.9154,4.9018,4.8483,4.7072,4.6161,4.4891,4.2634,4.1852,4.1283,4.047,4.0968,4.1239,4.09,4.146,4.2063,4.2601,4.2909,0.0,0.0,0.0,4.461,4.52,4.6413,4.7808,4.9389,5.1382,5.2345,5.2303,5.3551,5.3991,5.3518,5.3518,5.3518,5.3518,5.3518,5.3518,5.3518,5.3518,5.3686,5.4025,5.5241,5.5845,5.6183,5.6959,5.6538,5.5411,7.7874,7.7976,7.8213,0.0,7.845,0.0,7.6995,7.686,7.6555,7.5811,7.5709,7.5439,7.4695,7.395,7.3206,7.2462,0.0,0.0,7.1312,7.1312,7.1312,7.1312,7.0601,6.9857,6.9113,6.8301,6.7151,6.5595,6.2753,6.025,5.8017,5.7239,5.6122,5.4735,5.4702,5.4262,5.3585,5.3585,5.3551,5.3518,5.3518,5.3518,5.3518,5.3518,5.3518,5.3518,5.3518,5.2536,5.1186,5.1256,5.0308,4.9086,4.912,4.9582,5.0011,4.9283,4.9593,5.0168,5.0236,5.0744,5.1319,5.1352,5.186,5.2569,5.3315,5.2944,5.2135,5.1423,5.071,4.9932,4.9221,4.9052,4.8483,4.7005,4.6123,4.4818,4.2518,4.2108,4.1783,4.1002,0.0,0.0,4.1104,4.2414,4.2483,0.0,4.3991,0.0,0.0,0.0,4.4085,4.5546,4.7106,4.8692,5.0249,5.1645,5.2345,5.2404,5.318,5.3518,5.3518,5.3518,5.3518,5.3518,5.3518,5.3518,5.3518,5.3518,5.389,5.4601,5.5416,5.6096,5.6612,5.6337,5.5469,5.4336,0.0,0.0,7.8213,7.8991,7.801,7.7096,7.6927,7.6386,7.5912,7.5709,7.5709,7.5439,7.4695,7.395,7.3206,7.2462,7.1751,7.1312,7.1312,7.1312,7.1312,7.1312,7.0601,6.9857,6.9113,6.8301,6.6914,6.485,6.3024,6.1264,5.9539,5.8254,5.7137,5.6258,5.5683,5.504,5.4329,5.4329,5.4025,5.3518,5.3518,5.3518,5.3518,5.3518,5.3518,5.3518,5.3518,5.2504,5.129,5.186,5.1074,4.9943,5.0509,5.081,5.0776,5.0045,5.0391,5.1074,5.162,5.1894,5.2198,5.2807,5.3078,5.3247,5.345,5.3315,5.2977,5.2202,5.1425,5.071,4.9965,4.939,4.8342,4.6287,4.5354,4.4033,4.1764,4.1441,4.1336,4.1148,4.2281,4.28,4.2009,4.2346,4.2581,0.0,0.0,4.2906,4.3964,4.526,4.6266,4.708,4.8152,4.9704,5.173,5.217,5.2614,5.3213,5.345,5.3518,5.3518,5.3518,5.3518,5.3518,5.3518,5.3518,5.3518,5.3518,5.3585,5.3856,5.5178,5.5277,5.4795,5.5822,5.4937,5.3241,7.8483,7.8483,7.8517,7.8585,7.8213,7.757,7.6521,7.6589,7.6487,7.5777,7.5709,7.5439,7.4695,7.395,7.3206,7.2462,7.1751,7.1312,7.1312,7.1312,7.1312,7.1312,7.0601,6.9992,6.962,6.847,6.6812,6.4613,6.3802,6.2448,6.0622,5.9844,5.866,5.7273,5.69,5.6122,5.5074,5.4735,5.4363,5.3957,5.3653,5.3518,5.3518,5.3518,5.3518,5.3518,5.3518,5.2707,5.1794,5.2196,5.1519,5.0672,5.1112,5.1417,5.1617,5.1248,5.1414,5.1783,5.2225,5.2569,5.2942,5.3382,5.3518,5.3518,5.3518,5.3518,5.3247,5.2471,5.1997,5.1386,5.0304,4.9492,4.8274,4.6075,4.4756,4.3403,4.1456,4.1182,4.1312,4.1674,4.3048,4.3805,4.3381,4.426,4.4597,4.3997,4.4485,0.0,4.5068,4.714,4.8116,4.7765,4.954,5.109,5.227,5.2666,5.3037,5.3518,5.3518,5.3518,5.3518,5.3518,5.3518,5.3518,5.3518,5.3518,5.3518,5.3856,5.4025,5.4127,5.5654,5.5516,5.4575,5.523,5.4348,5.2849,7.9126,7.9194,7.9058,7.8416,7.8754,7.845,7.6521,7.713,7.7333,7.6048,7.5777,7.5439,7.4695,7.395,7.3206,7.2462,7.1751,7.1312,7.1312,7.1312,7.1312,7.1312,7.0703,7.0297,7.0195,6.8673,6.6812,6.4613,6.4613,6.3531,6.1467,6.1366,6.0283,5.8389,5.8152,5.7306,5.5987,5.5243,5.4768,5.446,5.3991,5.3687,5.3449,5.3585,5.3585,5.3518,5.3518,5.2976,5.23,5.2467,5.1995,5.1393,5.1531,5.1967,5.2472,5.2472,5.2436,5.2462,5.2462,5.3007,5.3518,5.3518,5.3518,5.3518,5.3518,5.3518,5.3315,5.2638,5.2367,5.1928,5.0642,4.9661,4.8342,4.638,4.4553,4.2929,4.1576,0.0,4.1789,4.239,4.403,4.505,4.492,4.6716,4.7131,4.5252,4.7394,4.8098,4.6418,4.8855,4.9723,4.8635,5.0959,5.2371,5.2472,5.318,5.3518,5.3518,5.3518,5.3518,5.3518,5.3518,5.3518,5.3518,5.3518,5.3518,5.3551,5.4161,5.4534,5.4737,5.5894,5.575,5.4792,5.446,5.3617,5.245,7.9228,7.96,8.0006,7.987,7.9431,7.8991,7.8653,7.7739,7.6961,7.6758,7.6115,7.5439,7.4695,7.395,7.3206,7.2462,7.1751,7.1312,7.1312,7.1312,7.1312,7.1312,7.121,7.0838,7.0195,6.8673,6.6812,6.4613,6.4613,6.3802,6.2212,6.1603,6.1129,6.0723,5.9404,5.8355,5.7509,5.6765,5.552,5.4195,5.5026,5.4448,5.3063,5.4087,5.4025,5.3518,5.3518,5.2976,5.2401,5.3078,5.2773,5.2232,5.2943,5.3213,5.3281,5.3281,5.3315,5.3348,5.3348,5.3382,5.3518,5.3518,5.3518,5.3518,5.3518,5.3518,5.345,5.3348,5.2773,5.2232,5.1995,5.0338,4.868,4.7733,4.5229,4.3098,4.2252,0.0,4.3078,4.3192,4.5689,4.714,4.6507,4.7335,4.7759,4.7446,4.7853,4.8443,4.9371,5.0443,5.122,5.163,5.2034,5.264,5.3281,5.345,5.3518,5.3518,5.3518,5.3518,5.3518,5.3518,5.3518,5.3518,5.3518,5.3518,5.3518,5.3585,5.4056,5.4606,5.4467,5.4156,5.37,5.3268,5.242,5.1443,7.9769,7.9972,8.0073,7.9667,7.9667,7.9431,7.8619,7.828,7.7807,7.6995,7.6589,7.5912,7.4728,7.395,7.3206,7.2462,7.1751,7.1312,7.1312,7.1312,7.1312,7.1312,7.1312,7.0973,7.0195,6.9113,6.7658,6.5797,6.5392,6.4444,6.299,6.2651,6.2076,6.1264,6.0554,5.9607,5.8457,5.7712,5.6285,5.459,5.4708,5.4269,5.3535,5.3612,5.3811,5.4025,5.3653,5.3281,5.301,5.3382,5.3247,5.2976,5.3382,5.3518,5.3518,5.3518,5.3518,5.3518,5.3518,5.3518,5.3518,5.3518,5.3518,5.3518,5.3518,5.3518,5.3518,5.3518,5.3213,5.2807,5.2367,5.0811,4.9357,4.8612,4.5635,0.0,4.3504,4.347,4.3741,4.4553,4.6921,4.8511,4.8545,4.9255,4.9695,4.969,4.9718,4.9932,5.0686,5.1393,5.1966,5.227,5.2708,5.3146,5.3518,5.3518,5.3518,5.3518,5.3518,5.3518,5.3518,5.3518,5.3518,5.3518,5.3518,5.3518,5.3518,5.3957,5.4126,5.4287,5.4501,5.3987,5.3143,5.2948,5.2175,5.1229,8.0209,8.0209,8.0006,7.9464,7.9837,7.9803,7.8653,7.8855,7.8653,7.7333,7.6995,7.6386,7.4999,7.4187,7.3443,7.2732,7.1988,7.1481,7.1312,7.1312,7.1312,7.1312,7.1312,7.0973,7.0195,6.9485,6.8335,6.6812,6.6068,6.4855,6.3329,6.3404,6.2729,6.1346,6.1278,6.0468,5.906,5.8119,5.6668,5.476,5.4281,5.3889,5.3461,5.3139,5.3526,5.4119,5.3547,5.3415,5.3518,5.3518,5.3518,5.3518,5.3518,5.3518,5.3518,5.3518,5.3518,5.3518,5.3518,5.3518,5.3518,5.3518,5.3518,5.3518,5.3518,5.3518,5.3518,5.3518,5.3518,5.3315,5.2706,5.1355,5.0143,4.9627,0.0,4.444,4.5229,4.4812,4.4948,4.6312,4.8274,4.9729,5.0304,5.1014,5.1386,5.1217,5.1519,5.1688,5.1493,5.2168,5.2539,5.2539,5.3213,5.3518,5.3518,5.3518,5.3518,5.3518,5.3518,5.3518,5.3518,5.3518,5.3518,5.3518,5.3518,5.3518,5.3551,5.4025,5.4093,5.4025,5.4237,5.3735,5.288,5.2604,5.1931,5.1229,8.0209,8.0209,8.0175,8.0141,8.0175,8.0175,8.004,7.9498,7.8822,7.801,7.7299,7.6555,7.5709,7.4965,7.4221,7.3477,7.2732,7.2022,7.1345,7.1312,7.1312,7.1312,7.1312,7.0973,7.0195,6.9485,6.8335,6.6812,6.6068,6.4724,6.2781,6.328,6.2829,6.156,6.1367,6.0617,5.9317,5.8045,5.6136,5.4064,5.438,5.3545,5.2075,5.3108,5.3318,5.3008,5.2942,5.3194,5.3518,5.3518,5.3518,5.3518,5.3518,5.3518,5.3518,5.3518,5.3518,5.3518,5.3518,5.3518,5.3518,5.3518,5.3518,5.3518,5.3518,5.3518,5.3518,5.3518,5.3518,5.3484,5.3416,5.2202,5.1061,5.1051,0.0,0.0,4.7556,4.7622,4.786,4.8646,5.0135,5.1082,5.1116,5.1792,5.1961,5.1251,5.2536,5.301,5.2266,5.301,5.345,5.345,5.3484,5.3518,5.3518,5.3518,5.3518,5.3518,5.3518,5.3518,5.3518,5.3518,5.3518,5.3518,5.3518,5.3518,5.3484,5.318,5.345,5.3852,5.2582,5.2364,5.2819,5.1717,5.1259,5.1229,8.0209,8.0209,8.0209,8.0209,8.0209,8.0209,8.0209,7.9972,7.9363,7.8145,7.7739,7.7096,7.5845,7.5033,7.4289,7.3544,7.2834,7.209,7.1379,7.1312,7.1312,7.1312,7.1312,7.1176,7.0906,6.8875,6.7578,6.7012,6.4976,6.3356,6.2183,6.3243,6.2908,6.164,6.2374,6.1522,5.9466,5.8905,5.7045,5.4512,5.4246,5.3721,5.3055,5.2653,5.3213,5.4185,5.3724,5.3823,5.416,5.416,5.416,5.4093,5.3653,5.3822,5.4093,5.3619,5.3822,5.4093,5.3619,5.3518,5.3518,5.3518,5.3518,5.3619,5.4058,5.3856,5.3653,5.4058,5.3856,5.3518,5.3518,5.264,5.2034,5.2538,0.0,4.8562,4.9763,4.9154,4.8839,4.9627,5.098,5.1891,5.1891,5.257,5.2942,5.2672,5.3179,5.3382,5.3078,5.3348,5.3518,5.3518,5.3518,5.3518,5.3518,5.3518,5.3518,5.3518,5.3518,5.3518,5.3518,5.3518,5.3518,5.3518,5.3991,5.389,5.3518,5.3551,5.3346,5.2828,5.2094,5.187,5.1747,5.1413,5.1229,5.1229,8.0209,8.0378,8.0479,8.0242,8.0378,8.0479,8.0242,8.0209,7.9735,7.8517,7.8145,7.7502,7.6217,7.5405,7.4559,7.3578,7.3037,7.211,7.0733,7.0666,7.0791,7.1312,7.1312,7.1098,7.0666,6.8301,6.6917,6.6445,6.4159,6.2556,6.166,6.27,6.2451,6.1116,6.1956,6.1113,5.9014,5.8529,5.6937,5.4602,5.3683,5.3408,5.3285,5.206,5.2668,5.4034,5.3438,5.3553,5.3956,5.4276,5.4205,5.3889,5.4123,5.4532,5.4803,5.4059,5.4363,5.4837,5.4329,5.416,5.4161,5.3923,5.3991,5.4364,5.4801,5.4328,5.4059,5.4769,5.416,5.3653,5.4126,5.3348,5.2876,5.345,5.1558,5.0379,5.1391,5.0667,5.0323,5.1051,5.2063,5.2704,5.2704,5.3145,5.3518,5.3518,5.3518,5.3518,5.3518,5.3518,5.3518,5.3518,5.3518,5.3518,5.3518,5.3518,5.3518,5.3518,5.3518,5.3518,5.3518,5.3518,5.3518,5.3551,5.4296,5.4093,5.3379,5.3687,5.3156,5.2145,5.1717,5.1443,5.1229,5.1229,5.1289,5.1473,8.0209,8.0784,8.1054,8.0344,8.0784,8.1021,8.031,8.0209,7.9938,7.9194,7.845,7.7705,7.6961,7.6183,7.51,7.3612,7.3477,7.221,6.9412,6.9217,6.9822,7.1222,7.1312,7.0574,6.9217,6.7801,6.6445,6.5116,6.3708,6.2291,6.0989,6.1563,6.115,5.9866,5.9823,5.9128,5.7952,5.6557,5.5272,5.4102,5.2755,5.2217,5.2127,5.1468,5.1516,5.1853,5.1853,5.2009,5.2525,5.3651,5.3233,5.2684,5.4974,5.5646,5.5581,5.4803,5.5141,5.5716,5.5716,5.5685,5.5517,5.4837,5.5177,5.5687,5.5683,5.5106,5.4837,5.5551,5.4533,5.3957,5.5446,5.4499,5.3518,5.3518,5.2809,5.2303,5.227,5.227,5.264,5.345,5.3518,5.3518,5.3518,5.3518,5.3518,5.3518,5.3518,5.3518,5.3518,5.3518,5.3518,5.3518,5.3518,5.3518,5.3518,5.3518,5.3518,5.3518,5.3518,5.3518,5.3518,5.3518,5.3518,5.3551,5.4296,5.3986,5.293,5.331,5.2805,5.1747,5.1413,5.1229,5.1229,5.1229,5.1656,5.1961,8.1629,8.1494,8.1393,8.1697,8.1088,8.0615,8.0919,8.0513,7.9938,7.9194,7.845,7.7705,7.6961,7.6183,7.5303,7.4356,7.296,7.0897,6.7971,6.7774,6.8007,6.8405,6.9313,6.9633,6.9217,6.6438,6.4547,6.3662,6.1884,6.0532,5.9652,6.0803,6.0733,5.9866,6.0424,5.957,5.7983,5.7084,5.5975,5.482,5.3952,5.3324,5.2815,5.2157,5.2184,5.2622,5.2622,5.2847,5.3213,5.3568,5.3375,5.3245,5.3966,5.4339,5.4435,5.4203,5.5247,5.6359,5.5852,5.6427,5.69,5.5677,5.5508,5.5849,5.6385,5.5879,5.5581,5.6295,5.5716,5.5137,5.5649,5.5336,5.4861,5.4364,5.4059,5.3754,5.3213,5.318,5.3247,5.3484,5.3518,5.3518,5.3518,5.3518,5.3518,5.3518,5.3518,5.3518,5.3518,5.3518,5.3518,5.3518,5.3518,5.3518,5.3518,5.3518,5.3518,5.3518,5.3518,5.3518,5.3518,5.3518,5.3315,5.3146,5.3856,5.3545,5.2466,5.2917,5.2541,5.1747,5.1413,5.1229,5.1259,5.1717,5.1413,5.0644,8.2306,8.2035,8.1765,8.1934,8.1224,8.0682,8.0818,8.0479,8.004,7.96,7.8889,7.8145,7.7401,7.6623,7.5417,7.3558,7.0697,6.8531,6.7644,6.6837,6.6679,6.7164,6.747,6.7572,6.7572,6.5324,6.3657,6.267,6.0946,5.9877,5.9488,5.9986,6.0041,5.9613,5.9718,5.8938,5.7626,5.6953,5.6161,5.5119,5.4491,5.3952,5.3503,5.2845,5.2601,5.2612,5.2612,5.2634,5.2691,5.3458,5.3978,5.4102,5.3176,5.3518,5.4281,5.4405,5.5397,5.656,5.652,5.7205,5.7679,5.6795,5.6554,5.6655,5.7128,5.666,5.6325,5.7107,5.6389,5.5916,5.6494,5.6078,5.5572,5.5075,5.4771,5.4364,5.3585,5.3518,5.3518,5.3518,5.3518,5.3518,5.3518,5.3518,5.3518,5.3518,5.3518,5.3518,5.3518,5.3518,5.3518,5.3518,5.3079,5.291,5.291,5.2472,5.2472,5.291,5.291,5.2674,5.2236,5.2236,5.2169,5.1967,5.2983,5.2763,5.1783,5.2549,5.2389,5.1503,5.1259,5.0832,5.053,5.1075,5.0573,4.9571,8.2611,8.2509,8.2238,8.1663,8.1359,8.1021,8.0479,8.0175,8.0074,8.0209,7.9465,7.8589,7.7846,7.7236,7.5399,7.1787,6.7726,6.6043,6.7726,6.6089,6.5498,6.6783,6.5652,6.4923,6.4923,6.4274,6.3342,6.2091,6.0864,6.0206,6.0086,5.9488,5.9159,5.9069,5.8411,5.7782,5.7154,5.6466,5.5837,5.5209,5.4551,5.4251,5.4132,5.3503,5.2845,5.2276,5.2217,5.1828,5.1566,5.3193,5.4429,5.4908,5.2647,5.3138,5.464,5.4886,5.5608,5.6447,5.7331,5.7695,5.7803,5.7735,5.7808,5.7881,5.7881,5.7412,5.7107,5.7746,5.6833,5.6325,5.7645,5.6799,5.5886,5.5818,5.5243,5.4532,5.3788,5.3653,5.3585,5.3585,5.3551,5.3518,5.3518,5.3518,5.3518,5.3518,5.3518,5.3518,5.3518,5.3518,5.3484,5.3349,5.2438,5.1865,5.1758,5.0886,5.0822,5.1765,5.1762,5.1287,5.0482,5.0482,5.0482,5.0608,5.1895,5.1874,5.0986,5.2205,5.2145,5.1199,5.1046,5.0317,4.9316,4.9721,4.9461,4.8674,8.4031,8.3219,8.2712,8.3727,8.1968,8.0784,8.1765,7.9886,7.8802,8.0074,7.8548,7.702,7.6362,7.6641,7.5472,7.1787,6.9083,6.6848,6.5025,6.4498,6.4166,6.4045,6.3706,6.3478,6.3478,6.3327,6.2912,6.2091,6.1792,6.1104,6.0086,5.9937,5.9608,5.9069,5.8411,5.8052,5.7812,5.6675,5.6077,5.5897,5.5239,5.467,5.4192,5.4042,5.3563,5.2905,5.2396,5.2127,5.2007,5.2412,5.2725,5.2943,5.2903,5.3407,5.409,5.411,5.5216,5.6304,5.5539,5.6315,5.7198,5.668,5.7222,5.7881,5.7881,5.7746,5.7679,5.7848,5.7645,5.7509,5.7814,5.7645,5.7239,5.6664,5.6427,5.6089,5.5344,5.4735,5.4363,5.4363,5.3856,5.3518,5.3518,5.3518,5.3518,5.3518,5.3518,5.3518,5.3518,5.3518,5.3079,5.2236,5.2001,5.1514,5.0755,5.0548,5.048,5.0726,5.0749,5.0881,5.1152,5.1152,5.1297,5.1486,5.184,5.1606,5.1169,5.1443,5.1443,5.1075,5.0075,4.971,4.9816,4.9322,4.8619,4.7484,8.4539,8.3422,8.2746,8.3896,8.1346,7.9547,8.1016,7.8991,7.7604,7.8409,7.7499,7.6164,7.4843,7.5062,7.3951,7.0599,6.8073,6.6062,6.4606,6.4188,6.3767,6.3109,6.3079,6.3079,6.3079,6.3079,6.2899,6.257,6.1942,6.1253,6.0565,5.9907,5.9428,5.9099,5.874,5.8411,5.8052,5.7034,5.6436,5.6107,5.5448,5.497,5.467,5.467,5.4251,5.3623,5.3294,5.3144,5.3114,5.2785,5.2875,5.3174,5.3174,5.3386,5.3712,5.4267,5.5031,5.5663,5.5516,5.595,5.6466,5.6671,5.689,5.7222,5.7808,5.7881,5.7881,5.7881,5.7881,5.7881,5.7881,5.7881,5.7645,5.6934,5.6799,5.6562,5.5818,5.5378,5.4833,5.3975,5.3536,5.2924,5.2131,5.2042,5.2024,5.2034,5.2001,5.2001,5.2001,5.2001,5.1732,5.1195,5.0717,5.0136,4.9652,4.9205,4.8881,4.8961,4.9387,4.9713,4.9922,4.9912,5.0125,5.0577,5.0939,5.0909,5.0743,5.0377,5.0288,5.0105,4.8776,4.8093,4.8041,4.7894,4.6949,4.547,8.464,8.3524,8.2813,8.3558,8.0675,7.8705,8.0023,7.7977,7.641,7.6518,7.64,7.5369,7.3384,7.268,7.154,6.941,6.6877,6.5203,6.5053,6.4427,6.3827,6.3109,6.3079,6.3079,6.3079,6.3079,6.3079,6.3079,6.2002,6.1403,6.1253,6.0027,5.9398,5.9279,5.9159,5.88,5.8231,5.7423,5.6795,5.6256,5.5508,5.5179,5.5179,5.5179,5.485,5.4371,5.4251,5.4221,5.4132,5.3563,5.3743,5.4132,5.3683,5.3443,5.3549,5.4541,5.4884,5.5101,5.5794,5.5827,5.5879,5.6593,5.6547,5.6488,5.7439,5.7796,5.7808,5.7628,5.7836,5.7944,5.7662,5.791,5.7848,5.7103,5.7002,5.6693,5.5909,5.5669,5.4907,5.3165,5.2696,5.2006,5.0538,5.0424,5.0399,5.0425,5.0392,5.0388,5.0364,5.0397,5.0331,5.0129,4.9259,4.8758,4.8581,4.7722,4.7339,4.7486,4.8343,4.8611,4.8464,4.8558,4.9016,4.9651,5.0135,5.0288,4.9952,4.9439,4.9026,4.8682,4.7413,4.6566,4.6013,4.6129,4.5105,4.3578,8.464,8.393,8.3592,8.4336,8.1876,8.0056,8.0847,7.774,7.5649,7.6464,7.5446,7.3814,7.179,6.9393,6.8301,6.9116,6.7727,6.6189,6.5113,6.4874,6.4273,6.3109,6.3079,6.3079,6.3079,6.3079,6.3079,6.3079,6.2899,6.251,6.1942,6.1194,6.0535,5.9937,5.9368,5.9069,5.889,5.7633,5.7034,5.6855,5.5658,5.5179,5.5179,5.5179,5.5119,5.497,5.4431,5.4221,5.4192,5.4102,5.4132,5.4311,5.476,5.4521,5.4072,5.4269,5.4759,5.4939,5.3929,5.4694,5.5751,5.5343,5.5866,5.6467,5.6638,5.7285,5.7628,5.6624,5.7725,5.8328,5.6724,5.7758,5.8626,5.7848,5.7746,5.7352,5.6249,5.5567,5.4492,5.281,5.1523,5.0681,5.0442,5.041,5.0357,5.0425,5.0392,5.0366,5.0372,5.0412,4.9965,4.9044,4.8895,4.8373,4.7516,4.7339,4.7575,4.8166,4.8343,4.8611,4.9148,4.967,5.0317,5.0986,5.1016,5.0377,4.9287,4.9257,4.8468,4.7323,4.6459,4.6315,4.6395,4.4699,4.3916,4.3238,8.464,8.4031,8.3481,8.3287,8.0786,7.8752,7.901,7.6084,7.4127,7.4526,7.3553,7.2347,7.0735,6.8783,6.7877,6.8425,6.7638,6.6547,6.5588,6.5144,6.4545,6.359,6.3288,6.3079,6.3079,6.3079,6.3079,6.3079,6.272,6.2391,6.2061,6.1044,6.0386,6.0057,5.9398,5.9099,5.9009,5.7663,5.7094,5.6974,5.5688,5.5179,5.5179,5.5179,5.5179,5.5149,5.485,5.476,5.476,5.476,5.476,5.482,5.5089,5.4999,5.476,5.476,5.497,5.5059,5.4461,5.4616,5.4957,5.4885,5.5221,5.5637,5.593,5.6575,5.689,5.6059,5.6825,5.7314,5.6402,5.6718,5.7094,5.6987,5.647,5.5889,5.541,5.5037,5.418,5.2408,5.0465,4.9213,4.9242,4.8872,4.8705,4.8686,4.8655,4.8631,4.8667,4.8641,4.8434,4.7959,4.7959,4.7752,4.7309,4.7692,4.7989,4.8343,4.9014,4.9523,4.9794,5.0054,5.056,5.1199,5.0377,4.971,4.9098,4.7511,4.6705,4.6324,4.5133,4.5283,4.5791,4.4323,4.3098,4.1893]},{"header":{"parameterUnit":"m.s-1","parameterCategory":1,"la1":30.6,"la2":28.766,"lo1":-90.7593,"lo2":-88.6598,"dx":0.0162,"dy":0.0183,"nx":116,"ny":114,"refTime":"2023-02-02T18:00:00:Z","depth":0,"parameterNumber":3,"parameterNumberName":"V-component_of_WINDS"},"data":[0.0,0.0,0.0,0.0,0.0,0.0,0.0,0.0,0.0,0.0,0.0,0.0,0.0,0.0,0.0,0.0,0.0,0.0,0.0,0.0,0.0,0.0,0.0,0.0,0.0,0.0,0.0,0.0,0.0,0.0,0.0,0.0,0.0,0.0,0.0,0.0,0.0,0.0,0.0,0.0,0.0,0.0,0.0,0.0,0.0,0.0,0.0,0.0,0.0,0.0,0.0,0.0,0.0,0.0,0.0,0.0,0.0,0.0,0.0,0.0,0.0,0.0,0.0,0.0,0.0,0.0,0.0,0.0,0.0,0.0,0.0,0.0,0.0,0.0,0.0,0.0,0.0,0.0,0.0,0.0,0.0,0.0,0.0,0.0,0.0,0.0,0.0,0.0,0.0,0.0,0.0,0.0,0.0,0.0,0.0,0.0,0.0,0.0,0.0,0.0,0.0,0.0,0.0,0.0,0.0,0.0,0.0,0.0,0.0,0.0,0.0,0.0,0.0,0.0,0.0,0.0,0.0,0.0,0.0,0.0,0.0,0.0,0.0,0.0,0.0,0.0,0.0,0.0,0.0,0.0,0.0,0.0,0.0,0.0,0.0,0.0,0.0,0.0,0.0,0.0,0.0,0.0,0.0,0.0,0.0,0.0,0.0,0.0,0.0,0.0,0.0,0.0,0.0,0.0,0.0,0.0,0.0,0.0,0.0,0.0,0.0,0.0,0.0,0.0,0.0,0.0,0.0,0.0,0.0,0.0,0.0,0.0,0.0,0.0,0.0,0.0,0.0,0.0,0.0,0.0,0.0,0.0,0.0,0.0,0.0,0.0,0.0,0.0,0.0,0.0,0.0,0.0,0.0,0.0,0.0,0.0,0.0,0.0,0.0,0.0,0.0,0.0,0.0,0.0,0.0,0.0,0.0,0.0,0.0,0.0,0.0,0.0,0.0,0.0,0.0,0.0,0.0,0.0,0.0,0.0,0.0,0.0,0.0,0.0,0.0,0.0,0.0,0.0,0.0,0.0,0.0,0.0,0.0,0.0,0.0,0.0,0.0,0.0,0.0,0.0,0.0,0.0,0.0,0.0,0.0,0.0,0.0,0.0,0.0,0.0,0.0,0.0,0.0,0.0,0.0,0.0,0.0,0.0,0.0,0.0,0.0,0.0,0.0,0.0,0.0,0.0,0.0,0.0,0.0,0.0,0.0,0.0,0.0,0.0,0.0,0.0,0.0,0.0,0.0,0.0,0.0,0.0,0.0,0.0,0.0,0.0,0.0,0.0,0.0,0.0,0.0,0.0,0.0,0.0,0.0,0.0,0.0,0.0,0.0,0.0,0.0,0.0,0.0,0.0,0.0,0.0,0.0,0.0,0.0,0.0,0.0,0.0,0.0,0.0,0.0,0.0,0.0,0.0,0.0,0.0,0.0,0.0,0.0,0.0,0.0,0.0,0.0,0.0,0.0,0.0,0.0,0.0,0.0,0.0,0.0,0.0,0.0,0.0,0.0,0.0,0.0,0.0,0.0,0.0,0.0,0.0,0.0,0.0,0.0,0.0,0.0,0.0,0.0,0.0,0.0,0.0,0.0,0.0,0.0,0.0,0.0,0.0,0.0,0.0,0.0,0.0,0.0,0.0,0.0,0.0,0.0,0.0,0.0,0.0,0.0,0.0,0.0,0.0,0.0,0.0,0.0,0.0,0.0,0.0,0.0,0.0,0.0,0.0,0.0,0.0,0.0,0.0,0.0,0.0,0.0,0.0,0.0,0.0,0.0,0.0,0.0,0.0,0.0,0.0,0.0,0.0,0.0,0.0,0.0,0.0,0.0,0.0,0.0,0.0,0.0,0.0,0.0,0.0,0.0,0.0,0.0,0.0,0.0,0.0,0.0,0.0,0.0,0.0,0.0,0.0,0.0,0.0,0.0,0.0,0.0,0.0,0.0,0.0,0.0,0.0,0.0,0.0,0.0,0.0,0.0,0.0,0.0,0.0,0.0,0.0,0.0,0.0,0.0,0.0,0.0,0.0,0.0,0.0,0.0,0.0,0.0,0.0,0.0,0.0,0.0,0.0,0.0,0.0,0.0,0.0,0.0,0.0,0.0,0.0,0.0,0.0,0.0,0.0,0.0,0.0,0.0,0.0,0.0,0.0,0.0,0.0,0.0,0.0,0.0,0.0,0.0,0.0,0.0,0.0,0.0,0.0,0.0,0.0,0.0,0.0,0.0,0.0,0.0,0.0,0.0,0.0,0.0,0.0,0.0,0.0,0.0,0.0,0.0,0.0,0.0,0.0,0.0,0.0,0.0,0.0,0.0,0.0,0.0,0.0,0.0,0.0,0.0,0.0,0.0,0.0,0.0,0.0,0.0,0.0,0.0,0.0,0.0,0.0,0.0,0.0,0.0,0.0,0.0,0.0,0.0,0.0,0.0,0.0,0.0,0.0,0.0,0.0,0.0,0.0,0.0,0.0,0.0,0.0,0.0,0.0,0.0,0.0,0.0,0.0,0.0,0.0,0.0,0.0,0.0,0.0,0.0,0.0,0.0,0.0,0.0,0.0,0.0,0.0,0.0,0.0,0.0,0.0,0.0,0.0,0.0,0.0,0.0,0.0,0.0,0.0,0.0,0.0,0.0,0.0,0.0,0.0,0.0,0.0,0.0,0.0,0.0,0.0,0.0,0.0,0.0,0.0,0.0,0.0,0.0,0.0,0.0,0.0,0.0,0.0,0.0,0.0,0.0,0.0,0.0,0.0,0.0,0.0,0.0,0.0,0.0,0.0,0.0,0.0,0.0,0.0,0.0,0.0,0.0,0.0,0.0,0.0,0.0,0.0,0.0,0.0,0.0,0.0,0.0,0.0,0.0,0.0,0.0,0.0,0.0,0.0,0.0,0.0,0.0,0.0,0.0,0.0,0.0,0.0,0.0,0.0,0.0,0.0,0.0,0.0,0.0,0.0,0.0,0.0,0.0,0.0,0.0,0.0,0.0,0.0,0.0,0.0,0.0,0.0,0.0,0.0,0.0,0.0,0.0,0.0,0.0,0.0,0.0,0.0,0.0,0.0,0.0,0.0,0.0,0.0,0.0,0.0,0.0,0.0,0.0,0.0,0.0,0.0,0.0,0.0,0.0,0.0,0.0,0.0,0.0,0.0,0.0,0.0,0.0,0.0,0.0,0.0,0.0,0.0,0.0,0.0,0.0,0.0,0.0,0.0,0.0,0.0,0.0,0.0,0.0,0.0,0.0,0.0,0.0,0.0,0.0,0.0,0.0,0.0,0.0,0.0,0.0,0.0,0.0,0.0,0.0,0.0,0.0,0.0,0.0,0.0,0.0,0.0,0.0,0.0,0.0,0.0,0.0,0.0,0.0,0.0,0.0,0.0,0.0,0.0,0.0,0.0,0.0,0.0,0.0,0.0,0.0,0.0,0.0,0.0,0.0,0.0,0.0,0.0,0.0,0.0,0.0,0.0,0.0,0.0,0.0,0.0,0.0,0.0,0.0,0.0,0.0,0.0,0.0,0.0,0.0,0.0,0.0,0.0,0.0,0.0,0.0,0.0,0.0,0.0,0.0,0.0,0.0,0.0,0.0,0.0,0.0,0.0,0.0,0.0,0.0,0.0,0.0,0.0,0.0,0.0,0.0,0.0,0.0,0.0,0.0,0.0,0.0,0.0,0.0,0.0,0.0,0.0,0.0,0.0,0.0,0.0,0.0,0.0,0.0,0.0,0.0,0.0,0.0,0.0,0.0,0.0,0.0,0.0,0.0,0.0,0.0,0.0,0.0,0.0,0.0,0.0,0.0,0.0,0.0,0.0,0.0,0.0,0.0,0.0,0.0,0.0,0.0,0.0,0.0,0.0,0.0,0.0,0.0,0.0,0.0,0.0,0.0,0.0,0.0,0.0,0.0,0.0,0.0,0.0,0.0,0.0,0.0,0.0,0.0,0.0,0.0,0.0,0.0,0.0,0.0,0.0,0.0,0.0,0.0,0.0,0.0,0.0,0.0,0.0,0.0,0.0,0.0,0.0,0.0,0.0,0.0,0.0,0.0,0.0,0.0,0.0,0.0,0.0,0.0,0.0,0.0,0.0,0.0,0.0,0.0,0.0,0.0,0.0,0.0,0.0,0.0,0.0,0.0,0.0,0.0,0.0,0.0,0.0,0.0,0.0,0.0,0.0,0.0,0.0,0.0,0.0,0.0,0.0,0.0,0.0,0.0,0.0,0.0,0.0,0.0,0.0,0.0,0.0,0.0,0.0,0.0,0.0,0.0,0.0,0.0,0.0,0.0,0.0,0.0,0.0,0.0,0.0,0.0,0.0,0.0,0.0,0.0,0.0,0.0,0.0,0.0,0.0,0.0,0.0,0.0,0.0,0.0,0.0,0.0,0.0,0.0,0.0,0.0,0.0,0.0,0.0,0.0,0.0,0.0,0.0,0.0,0.0,0.0,0.0,0.0,0.0,0.0,0.0,0.0,0.0,0.0,0.0,0.0,0.0,0.0,0.0,0.0,0.0,0.0,0.0,0.0,0.0,0.0,0.0,0.0,0.0,0.0,0.0,0.0,0.0,0.0,0.0,0.0,0.0,0.0,0.0,0.0,0.0,0.0,0.0,0.0,0.0,0.0,0.0,0.0,0.0,0.0,0.0,0.0,0.0,0.0,0.0,0.0,0.0,0.0,0.0,0.0,0.0,0.0,0.0,0.0,0.0,0.0,0.0,0.0,0.0,0.0,0.0,0.0,0.0,0.0,0.0,0.0,0.0,0.0,0.0,0.0,0.0,0.0,0.0,0.0,0.0,0.0,0.0,0.0,0.0,0.0,0.0,0.0,0.0,0.0,0.0,0.0,0.0,0.0,0.0,0.0,0.0,0.0,0.0,0.0,0.0,0.0,0.0,0.0,0.0,0.0,0.0,0.0,0.0,0.0,0.0,0.0,0.0,0.0,0.0,0.0,0.0,0.0,0.0,0.0,0.0,0.0,0.0,0.0,0.0,0.0,0.0,0.0,0.0,0.0,0.0,0.0,0.0,0.0,0.0,0.0,0.0,0.0,0.0,0.0,0.0,0.0,0.0,0.0,0.0,0.0,0.0,0.0,0.0,0.0,0.0,0.0,0.0,0.0,0.0,0.0,0.0,0.0,0.0,0.0,0.0,0.0,0.0,0.0,0.0,0.0,0.0,0.0,0.0,0.0,0.0,0.0,0.0,0.0,0.0,0.0,0.0,0.0,0.0,0.0,0.0,0.0,0.0,0.0,0.0,0.0,0.0,0.0,0.0,0.0,0.0,0.0,0.0,0.0,0.0,0.0,0.0,0.0,0.0,0.0,0.0,0.0,0.0,0.0,0.0,0.0,0.0,0.0,0.0,0.0,0.0,0.0,0.0,0.0,0.0,0.0,0.0,0.0,0.0,0.0,0.0,0.0,0.0,0.0,0.0,0.0,0.0,0.0,0.0,0.0,0.0,0.0,0.0,0.0,0.0,0.0,0.0,0.0,0.0,0.0,0.0,0.0,0.0,0.0,0.0,0.0,0.0,0.0,0.0,0.0,0.0,0.0,0.0,0.0,0.0,0.0,0.0,0.0,0.0,0.0,0.0,0.0,0.0,0.0,0.0,0.0,0.0,0.0,0.0,0.0,0.0,0.0,0.0,0.0,0.0,0.0,0.0,0.0,0.0,0.0,0.0,0.0,0.0,0.0,0.0,0.0,0.0,0.0,0.0,0.0,0.0,0.0,0.0,0.0,0.0,0.0,0.0,0.0,0.0,0.0,0.0,0.0,0.0,0.0,0.0,0.0,0.0,0.0,0.0,0.0,0.0,0.0,0.0,0.0,0.0,0.0,0.0,0.0,0.0,0.0,0.0,0.0,0.0,0.0,0.0,0.0,0.0,0.0,0.0,0.0,0.0,0.0,0.0,0.0,0.0,0.0,0.0,0.0,0.0,0.0,0.0,0.0,0.0,0.0,0.0,0.0,0.0,0.0,0.0,0.0,0.0,0.0,0.0,0.0,0.0,0.0,0.0,0.0,0.0,0.0,0.0,0.0,0.0,0.0,0.0,0.0,0.0,0.0,0.0,0.0,0.0,0.0,0.0,0.0,0.0,0.0,0.0,0.0,0.0,0.0,0.0,0.0,0.0,0.0,0.0,0.0,0.0,0.0,0.0,0.0,0.0,0.0,0.0,0.0,0.0,0.0,0.0,0.0,0.0,0.0,0.0,0.0,0.0,0.0,0.0,0.0,0.0,0.0,0.0,0.0,0.0,0.0,0.0,0.0,0.0,0.0,0.0,0.0,0.0,0.0,0.0,0.0,0.0,0.0,0.0,0.0,0.0,0.0,0.0,0.0,0.0,0.0,0.0,0.0,0.0,0.0,0.0,0.0,0.0,0.0,0.0,0.0,0.0,0.0,0.0,0.0,0.0,0.0,0.0,0.0,0.0,0.0,0.0,0.0,0.0,0.0,0.0,0.0,0.0,0.0,0.0,0.0,0.0,0.0,0.0,0.0,0.0,0.0,0.0,0.0,0.0,0.0,0.0,0.0,0.0,0.0,0.0,0.0,0.0,0.0,0.0,0.0,0.0,0.0,0.0,0.0,0.0,0.0,0.0,0.0,0.0,0.0,0.0,0.0,0.0,0.0,0.0,0.0,0.0,0.0,0.0,0.0,0.0,0.0,0.0,0.0,0.0,0.0,0.0,0.0,0.0,0.0,0.0,0.0,0.0,0.0,0.0,0.0,0.0,0.0,0.0,0.0,0.0,0.0,0.0,0.0,0.0,0.0,0.0,0.0,0.0,0.0,0.0,0.0,0.0,0.0,0.0,0.0,0.0,0.0,0.0,0.0,0.0,0.0,0.0,0.0,0.0,0.0,0.0,0.0,0.0,0.0,0.0,0.0,0.0,0.0,0.0,0.0,0.0,0.0,0.0,0.0,0.0,0.0,0.0,0.0,0.0,0.0,0.0,0.0,0.0,0.0,0.0,0.0,0.0,0.0,0.0,0.0,0.0,0.0,0.0,0.0,0.0,0.0,0.0,0.0,0.0,0.0,0.0,0.0,0.0,0.0,0.0,0.0,0.0,0.0,0.0,0.0,0.0,0.0,0.0,0.0,0.0,0.0,0.0,0.0,0.0,0.0,0.0,0.0,0.0,0.0,0.0,0.0,0.0,0.0,0.0,0.0,0.0,0.0,0.0,0.0,0.0,0.0,0.0,0.0,0.0,0.0,0.0,0.0,0.0,0.0,0.0,0.0,0.0,0.0,0.0,0.0,0.0,0.0,0.0,0.0,0.0,0.0,0.0,0.0,0.0,0.0,0.0,0.0,0.0,0.0,0.0,0.0,0.0,0.0,0.0,0.0,0.0,0.0,0.0,0.0,0.0,0.0,0.0,0.0,0.0,0.0,0.0,0.0,0.0,0.0,0.0,0.0,0.0,0.0,0.0,0.0,0.0,0.0,0.0,0.0,0.0,0.0,0.0,0.0,0.0,0.0,0.0,0.0,0.0,0.0,0.0,0.0,0.0,0.0,0.0,0.0,0.0,0.0,0.0,0.0,0.0,0.0,0.0,0.0,0.0,0.0,0.0,0.0,0.0,0.0,0.0,0.0,0.0,0.0,0.0,0.0,0.0,0.0,0.0,0.0,0.0,0.0,0.0,0.0,0.0,0.0,0.0,0.0,0.0,0.0,0.0,0.0,0.0,0.0,0.0,0.0,0.0,0.0,0.0,0.0,0.0,0.0,0.0,0.0,0.0,0.0,0.0,0.0,0.0,0.0,0.0,0.0,0.0,0.0,0.0,0.0,0.0,0.0,0.0,0.0,0.0,0.0,0.0,0.0,0.0,0.0,0.0,0.0,0.0,0.0,0.0,0.0,0.0,0.0,0.0,0.0,0.0,0.0,0.0,0.0,0.0,0.0,0.0,0.0,0.0,0.0,0.0,0.0,0.0,0.0,0.0,0.0,0.0,0.0,0.0,0.0,0.0,0.0,0.0,0.0,0.0,0.0,0.0,0.0,0.0,0.0,0.0,0.0,0.0,0.0,0.0,0.0,0.0,0.0,-0.6067,-0.3418,-0.0342,0.0,0.0,0.0,0.0,0.0,0.0,0.0,0.0,0.0,0.0,0.0,0.0,0.0,0.0,0.0,0.0,0.0,0.0,0.0,0.0,0.0,0.0,0.0,0.0,0.0,0.0,0.0,0.0,0.0,0.0,0.0,0.0,0.0,0.0,0.0,0.0,0.0,0.0,0.0,0.0,0.0,0.0,0.0,0.0,0.0,0.0,0.0,0.0,0.0,0.0,0.0,0.0,0.0,0.0,0.0,0.0,0.0,0.0,0.0,0.0,0.0,0.0,0.0,0.0,0.0,0.0,0.0,0.0,0.0,0.0,0.0,0.0,0.0,0.0,0.0,0.0,0.0,0.0,0.0,0.0,0.0,0.0,0.0,0.0,0.0,0.0,0.0,0.0,0.0,0.0,0.0,0.0,0.0,0.0,0.0,0.0,0.0,0.0,0.0,0.0,0.0,0.0,0.0,0.0,0.0,0.0,0.0,0.0,0.0,0.0,0.0,0.0,0.0,-0.8172,-0.699,-0.3207,-0.1088,0.0,0.0,0.0,0.0,0.0,0.0,0.0,0.0,0.0,0.0,0.0,0.0,0.0,0.0,0.0,0.0,0.0,0.0,0.0,0.0,0.0,0.0,0.0,0.0,0.0,0.0,0.0,0.0,0.0,0.0,0.0,0.0,0.0,0.0,0.0,0.0,0.0,0.0,0.0,0.0,0.0,0.0,0.0,0.0,0.0,0.0,0.0,0.0,0.0,-1.3669,0.0,0.0,0.0,0.0,0.0,0.0,0.0,0.0,0.0,0.0,0.0,0.0,0.0,0.0,0.0,0.0,0.0,0.0,0.0,0.0,0.0,0.0,0.0,0.0,0.0,0.0,0.0,0.0,0.0,0.0,0.0,0.0,0.0,0.0,0.0,0.0,0.0,0.0,0.0,0.0,0.0,0.0,0.0,0.0,0.0,0.0,0.0,0.0,0.0,0.0,0.0,0.0,0.0,0.0,0.0,0.0,0.0,0.0,0.0,0.0,0.0,0.0,0.0,0.0,-1.0085,-0.4205,0.0,0.0,0.0,0.0,0.0,0.0,0.0,0.0,0.0,0.0,0.0,0.0,0.0,0.0,0.0,0.0,0.0,0.0,0.0,0.0,0.0,0.0,0.0,0.0,0.0,0.0,0.0,0.0,0.0,0.0,0.0,0.0,0.0,0.0,0.0,0.0,0.0,0.0,0.0,0.0,0.0,0.0,0.0,0.0,0.0,0.0,0.0,0.0,-1.5529,-1.4081,0.0,0.0,0.0,0.0,0.0,0.0,0.0,0.0,0.0,0.0,0.0,0.0,0.0,0.0,0.0,0.0,0.0,0.0,0.0,0.0,0.0,0.0,0.0,0.0,0.0,0.0,0.0,0.0,0.0,0.0,0.0,0.0,0.0,0.0,0.0,0.0,0.0,0.0,0.0,0.0,0.0,0.0,0.0,0.0,0.0,0.0,0.0,0.0,0.0,0.0,0.0,0.0,0.0,0.0,0.0,0.0,0.0,0.0,0.0,0.0,0.0,0.0,0.0,0.0,-1.1541,-0.4714,0.0,0.0,0.0,0.0,0.0,0.0,0.0,0.0,0.0,0.0,0.0,0.0,0.0,0.0,0.0,0.0,0.0,0.0,0.0,0.0,0.0,0.0,0.0,0.0,0.0,0.0,0.0,0.0,0.0,0.0,0.0,0.0,0.0,0.0,0.0,0.0,0.0,0.0,0.0,0.0,0.0,0.0,0.0,0.0,0.0,0.0,-1.7882,-1.8645,-1.624,-1.4683,0.0,0.0,0.0,0.0,0.0,0.0,0.0,0.0,0.0,0.0,0.0,0.0,0.0,0.0,0.0,0.0,0.0,0.0,0.0,0.0,0.0,0.0,0.0,0.0,0.0,0.0,0.0,-1.0391,0.0,0.0,0.0,0.0,0.0,0.0,0.0,0.0,0.0,0.0,0.0,0.0,0.0,0.0,0.0,0.0,0.0,0.0,0.0,0.0,0.0,0.0,0.0,0.0,0.0,0.0,0.0,0.0,0.0,0.0,0.0,0.0,0.0,0.0,-1.0775,-1.1694,-1.2269,-0.7576,-0.3128,-0.028,0.0,0.0,0.0,0.0,0.0,0.0,0.0,0.0,0.0,0.0,0.0,0.0,0.0,0.0,0.0,0.0,0.0,0.0,0.0,0.0,0.0,0.0,0.0,0.0,0.0,0.0,0.0,0.0,0.0,0.0,0.0,0.0,0.0,0.0,0.0,0.0,0.0,0.0,0.0,0.0,0.0,0.0,0.0,0.0,-1.8232,-1.9522,-1.6979,-1.563,-1.6363,-1.3778,0.0,0.0,0.0,0.0,0.0,0.0,0.0,0.0,0.0,0.0,0.0,0.0,0.0,0.0,0.0,0.0,0.0,0.0,0.0,0.0,0.0,0.0,0.0,0.0,-1.0191,-0.9871,0.0,0.0,0.0,0.0,0.0,0.0,0.0,0.0,0.0,0.0,0.0,0.0,0.0,0.0,0.0,0.0,0.0,0.0,0.0,0.0,0.0,0.0,0.0,0.0,0.0,0.0,0.0,0.0,0.0,0.0,0.0,0.0,0.0,-0.9473,-1.0934,-1.2301,-1.2936,-1.2692,-0.9313,-0.1022,-0.0148,0.0,0.0,0.0,0.0,0.0,0.0,0.0,0.0,0.0,0.0,0.0,0.0,0.0,0.0,0.0,0.0,0.0,0.0,0.0,0.0,0.0,0.0,0.0,0.0,0.0,0.0,0.0,0.0,0.0,0.0,0.0,0.0,0.0,0.0,0.0,0.0,0.0,0.0,0.0,0.0,0.0,0.0,-1.8975,-1.9054,-1.982,-1.9169,-1.8068,-1.6983,-1.5738,-1.4461,-1.359,0.0,0.0,0.0,0.0,0.0,0.0,0.0,0.0,0.0,0.0,0.0,0.0,0.0,0.0,0.0,0.0,0.0,0.0,0.0,0.0,0.0,-1.2449,-1.1444,-1.0693,0.0,0.0,0.0,0.0,0.0,0.0,0.0,0.0,0.0,0.0,0.0,0.0,0.0,0.0,0.0,0.0,0.0,0.0,0.0,0.0,0.0,0.0,0.0,0.0,0.0,0.0,0.0,0.0,0.0,0.0,0.0,-0.9313,-1.0163,-1.0222,-1.098,-1.1889,-1.2388,-1.2817,-1.0664,-0.5125,-0.187,0.0,0.0,0.0,0.0,0.0,0.0,0.0,0.0,0.0,0.0,0.0,0.0,0.0,0.0,0.0,0.0,0.0,0.0,0.0,0.0,0.0,0.0,0.0,0.0,0.0,0.0,0.0,0.0,0.0,0.0,0.0,0.0,0.0,0.0,0.0,0.0,0.0,0.0,0.0,0.0,0.0,0.0,-1.9952,-2.0625,-2.1352,-2.1208,-2.0304,-1.8463,-1.6623,-1.5223,-1.4096,0.0,0.0,0.0,0.0,0.0,0.0,0.0,0.0,0.0,0.0,0.0,0.0,0.0,0.0,0.0,0.0,0.0,0.0,0.0,-1.4304,-1.4215,-1.3582,-1.2834,-1.2017,-1.124,-1.1206,-1.1599,-1.0822,-1.0646,-1.0757,-1.0717,0.0,0.0,0.0,0.0,0.0,0.0,0.0,0.0,0.0,0.0,0.0,0.0,0.0,0.0,0.0,0.0,0.0,0.0,0.0,0.0,0.0,0.0,0.0,0.0,-0.9996,-1.0925,-1.0763,-1.1449,-1.2054,-1.2596,-1.3003,-1.2213,-0.9514,-0.3602,0.0,0.0,0.0,0.0,0.0,0.0,0.0,0.0,0.0,0.0,0.0,0.0,0.0,0.0,0.0,0.0,0.0,0.0,0.0,0.0,0.0,0.0,0.0,0.0,0.0,0.0,0.0,0.0,0.0,0.0,0.0,0.0,0.0,0.0,0.0,0.0,0.0,0.0,0.0,0.0,0.0,0.0,0.0,-2.2619,-2.3166,-2.298,-2.2076,-2.0358,-1.7493,-1.5325,0.0,0.0,0.0,-1.5993,-1.6682,-1.6721,-1.5703,-1.4132,-1.3568,-1.4013,-1.3974,-1.3946,-1.4095,-1.4116,-1.419,-1.4326,-1.434,-1.436,-1.438,-1.4309,-1.4289,-1.4373,-1.4353,-1.4061,-1.3713,-1.222,-1.1966,-1.2489,-1.1033,-1.068,-1.0902,-1.0737,0.0,0.0,0.0,0.0,0.0,0.0,0.0,0.0,0.0,0.0,0.0,0.0,0.0,0.0,0.0,0.0,0.0,0.0,0.0,0.0,0.0,0.0,0.0,0.0,-1.0894,-1.1695,-1.1504,-1.2063,-1.2793,-1.318,-1.3439,-1.3488,-1.3369,-0.6139,-0.1024,-0.0,0.0,0.0,0.0,0.0,0.0,0.0,0.0,0.0,0.0,0.0,0.0,0.0,0.0,0.0,0.0,0.0,0.0,0.0,0.0,0.0,0.0,0.0,0.0,0.0,0.0,0.0,0.0,0.0,0.0,0.0,0.0,0.0,0.0,0.0,0.0,0.0,0.0,0.0,0.0,-1.9372,-2.1149,-2.2458,-2.2579,-2.3943,-2.4108,-2.2257,-2.0819,-1.8845,0.0,0.0,-1.8307,-1.697,-1.8062,-1.8648,-1.8822,-1.7109,-1.6475,-1.6706,-1.4866,-1.4102,-1.4258,-1.4373,-1.4441,-1.4475,-1.4597,-1.4726,-1.4835,-1.4362,-1.4564,-1.5018,-1.4517,-1.4245,-1.4105,-1.3831,-1.2992,-1.1901,-1.1841,-1.1901,-1.2073,-1.1091,-1.0351,-0.9837,-1.0135,0.0,0.0,0.0,0.0,0.0,0.0,0.0,0.0,0.0,0.0,0.0,0.0,0.0,0.0,0.0,0.0,0.0,0.0,0.0,0.0,-1.117,-1.1893,-1.245,-1.2915,-1.3164,-1.3398,-1.3546,-1.3552,-1.3673,-1.368,-1.1927,-0.7761,-0.0518,0.0,0.0,0.0,0.0,0.0,0.0,0.0,0.0,0.0,0.0,0.0,0.0,0.0,0.0,0.0,0.0,0.0,0.0,0.0,0.0,0.0,0.0,0.0,0.0,0.0,0.0,0.0,0.0,0.0,0.0,0.0,0.0,0.0,0.0,0.0,0.0,0.0,0.0,0.0,0.0,-2.0895,-2.1924,-2.1777,-2.322,-2.3378,-2.1183,-2.0204,0.0,0.0,-1.9334,-2.0723,-1.977,-2.0631,-2.1223,-2.1684,-2.0,-1.8524,-1.7628,-1.6514,-1.5558,-1.4407,-1.4557,-1.4624,-1.4631,-1.4787,-1.4896,-1.4977,-1.4852,-1.4879,-1.4886,-1.4879,-1.4767,-1.4801,-1.4414,-1.372,-1.2913,-1.3116,-1.3221,-1.3214,-1.2433,-1.1861,-1.1637,-1.166,-1.098,-1.0015,0.0,0.0,0.0,0.0,0.0,0.0,0.0,0.0,0.0,0.0,0.0,0.0,0.0,0.0,-0.9578,-1.0005,0.0,-1.0913,-1.1279,-1.2338,-1.3241,-1.3777,-1.377,-1.3753,-1.3686,-1.398,-1.4048,-1.3987,-1.3994,-1.2068,-0.7516,-0.2793,0.0,0.0,0.0,0.0,0.0,0.0,0.0,0.0,0.0,0.0,0.0,0.0,0.0,0.0,0.0,0.0,0.0,0.0,0.0,0.0,0.0,0.0,0.0,0.0,0.0,0.0,0.0,0.0,0.0,0.0,0.0,0.0,0.0,0.0,0.0,0.0,0.0,0.0,0.0,0.0,-2.1269,-2.0975,-2.1937,-2.1841,0.0,0.0,0.0,0.0,-2.1282,-2.3287,-2.2549,-2.355,-2.4299,-2.4733,-2.2818,-2.0998,-1.9259,-1.8592,-1.7087,-1.5312,-1.4963,-1.4889,-1.4923,-1.5045,-1.5147,-1.5242,-1.5418,-1.5261,-1.5017,-1.5274,-1.5337,-1.5252,-1.4631,-1.434,-1.4297,-1.418,-1.434,-1.415,-1.3756,-1.3596,-1.3498,-1.2962,-1.2158,-1.0946,-0.9833,-0.9608,0.0,0.0,0.0,0.0,0.0,0.0,0.0,0.0,-0.8997,-0.9418,-0.958,-0.9916,-1.0195,-1.0711,-1.1101,-1.1371,-1.1374,-1.2494,-1.361,-1.4187,-1.4374,-1.4116,-1.3934,-1.4224,-1.4251,-1.4304,-1.4325,-1.4352,-1.4386,-0.5472,0.0,0.0,0.0,0.0,0.0,0.0,0.0,0.0,0.0,0.0,0.0,0.0,0.0,0.0,0.0,0.0,0.0,0.0,0.0,0.0,0.0,0.0,0.0,0.0,0.0,0.0,0.0,0.0,0.0,0.0,0.0,0.0,0.0,0.0,0.0,0.0,0.0,0.0,0.0,0.0,0.0,0.0,0.0,0.0,0.0,0.0,0.0,-2.0283,-2.293,-2.4186,-2.374,-2.6262,-2.7627,-2.7693,-2.5957,-2.4986,-2.4657,-2.0601,-1.8359,-1.8184,-1.6126,-1.5411,-1.554,-1.5554,-1.5784,-1.6144,-1.6103,-1.5954,-1.5957,-1.5906,-1.5911,-1.5925,-1.5396,-1.4821,-1.4242,-1.4129,-1.4175,-1.4364,-1.4145,-1.4273,-1.4222,-1.4145,-1.3604,-1.3367,-1.4613,-1.2398,-0.9697,-1.1082,-0.9763,-0.833,-0.9384,-0.9252,-0.8732,0.0,-0.8486,-0.9271,-1.0067,-1.0561,-1.0887,-1.1077,-1.1803,-1.2333,-1.2033,-1.2714,-1.3653,-1.4201,-1.4359,-1.4272,-1.4272,-1.4292,-1.4292,-1.4278,-1.4278,-1.4292,-1.4326,-0.534,0.0,0.0,0.0,0.0,0.0,0.0,0.0,0.0,0.0,0.0,0.0,0.0,0.0,0.0,0.0,0.0,0.0,0.0,0.0,0.0,0.0,0.0,0.0,0.0,0.0,0.0,0.0,0.0,0.0,0.0,0.0,0.0,0.0,0.0,0.0,0.0,0.0,0.0,0.0,0.0,0.0,0.0,0.0,0.0,0.0,0.0,0.0,-2.2127,-2.4245,-2.5819,-2.6581,-2.8182,-2.9005,-2.9165,-2.851,-2.7355,-2.608,-2.415,-2.2606,-2.114,-1.8814,-1.7896,-1.8075,-1.6629,-1.6049,-1.6307,-1.6467,-1.632,-1.6422,-1.6501,-1.6309,-1.6055,-1.5855,-1.5313,-1.4701,-1.3594,-1.3191,0.0,0.0,-1.2608,-1.3269,-1.3649,-1.3528,-1.3567,-1.4246,-1.2657,-1.1268,-1.4262,-1.1594,-0.8148,-0.8679,-0.9078,-0.9327,-0.9087,-0.9557,-1.0143,-1.0919,-1.1094,-1.1273,-1.1978,-1.2583,-1.2883,-1.3184,-1.3462,-1.3847,-1.4183,-1.4359,-1.4311,-1.4228,-1.4215,-1.4283,-1.4285,-1.4299,-1.4312,-1.4346,-1.056,-0.5898,-0.0358,0.0,0.0,0.0,0.0,0.0,0.0,0.0,0.0,0.0,0.0,0.0,0.0,0.0,0.0,0.0,0.0,0.0,0.0,0.0,0.0,0.0,0.0,0.0,0.0,0.0,0.0,0.0,0.0,0.0,0.0,0.0,0.0,0.0,0.0,0.0,0.0,0.0,0.0,0.0,0.0,0.0,0.0,0.0,0.0,0.0,0.0,-2.4823,-2.6573,-2.8524,-2.9165,-2.9659,-3.0034,-3.0194,-2.9339,-2.7659,-2.7259,-2.6279,-2.4576,-2.2135,-2.0606,-2.0021,-1.8145,-1.7106,-1.6497,-1.6564,-1.7228,-1.8078,-1.7179,-1.6738,-1.6376,-1.6216,-1.5701,-1.4771,-1.3089,-1.2475,0.0,0.0,-1.1874,-1.2196,-1.2921,-1.3022,-1.3146,-1.4675,-1.4631,-1.4337,-1.5032,-1.1787,-0.8325,-0.8509,-0.94,-1.0283,-1.0571,-1.0866,-1.1434,-1.1928,-1.1871,-1.1978,-1.2762,-1.3003,-1.3451,-1.3926,-1.3867,-1.3948,-1.4278,-1.4311,-1.4305,-1.4152,-1.3885,-1.3933,-1.4027,-1.4163,-1.4265,-1.4333,-1.438,-1.004,-0.0536,0.0,0.0,0.0,0.0,0.0,0.0,0.0,0.0,0.0,0.0,0.0,0.0,0.0,0.0,0.0,0.0,0.0,0.0,0.0,0.0,0.0,0.0,0.0,0.0,0.0,0.0,0.0,0.0,0.0,0.0,0.0,0.0,0.0,0.0,0.0,0.0,0.0,0.0,0.0,0.0,0.0,0.0,0.0,0.0,0.0,0.0,-2.4449,-2.6159,-2.8511,-2.9165,-2.9753,-3.0341,-3.0902,-3.1183,-3.0996,-2.9029,-2.8109,-2.7926,-2.5783,-2.3212,-2.0782,-2.0596,-1.9111,-1.6951,-1.6802,-1.8907,-2.195,-1.8283,-1.689,-1.6825,-1.6398,-1.5395,-1.4112,-1.3139,0.0,0.0,0.0,-1.2551,-1.0921,-1.2131,-1.2066,-1.2697,-1.7741,-1.9931,-1.9057,-1.1306,-0.9043,-0.8962,-0.958,-1.0635,-1.1762,-1.2292,-1.2446,-1.2691,-1.3166,-1.3362,-1.3311,-1.297,-1.341,-1.3668,-1.3824,-1.4153,-1.4304,-1.4278,-1.4222,-1.4145,-1.3479,-1.286,-1.2749,-1.341,-1.3995,-1.4318,-1.4292,-1.4367,-1.0035,-0.0535,0.0,0.0,0.0,0.0,0.0,0.0,0.0,0.0,0.0,0.0,0.0,0.0,0.0,0.0,0.0,0.0,0.0,0.0,0.0,0.0,0.0,0.0,0.0,0.0,0.0,0.0,0.0,0.0,0.0,0.0,0.0,0.0,0.0,0.0,0.0,0.0,0.0,0.0,0.0,0.0,0.0,0.0,0.0,0.0,0.0,0.0,-2.4102,-2.5865,-2.7642,-2.9032,-3.0047,-3.0635,-3.1022,-3.141,-3.181,-3.1216,-3.0818,-3.101,-2.8497,-2.707,-2.6073,-2.4386,-2.31,-2.232,-2.2114,-2.2319,-2.2418,-2.0644,-2.0088,-1.9944,-1.6265,-1.3953,-1.2416,0.0,0.0,0.0,0.0,0.0,0.0,-1.4153,-1.5425,-1.7178,-1.8917,-1.9099,-1.7386,-1.0755,-0.9443,-1.0247,-1.0893,-1.1578,-1.2255,-1.2416,-1.2866,-1.3218,-1.3289,-1.3461,-1.3317,-1.32,-1.3457,-1.3647,-1.3839,-1.411,-1.4361,-1.4265,-1.4304,-1.4002,-1.2866,-1.2307,-1.2213,-1.2809,-1.37,-1.4302,-1.4304,-1.4217,-1.0136,-0.0535,0.0,0.0,0.0,0.0,0.0,0.0,0.0,0.0,0.0,0.0,0.0,0.0,0.0,0.0,0.0,0.0,0.0,0.0,0.0,0.0,0.0,0.0,0.0,0.0,0.0,0.0,0.0,0.0,0.0,0.0,0.0,0.0,0.0,0.0,0.0,0.0,0.0,0.0,0.0,0.0,0.0,0.0,0.0,0.0,0.0,0.0,0.0,-2.4676,-2.6253,-2.7522,-2.8511,-2.9205,-2.9499,-3.0047,-3.0849,-3.0955,-3.1316,-3.1917,-3.0152,-2.9055,-2.8031,-2.654,-2.5273,-2.4408,-2.4257,-2.3938,-2.3602,-2.1896,-2.174,-2.1979,-1.8207,-1.6292,0.0,0.0,0.0,0.0,0.0,0.0,0.0,-1.5011,-1.6743,-1.8788,-1.8761,-1.847,-1.7213,-1.2226,-1.1447,-1.2052,-1.2127,-1.2512,-1.2828,-1.2749,-1.3078,-1.345,-1.3415,-1.3204,-1.3021,-1.2587,-1.2477,-1.258,-1.3248,-1.3669,-1.3985,-1.434,-1.4235,-1.3978,-1.3295,-1.2238,-1.1794,-1.2509,-1.3125,-1.3679,-1.3953,-1.4143,-1.0126,-0.0535,0.0,0.0,0.0,0.0,0.0,0.0,0.0,0.0,0.0,0.0,0.0,0.0,0.0,0.0,0.0,0.0,0.0,0.0,0.0,0.0,0.0,0.0,0.0,0.0,0.0,0.0,0.0,0.0,0.0,0.0,0.0,0.0,0.0,0.0,0.0,0.0,0.0,0.0,0.0,0.0,0.0,0.0,0.0,0.0,0.0,0.0,0.0,0.0,-2.4476,-2.489,-2.5478,-2.6333,-2.6627,-2.7348,-2.8511,-2.8791,-2.9499,-3.0608,-3.0608,-2.9282,-2.6666,-2.7087,-2.5672,-2.3194,-2.3184,-2.4458,-2.6005,-2.2152,-2.1598,-2.2936,-2.1569,0.0,0.0,0.0,0.0,0.0,0.0,-1.4959,-1.4167,-1.4928,-1.6092,-1.7158,-1.7201,-1.8289,-1.8853,-1.522,-1.4211,-1.4158,-1.367,-1.3436,-1.3411,-1.3383,-1.3281,-1.324,-1.3261,-1.2923,-1.2121,-1.0907,-1.0662,-1.0973,-1.1854,-1.2464,-1.329,-1.423,-1.4275,-1.4295,-1.4253,-1.2671,-1.1999,-1.2481,-1.2612,-1.2701,-1.3284,-1.3961,-1.0352,-0.1247,-0.0179,0.0,0.0,0.0,0.0,0.0,0.0,0.0,0.0,0.0,0.0,0.0,0.0,0.0,0.0,0.0,0.0,0.0,0.0,0.0,0.0,0.0,0.0,0.0,0.0,0.0,0.0,0.0,0.0,0.0,0.0,0.0,0.0,0.0,0.0,0.0,0.0,0.0,0.0,0.0,0.0,0.0,0.0,0.0,0.0,0.0,0.0,0.0,0.0,0.0,0.0,0.0,0.0,0.0,0.0,0.0,-2.7655,-2.8163,-2.8163,-2.7812,-2.7122,-2.7199,-2.6872,-2.6165,-2.5967,-2.6255,-2.6735,0.0,-2.3011,-2.4697,0.0,0.0,0.0,0.0,0.0,0.0,-1.8161,-1.7792,-1.7452,-1.4717,-1.2614,-1.1217,-1.1689,-1.6671,-2.0726,-1.5156,-1.3944,-1.4297,-1.4081,-1.4084,-1.4006,-1.4105,-1.2611,-1.1586,-1.2488,-1.1955,-1.0882,-1.0206,-1.0059,-0.9968,-0.9747,-1.0922,-1.2553,-1.4021,-1.4242,-1.4084,-1.3607,-1.325,-1.3144,-1.3824,-1.3451,-1.3023,-1.2778,-1.3767,-1.3229,-1.0748,-0.3934,0.0,0.0,0.0,0.0,0.0,0.0,0.0,0.0,0.0,0.0,0.0,0.0,0.0,0.0,0.0,0.0,0.0,0.0,0.0,0.0,0.0,0.0,0.0,0.0,0.0,0.0,0.0,0.0,0.0,0.0,0.0,0.0,0.0,0.0,0.0,0.0,0.0,0.0,0.0,0.0,0.0,0.0,0.0,0.0,0.0,0.0,0.0,0.0,0.0,0.0,0.0,0.0,0.0,0.0,0.0,0.0,0.0,-2.6106,-2.6106,-2.6119,-2.6253,-2.6306,-2.6293,-2.6132,0.0,0.0,0.0,0.0,0.0,0.0,0.0,0.0,0.0,0.0,-1.8907,-1.8319,-1.8326,-1.8323,-1.6485,-1.4098,-1.2443,-1.4855,-1.973,-2.2831,-1.5726,-1.3965,-1.4358,-1.4337,-1.4249,-1.4365,-1.4289,-1.2204,-1.0297,-1.0486,-1.0438,-1.0134,-0.9503,-0.9199,-0.9234,-0.995,-1.158,-1.3054,-1.3606,-1.3787,-1.396,-1.3838,-1.372,-1.3988,-1.4187,-1.3933,-1.3588,-1.3236,-1.3847,-1.4352,-1.4216,-0.5184,0.0,0.0,0.0,0.0,0.0,0.0,0.0,0.0,0.0,0.0,0.0,0.0,0.0,0.0,0.0,0.0,0.0,0.0,0.0,0.0,0.0,0.0,0.0,0.0,0.0,0.0,0.0,0.0,0.0,0.0,0.0,0.0,0.0,0.0,0.0,0.0,0.0,0.0,0.0,0.0,0.0,0.0,0.0,0.0,0.0,0.0,0.0,0.0,0.0,0.0,0.0,0.0,0.0,0.0,0.0,0.0,0.0,0.0,0.0,0.0,0.0,0.0,0.0,0.0,0.0,0.0,0.0,0.0,0.0,0.0,0.0,0.0,0.0,0.0,-1.8596,-1.8183,-1.7999,-1.7895,-1.7967,-1.736,-1.746,-2.2203,-2.5106,-2.5174,-1.81,-1.6061,-1.5798,-1.466,-1.4277,-1.4215,-1.4135,-1.1842,-0.9409,-0.8275,-0.8872,-0.9486,-0.8843,-0.8305,-0.8738,-1.1197,-1.3013,-1.3991,-1.3336,-1.3432,-1.379,-1.4249,-1.4283,-1.4228,-1.427,-1.4381,-1.4283,-1.4283,-1.4224,-1.4333,-1.4222,-0.5177,0.0,0.0,0.0,0.0,0.0,0.0,0.0,0.0,0.0,0.0,0.0,0.0,0.0,0.0,0.0,0.0,0.0,0.0,0.0,0.0,0.0,0.0,0.0,0.0,0.0,0.0,0.0,0.0,0.0,0.0,0.0,0.0,0.0,0.0,0.0,0.0,0.0,0.0,0.0,0.0,0.0,0.0,0.0,0.0,0.0,0.0,0.0,0.0,0.0,0.0,0.0,0.0,0.0,0.0,-2.1416,0.0,0.0,0.0,0.0,0.0,0.0,0.0,0.0,0.0,0.0,0.0,0.0,0.0,0.0,0.0,0.0,0.0,0.0,-1.934,0.0,0.0,-2.0191,-1.8696,-1.2677,-1.513,-2.1153,-2.5909,-2.7592,-2.7549,-2.6103,-2.5754,-2.4019,-1.6133,-1.429,-1.411,-1.3612,-1.1157,-0.8895,-0.8096,-0.8576,-0.8831,-0.8266,-0.8064,-0.8799,-1.1205,-1.2764,-1.3745,-1.3968,-1.4153,-1.4235,-1.4238,-1.4258,-1.4251,-1.4224,-1.4245,-1.4258,-1.4258,-1.4285,-1.4333,-1.4222,-0.5177,0.0,0.0,0.0,0.0,0.0,0.0,0.0,0.0,0.0,0.0,0.0,0.0,0.0,0.0,0.0,0.0,0.0,0.0,0.0,0.0,0.0,0.0,0.0,0.0,0.0,0.0,0.0,0.0,0.0,0.0,0.0,0.0,0.0,0.0,0.0,0.0,0.0,0.0,0.0,0.0,0.0,0.0,0.0,0.0,0.0,0.0,0.0,0.0,0.0,0.0,0.0,-2.1109,-2.1109,-2.1109,0.0,-2.1109,-2.1109,-2.1109,-2.1109,-2.1109,-2.1109,-2.1109,0.0,0.0,0.0,0.0,0.0,0.0,0.0,0.0,0.0,0.0,0.0,0.0,0.0,0.0,-2.2098,-2.3399,-1.798,-1.9668,-2.4467,-2.7317,-2.8615,-2.9077,-2.9058,-2.9007,-2.7925,-2.3586,-1.8418,-1.4034,-1.3176,-1.0913,-0.869,-0.8164,-0.8345,-0.8628,-0.8086,-0.8232,-0.8997,-1.0472,-1.1523,-1.2657,-1.3823,-1.418,-1.4224,-1.4238,-1.4299,-1.4299,-1.4299,-1.4299,-1.4299,-1.4299,-1.4299,-1.4333,-1.4222,-0.5189,0.0,0.0,0.0,0.0,0.0,0.0,0.0,0.0,0.0,0.0,0.0,0.0,0.0,0.0,0.0,0.0,0.0,0.0,0.0,0.0,0.0,0.0,0.0,0.0,0.0,0.0,0.0,0.0,0.0,0.0,0.0,0.0,0.0,0.0,0.0,0.0,0.0,0.0,0.0,0.0,0.0,0.0,0.0,0.0,0.0,0.0,0.0,0.0,0.0,0.0,0.0,0.0,0.0,-2.1109,-2.1109,0.0,0.0,0.0,0.0,0.0,-2.1109,-2.1109,-2.1096,0.0,0.0,0.0,0.0,-2.0361,0.0,0.0,0.0,0.0,0.0,-1.9225,-1.9233,-1.9374,-2.2522,-2.6066,-2.4252,-2.5112,-2.703,-2.7891,-2.8964,-3.0,-3.0179,-3.0227,-3.0261,-3.0245,-2.2221,-1.3967,-1.26,-1.1537,-1.0202,-0.8426,-0.8269,-0.8336,-0.8167,-0.8395,-0.8856,-0.9566,-1.0446,-1.1622,-1.304,-1.3792,-1.4167,-1.4331,-1.4278,-1.4299,-1.4299,-1.4299,-1.4299,-1.4299,-1.4306,-1.3426,-1.1298,-0.4122,0.0,0.0,0.0,0.0,0.0,0.0,0.0,0.0,0.0,0.0,0.0,0.0,0.0,0.0,0.0,0.0,0.0,0.0,0.0,0.0,0.0,0.0,0.0,0.0,0.0,0.0,0.0,0.0,0.0,0.0,0.0,0.0,0.0,0.0,0.0,0.0,0.0,0.0,0.0,0.0,0.0,0.0,0.0,0.0,0.0,0.0,0.0,0.0,0.0,0.0,0.0,0.0,0.0,-2.1109,-2.1109,0.0,0.0,0.0,0.0,0.0,0.0,-2.1109,-2.1109,-2.1082,0.0,0.0,0.0,0.0,0.0,0.0,0.0,0.0,0.0,-1.8704,-1.8698,-1.9236,-1.9811,-2.0882,-2.4856,-2.7001,-2.8081,-2.8149,-2.896,-3.0165,-3.1166,-3.1537,-3.162,-3.1581,-2.2891,-1.3838,-1.2031,-1.4308,-1.5186,-0.9261,-0.8007,-0.8052,-0.8287,-0.8171,-0.8238,-0.8901,-1.0006,-1.0913,-1.1423,-1.2488,-1.3556,-1.4194,-1.4217,-1.4299,-1.4299,-1.4299,-1.4299,-1.4299,-1.4326,-1.0545,-0.1783,-0.0537,0.0,0.0,0.0,0.0,0.0,0.0,0.0,0.0,0.0,0.0,0.0,0.0,0.0,0.0,0.0,0.0,0.0,0.0,0.0,0.0,0.0,0.0,0.0,0.0,0.0,0.0,0.0,0.0,0.0,0.0,0.0,0.0,0.0,0.0,0.0,0.0,0.0,0.0,0.0,0.0,0.0,0.0,0.0,0.0,0.0,0.0,0.0,0.0,0.0,0.0,0.0,0.0,-2.1109,-2.1109,-2.1109,0.0,0.0,0.0,0.0,0.0,0.0,-2.1109,-2.1082,-2.0735,0.0,0.0,0.0,0.0,0.0,0.0,0.0,0.0,0.0,0.0,-1.8451,-1.8403,-1.8829,-1.9676,-2.1585,-2.271,-2.3985,-2.7295,-2.9021,-3.0142,-3.1303,-3.1792,-3.1783,-3.1748,-2.7119,-2.0697,-1.3313,-1.4679,-1.5809,-0.9352,-0.7978,-0.8058,-0.8309,-0.8247,-0.8301,-0.8383,-0.9334,-1.0301,-1.0586,-1.1312,-1.2257,-1.3562,-1.4013,-1.4256,-1.4265,-1.4299,-1.4299,-1.4299,-1.4333,-1.2716,-0.8748,-0.3217,0.0,0.0,0.0,0.0,0.0,0.0,0.0,0.0,0.0,0.0,0.0,0.0,0.0,0.0,0.0,0.0,0.0,0.0,0.0,0.0,0.0,0.0,0.0,0.0,-0.3418,-0.8065,0.0,0.0,0.0,0.0,0.0,0.0,0.0,0.0,0.0,0.0,0.0,0.0,0.0,0.0,0.0,0.0,0.0,0.0,0.0,0.0,0.0,0.0,0.0,0.0,0.0,0.0,0.0,0.0,-2.1069,-2.1109,0.0,0.0,-2.1109,-2.1109,0.0,0.0,0.0,0.0,0.0,0.0,0.0,0.0,0.0,0.0,0.0,0.0,0.0,0.0,0.0,0.0,0.0,-1.8885,-1.8854,-1.9399,0.0,-2.4869,-2.7698,-2.9649,-3.1329,-3.1955,-3.217,-3.1734,-3.001,-2.578,-1.6538,-1.6053,-1.624,-1.1281,-0.9082,-0.8065,-0.8133,-0.8378,-0.8465,0.0,-0.899,-0.9752,-1.0085,-1.0464,-1.1239,-1.2601,-1.3422,-1.4109,-1.4333,-1.4373,-1.4299,-1.4299,-1.4319,-1.434,-1.4353,-0.787,-0.2864,-0.0,0.0,0.0,0.0,0.0,0.0,0.0,0.0,0.0,0.0,0.0,0.0,0.0,0.0,0.0,0.0,0.0,0.0,0.0,0.0,0.0,-0.0339,-0.29,-0.7894,-1.3482,0.0,0.0,0.0,0.0,0.0,0.0,0.0,0.0,0.0,0.0,0.0,0.0,0.0,0.0,0.0,0.0,0.0,0.0,0.0,0.0,0.0,0.0,0.0,0.0,0.0,0.0,0.0,0.0,0.0,0.0,-2.1109,-2.1109,-2.1109,-2.1096,0.0,0.0,0.0,0.0,0.0,0.0,0.0,0.0,0.0,0.0,0.0,0.0,0.0,0.0,0.0,0.0,0.0,0.0,0.0,-1.8429,0.0,0.0,-2.4553,-2.8762,-3.1034,-3.2514,-3.3133,-3.2069,-2.9986,-2.69,-2.2026,-1.9279,-1.7237,-1.5959,-1.1624,-0.7978,-0.8044,-0.8371,-0.857,-0.8482,-0.8922,-0.9372,-0.9704,-1.0064,-1.0581,-1.1447,-1.2718,-1.3575,-1.4217,-1.4305,-1.4299,-1.4299,-1.4299,-1.4312,-1.4346,-1.4202,-0.9862,-0.0358,0.0,0.0,0.0,0.0,0.0,0.0,0.0,0.0,0.0,0.0,0.0,0.0,0.0,0.0,0.0,0.0,0.0,0.0,0.0,0.0,-0.1038,-1.0042,-1.3281,-1.3533,0.0,0.0,0.0,0.0,0.0,0.0,0.0,0.0,0.0,0.0,0.0,0.0,0.0,0.0,0.0,0.0,0.0,0.0,0.0,0.0,0.0,0.0,0.0,0.0,0.0,0.0,0.0,0.0,0.0,0.0,0.0,0.0,-2.2103,-2.0815,-2.0983,-2.0835,0.0,0.0,0.0,0.0,0.0,0.0,0.0,0.0,0.0,0.0,0.0,0.0,0.0,0.0,0.0,0.0,0.0,0.0,0.0,0.0,-2.218,-2.5214,-2.8417,-3.017,-3.0861,-3.0588,-2.6918,-2.3011,-2.1382,-1.9292,-1.7478,-1.7067,-1.2226,-0.8104,-0.8315,-0.83,-0.8315,-0.8737,-0.9211,-0.9641,-0.9838,-1.0308,-1.0581,-1.0666,-1.2344,-1.368,-1.418,-1.4366,-1.4299,-1.4299,-1.4299,-1.4306,-1.4312,-1.4346,-0.9847,-0.0358,0.0,0.0,0.0,0.0,0.0,0.0,0.0,0.0,0.0,0.0,0.0,0.0,0.0,0.0,0.0,0.0,0.0,0.0,0.0,-0.3707,-0.9497,-1.2847,-1.3947,-1.3961,0.0,0.0,0.0,0.0,0.0,0.0,0.0,0.0,0.0,0.0,0.0,0.0,0.0,0.0,0.0,0.0,0.0,0.0,0.0,0.0,0.0,0.0,0.0,0.0,0.0,0.0,0.0,0.0,0.0,0.0,0.0,0.0,0.0,0.0,-2.1231,0.0,0.0,0.0,0.0,0.0,0.0,0.0,-1.9359,0.0,0.0,0.0,0.0,0.0,0.0,0.0,0.0,0.0,0.0,0.0,0.0,0.0,-1.9931,-2.1919,-2.5277,-2.635,-2.6621,-2.6586,-2.3784,-2.0833,-2.0029,-1.869,-1.7652,-1.7609,-1.2521,-0.8143,-0.8581,-0.8367,-0.8355,-0.866,-0.9293,-0.9828,-1.0107,-1.0424,-1.0999,-1.1734,-1.2497,-1.3275,-1.3687,-1.4021,-1.4299,-1.4299,-1.4299,-1.4299,-1.4299,-1.4333,-1.1638,-0.5538,-0.1969,0.0,0.0,0.0,0.0,-0.0,-0.3753,-0.5363,-0.5355,-0.5355,-0.5355,-0.5355,-0.5355,-0.5347,0.0,-0.1565,-0.2069,-0.4984,-0.5053,-0.839,-1.3378,-1.381,-1.3999,-1.3985,0.0,0.0,0.0,0.0,0.0,0.0,0.0,0.0,0.0,0.0,0.0,0.0,0.0,0.0,0.0,0.0,0.0,0.0,0.0,0.0,0.0,0.0,0.0,0.0,0.0,0.0,0.0,0.0,0.0,0.0,0.0,0.0,0.0,0.0,0.0,0.0,0.0,0.0,0.0,0.0,0.0,0.0,0.0,0.0,0.0,0.0,0.0,0.0,0.0,0.0,0.0,0.0,0.0,0.0,0.0,0.0,0.0,0.0,0.0,-2.1894,-2.1049,-2.1026,-2.1072,-2.0439,-1.8191,-1.7823,0.0,-1.7623,-1.2551,-0.826,-0.9053,-0.8843,-0.8501,-0.8393,-0.9111,-0.9926,-1.0528,-1.0758,-1.1791,-1.399,-1.3363,-1.2823,-1.3108,-1.3861,-1.4299,-1.4299,-1.4299,-1.4299,-1.4299,-1.4333,-1.4346,-1.4353,-0.5717,-0.0715,-0.0,-0.0716,-0.1072,-0.107,-1.003,-1.4222,-1.4222,-1.4216,-1.4209,-1.438,-1.4216,-1.4306,-1.3604,-0.4682,-0.5842,-1.3363,-1.3351,-1.3365,-1.3479,-1.3452,-1.3439,-1.3439,0.0,0.0,0.0,0.0,0.0,0.0,0.0,0.0,0.0,0.0,0.0,0.0,0.0,0.0,0.0,0.0,0.0,0.0,0.0,0.0,0.0,0.0,0.0,0.0,0.0,0.0,0.0,0.0,0.0,0.0,0.0,0.0,0.0,0.0,0.0,0.0,0.0,0.0,0.0,0.0,0.0,0.0,0.0,0.0,0.0,0.0,-1.7695,-1.7806,0.0,0.0,0.0,0.0,0.0,0.0,0.0,0.0,-1.7682,0.0,-1.926,0.0,-2.1159,-2.108,-2.0401,-1.9707,0.0,-1.9682,-1.9818,-1.7983,-1.2859,-0.9277,-1.1234,-0.9983,-0.8679,-0.8929,-0.9168,-0.9499,-0.9914,-1.2009,-1.3656,-1.4159,-1.4057,-1.3834,-1.3988,-1.4102,-1.4299,-1.4299,-1.4299,-1.4299,-1.4299,-1.4306,-1.4326,-1.4353,-1.2177,-0.7499,-0.0,-0.7335,-1.0942,-1.0936,-1.328,-1.4367,-1.4367,-1.4333,-1.4265,-1.4338,-1.4299,-1.4217,-1.4132,-1.1446,-1.1538,-1.333,-1.3318,-1.3437,-1.3464,-1.3458,-1.3451,-1.3451,0.0,0.0,0.0,0.0,0.0,0.0,0.0,0.0,0.0,0.0,0.0,0.0,0.0,0.0,0.0,0.0,0.0,0.0,0.0,0.0,0.0,0.0,0.0,0.0,0.0,0.0,0.0,0.0,0.0,0.0,0.0,0.0,0.0,0.0,0.0,0.0,0.0,0.0,0.0,0.0,-1.9372,0.0,0.0,0.0,0.0,0.0,-1.7629,-1.7559,0.0,-1.9009,-1.9394,-1.9503,0.0,0.0,0.0,0.0,-1.759,0.0,-1.7978,-1.9166,-2.0301,-2.0282,-1.9429,-1.8726,-1.9291,-1.94,-1.917,-1.7857,-1.4013,-1.0839,-1.0753,-0.9684,-0.8903,-0.9274,-0.9353,-0.9653,-1.0134,-1.2611,-1.4238,-1.4252,-1.3807,-1.372,-1.4235,-1.438,-1.4299,-1.4299,-1.4299,-1.4299,-1.4299,-1.4299,-1.4306,-1.4326,-1.4326,-1.1799,-0.6599,-1.1643,-1.4373,-1.4175,-0.9805,-0.9978,-1.4326,-1.4055,-1.3968,-1.4075,-1.3928,-1.1502,-0.8037,-1.1845,-1.3336,-1.3372,-1.3437,-1.3403,-1.3403,-1.3403,-1.3403,-1.3403,0.0,0.0,0.0,0.0,0.0,0.0,0.0,0.0,0.0,0.0,0.0,0.0,0.0,0.0,0.0,0.0,0.0,0.0,0.0,0.0,0.0,0.0,0.0,0.0,0.0,0.0,0.0,0.0,0.0,0.0,0.0,0.0,0.0,0.0,0.0,0.0,0.0,0.0,0.0,0.0,-1.9421,0.0,0.0,0.0,0.0,0.0,0.0,0.0,0.0,-1.8738,-1.8659,-1.8288,-1.9349,0.0,0.0,0.0,0.0,0.0,-1.7569,-1.8519,-1.9404,-1.9389,-1.8608,-1.8081,-1.8918,-1.8198,-1.7357,-1.7565,-1.5548,-1.284,-1.0031,-0.9237,-0.9137,-0.9496,-0.9836,-1.0254,-1.0798,-1.2733,-1.408,-1.4076,-1.335,-1.3108,-1.4211,-1.4272,-1.4299,-1.4299,-1.4299,-1.4299,-1.4299,-1.4299,-1.4299,-1.4299,-1.4299,-1.4312,-1.434,-1.434,-1.4333,-1.4129,-0.6018,-0.6369,-1.4265,-1.3746,-1.3487,-1.3647,-1.3541,0.0,-0.2692,-1.0346,-1.3372,-1.3403,-1.3403,-1.3403,-1.3403,-1.3403,-1.3403,-1.3403,0.0,0.0,0.0,0.0,0.0,0.0,0.0,0.0,0.0,0.0,0.0,0.0,0.0,0.0,0.0,0.0,0.0,0.0,0.0,0.0,0.0,0.0,0.0,0.0,0.0,0.0,0.0,0.0,0.0,0.0,0.0,0.0,0.0,0.0,0.0,0.0,0.0,0.0,0.0,0.0,-1.938,0.0,0.0,0.0,0.0,0.0,0.0,0.0,0.0,-1.7782,-1.9112,-2.06,-2.0752,0.0,0.0,0.0,0.0,0.0,-1.7598,-1.8711,-1.9668,-1.9043,-1.9057,-1.8891,-1.8104,-1.6935,-1.6373,-1.737,-1.6468,-1.4877,-1.3022,-1.0902,-0.9605,-1.0355,-1.0792,-1.1279,-1.1817,-1.2507,-1.2729,-1.2728,-1.3533,-1.4143,-1.4291,-1.4325,-1.4299,-1.4299,-1.4299,-1.4299,-1.4299,-1.4299,-1.4299,-1.4299,-1.4299,-1.4299,-1.4306,-1.4306,-1.4319,-1.434,-1.2559,-1.2505,-1.3786,-1.378,-1.3633,-1.3526,0.0,-1.2665,-1.1397,-1.2914,-1.3392,-1.3403,-1.3403,-1.3403,-1.3403,-1.3403,-1.3403,-1.3403,0.0,0.0,0.0,0.0,0.0,0.0,0.0,0.0,0.0,0.0,0.0,0.0,0.0,0.0,0.0,0.0,0.0,0.0,0.0,0.0,0.0,0.0,0.0,0.0,0.0,0.0,0.0,0.0,0.0,0.0,0.0,0.0,0.0,0.0,0.0,0.0,0.0,0.0,0.0,0.0,0.0,0.0,0.0,0.0,0.0,0.0,0.0,0.0,0.0,0.0,-1.8326,-1.9299,-1.9949,0.0,0.0,0.0,0.0,0.0,-1.7567,-1.9009,-2.0484,-2.0077,-1.989,-1.9535,-1.8996,-1.8044,-1.7334,-1.7577,-1.609,-1.5265,-1.6414,-1.2627,-0.989,-1.1207,-1.1653,-1.2085,-1.2462,-1.2787,-1.3171,-1.3435,-1.3966,-1.4242,-1.427,-1.4217,-1.4299,-1.4299,-1.4299,-1.4299,-1.4299,-1.4299,-1.4299,-1.4299,-1.4299,-1.4258,-1.4177,-1.4177,-1.4224,-1.4319,-1.3887,-1.382,-1.3907,-1.3666,-1.3519,-1.3459,0.0,-1.3372,-1.341,-1.3325,-1.3478,-1.3403,-1.3403,-1.3403,-1.3403,-1.3403,-1.3403,-1.3403,0.0,0.0,0.0,0.0,0.0,0.0,0.0,0.0,0.0,0.0,0.0,0.0,0.0,0.0,0.0,0.0,0.0,0.0,0.0,0.0,0.0,0.0,0.0,0.0,0.0,0.0,0.0,0.0,0.0,0.0,0.0,0.0,0.0,0.0,0.0,0.0,0.0,0.0,0.0,0.0,0.0,0.0,0.0,0.0,0.0,0.0,0.0,0.0,0.0,0.0,0.0,0.0,0.0,0.0,0.0,0.0,-1.7616,-1.7596,-1.7609,-1.8877,-2.0345,-2.0608,0.0,-1.9859,-1.9983,-1.9503,-1.891,-1.8402,-1.696,-1.6527,-1.8959,-1.4433,-1.0611,-1.1921,-1.2345,-1.2793,-1.3003,-1.3315,-1.3693,-1.4256,-1.4305,-1.4222,-1.4278,-1.4299,-1.4299,-1.4299,-1.4299,-1.4299,-1.4299,-1.4265,-1.4245,-1.4245,-1.4211,-1.4136,-1.4014,-1.3987,-1.4041,-1.419,-1.3919,-1.3851,-1.3953,-1.3519,-1.3405,-1.3566,-1.3451,-1.3403,-1.3403,-1.3403,-1.3403,-1.3403,-1.3403,-1.3403,-1.3403,-1.3403,-1.3403,-1.3403,0.0,0.0,0.0,0.0,0.0,0.0,0.0,0.0,0.0,0.0,0.0,0.0,0.0,0.0,0.0,0.0,0.0,0.0,0.0,0.0,0.0,0.0,0.0,0.0,0.0,0.0,0.0,0.0,0.0,0.0,0.0,0.0,-3.6495,0.0,0.0,0.0,0.0,0.0,0.0,0.0,0.0,0.0,0.0,0.0,0.0,0.0,0.0,0.0,0.0,0.0,0.0,0.0,0.0,0.0,0.0,0.0,-1.765,-1.7642,-1.7553,-1.7712,-1.8152,-1.9293,-1.9508,-1.9537,-2.0013,-2.0538,-2.0808,-2.042,-2.048,-2.0315,-1.9537,-1.58,-1.2738,-1.2756,-1.291,-1.3329,-1.3912,-1.4,-1.4068,-1.4245,-1.4265,-1.4278,-1.4299,-1.4299,-1.4299,-1.4299,-1.4299,-1.4299,-1.4299,-1.4163,-1.4089,-1.4089,-1.3946,-1.3871,-1.3858,-1.3729,-1.3729,-1.37,-1.3715,-1.3648,-1.3654,-1.3492,-1.3417,-1.3417,-1.3403,-1.3403,-1.3403,-1.3403,-1.3403,-1.3403,-1.3403,-1.3403,-1.3403,-1.3403,-1.3403,-1.3403,0.0,0.0,0.0,0.0,0.0,0.0,0.0,0.0,0.0,0.0,0.0,0.0,0.0,0.0,0.0,0.0,0.0,0.0,0.0,0.0,0.0,0.0,0.0,0.0,0.0,0.0,0.0,0.0,0.0,0.0,0.0,-3.9605,0.0,0.0,0.0,0.0,0.0,0.0,0.0,0.0,0.0,0.0,0.0,0.0,0.0,0.0,0.0,0.0,0.0,0.0,0.0,0.0,0.0,0.0,0.0,0.0,-1.8755,-1.8531,-1.778,-1.7652,-1.7905,-1.9112,-1.8816,0.0,0.0,-2.2187,-2.2978,-2.2164,-2.2337,-2.2149,-2.0684,-1.8047,-1.5518,-1.3509,-1.3528,-1.3775,-1.4014,-1.4156,-1.4231,-1.4292,-1.4299,-1.4299,-1.4299,-1.4299,-1.4258,-1.4163,-1.4156,-1.429,-1.4194,-1.4139,-1.3933,-1.3926,-1.3871,-1.3797,-1.3709,-1.3654,-1.3559,-1.3424,-1.3464,-1.3539,-1.362,-1.337,-1.3261,-1.3425,-1.3261,-1.3261,-1.3425,-1.3425,-1.3425,-1.3425,-1.3425,-1.309,-1.2933,-1.3197,-1.3281,-1.3139,0.0,0.0,0.0,0.0,0.0,0.0,0.0,0.0,0.0,0.0,0.0,0.0,0.0,0.0,0.0,0.0,0.0,0.0,0.0,0.0,0.0,0.0,0.0,0.0,0.0,0.0,0.0,0.0,0.0,0.0,-3.8554,0.0,0.0,0.0,0.0,0.0,0.0,0.0,0.0,0.0,0.0,0.0,0.0,0.0,0.0,0.0,0.0,0.0,0.0,0.0,0.0,0.0,0.0,0.0,0.0,0.0,0.0,-1.9042,-1.7503,-1.7072,-1.7641,-1.9935,-1.9586,-1.915,-2.111,-2.3103,-2.4573,-2.4269,-2.395,-2.3293,-2.1873,-1.9404,-1.6852,-1.4863,-1.4201,-1.394,-1.3973,-1.4177,-1.4265,-1.4163,-1.4238,-1.4258,-1.4163,-1.4197,-1.4163,-1.4014,-1.4,-1.4125,-1.4022,-1.3926,-1.3899,-1.377,-1.3682,-1.3587,-1.3485,-1.3485,-1.3356,-1.3105,-1.3214,-1.3315,-1.341,-1.3247,-1.3152,-1.3274,-1.3105,-1.3267,-1.3436,-1.3436,-1.3274,-1.3105,-1.3105,-1.2936,-1.2781,-1.305,-1.3132,-1.2976,0.0,0.0,0.0,0.0,0.0,0.0,0.0,0.0,0.0,0.0,0.0,0.0,0.0,0.0,0.0,0.0,0.0,0.0,0.0,0.0,0.0,0.0,0.0,0.0,0.0,0.0,0.0,0.0,-4.0918,-4.1074,-3.8496,0.0,0.0,0.0,0.0,0.0,0.0,0.0,0.0,0.0,0.0,0.0,0.0,0.0,0.0,0.0,0.0,0.0,0.0,0.0,0.0,0.0,0.0,0.0,0.0,0.0,-1.9375,-1.8851,-1.643,-1.5851,-1.6993,-2.1708,-2.2024,-2.1149,-2.1083,-2.2935,-2.5059,-2.6739,-2.5472,-2.3834,-2.3027,-1.9101,-1.6259,-1.6779,-1.5225,-1.3838,-1.3838,-1.4102,-1.4183,-1.3878,-1.4109,-1.4177,-1.3871,-1.398,-1.4,-1.4022,-1.3838,-1.366,-1.3831,-1.3727,-1.3638,-1.362,-1.3501,-1.3336,-1.3173,-1.3173,-1.3098,-1.2963,-1.2963,-1.2963,-1.2969,-1.3105,-1.3091,-1.2963,-1.2963,-1.3123,-1.345,-1.345,-1.2963,-1.2462,-1.2462,-1.2628,-1.2956,-1.2628,-1.2628,-1.2956,0.0,0.0,0.0,0.0,0.0,0.0,0.0,0.0,0.0,0.0,0.0,0.0,0.0,0.0,0.0,0.0,0.0,0.0,0.0,0.0,0.0,0.0,0.0,0.0,0.0,0.0,-3.5449,-3.8379,-3.9277,-3.8398,0.0,0.0,0.0,-3.3296,0.0,0.0,0.0,0.0,0.0,0.0,0.0,0.0,0.0,0.0,0.0,0.0,0.0,0.0,0.0,0.0,0.0,0.0,0.0,0.0,0.0,-1.925,-1.9085,-1.855,-1.737,-1.7034,-1.7837,-2.0829,-2.1338,-2.1317,-2.2237,-2.4179,-2.6168,-2.7605,-2.6416,-2.4847,-2.422,-2.27,-2.0713,-1.7885,-1.7003,-1.6076,-1.4013,-1.3858,-1.3946,-1.3851,-1.3919,-1.3939,-1.3851,-1.3878,-1.3804,-1.3553,-1.3532,-1.3444,-1.3234,-1.3139,-1.3112,-1.299,-1.3071,-1.3024,-1.3024,-1.3024,-1.2949,-1.28,-1.2908,-1.2963,-1.2963,-1.2888,-1.284,-1.28,-1.2641,-1.2635,-1.28,-1.28,-1.2635,-1.2476,-1.2476,-1.2635,-1.2648,-1.2755,-1.282,-1.2651,0.0,0.0,0.0,0.0,0.0,0.0,0.0,0.0,0.0,0.0,0.0,0.0,0.0,0.0,0.0,0.0,0.0,0.0,0.0,0.0,0.0,0.0,0.0,0.0,0.0,-3.2148,-3.4199,0.0,0.0,0.0,0.0,0.0,0.0,-3.3713,0.0,0.0,0.0,0.0,0.0,0.0,0.0,0.0,0.0,0.0,0.0,0.0,0.0,0.0,0.0,0.0,0.0,0.0,0.0,0.0,0.0,-1.9917,-1.886,-1.7528,-1.8177,-1.8347,-1.8857,-2.0886,-2.1977,-2.293,-2.4582,-2.5389,-2.6114,-2.7839,-2.7182,-2.608,-2.5489,-2.4174,-2.2401,-1.9944,-1.8493,-1.6973,-1.5014,-1.421,-1.3797,-1.3682,-1.377,-1.3797,-1.3675,-1.3668,-1.3566,-1.3329,-1.3261,-1.3146,-1.2969,-1.2901,-1.2735,-1.2795,-1.2901,-1.284,-1.2937,-1.2779,-1.2671,-1.2467,-1.2562,-1.2603,-1.261,-1.2691,-1.2698,-1.2637,-1.242,-1.2427,-1.2474,-1.2576,-1.2434,-1.2481,-1.2481,-1.2481,-1.2494,-1.2745,-1.2657,-1.2515,0.0,0.0,0.0,0.0,0.0,0.0,0.0,0.0,0.0,0.0,0.0,0.0,0.0,0.0,0.0,0.0,0.0,0.0,0.0,0.0,0.0,0.0,0.0,0.0,0.0,0.0,0.0,0.0,0.0,0.0,0.0,0.0,-3.5644,-3.5215,0.0,-3.3688,0.0,0.0,0.0,0.0,0.0,0.0,0.0,0.0,0.0,0.0,0.0,0.0,0.0,0.0,0.0,0.0,0.0,-1.8317,-1.9367,-2.0345,-1.8443,-1.6626,-1.8721,-1.9414,-1.9904,-2.1603,-2.3328,-2.525,-2.7598,-2.6321,-2.5471,-2.7729,-2.7877,-2.7393,-2.6571,-2.4183,-2.2354,-2.2412,-1.9634,-1.7147,-1.6647,-1.5082,-1.3823,-1.339,-1.36,-1.3654,-1.339,-1.3363,-1.3295,-1.3146,-1.301,-1.2935,-1.2755,-1.2773,-1.2759,-1.2749,-1.2759,-1.2766,-1.2804,-1.2628,-1.2332,-1.2216,-1.206,-1.206,-1.2074,-1.2481,-1.2589,-1.2454,-1.2172,-1.2192,-1.2474,-1.2498,-1.2532,-1.2501,-1.2501,-1.2501,-1.2501,-1.2501,-1.2501,-1.2501,0.0,0.0,0.0,0.0,0.0,0.0,0.0,0.0,0.0,0.0,0.0,0.0,0.0,0.0,0.0,0.0,0.0,0.0,0.0,0.0,0.0,0.0,0.0,0.0,0.0,0.0,0.0,0.0,0.0,0.0,0.0,0.0,0.0,-3.3887,0.0,-3.4309,0.0,0.0,0.0,0.0,0.0,0.0,0.0,0.0,0.0,0.0,0.0,0.0,0.0,0.0,0.0,0.0,-1.7054,-1.7436,-1.7822,-1.7181,-1.7748,-1.8652,-1.8674,-1.943,-2.0531,-2.1659,-2.3514,-2.5577,-2.7148,-2.6733,-2.632,-2.7216,-2.7606,-2.7472,-2.6774,-2.6241,-2.5092,-2.3158,-2.2145,-2.0335,-1.6929,-1.5893,-1.4869,-1.3219,-1.3112,-1.3125,-1.3064,-1.3057,-1.299,-1.2834,-1.28,-1.2725,-1.2603,-1.2461,-1.2454,-1.2596,-1.2345,-1.225,-1.2338,-1.2368,-1.2278,-1.206,-1.206,-1.206,-1.2067,-1.2162,-1.2189,-1.2306,-1.2271,-1.2196,-1.2172,-1.2457,-1.2532,-1.2501,-1.2501,-1.2501,-1.2501,-1.2501,-1.2501,-1.2501,0.0,0.0,0.0,0.0,0.0,0.0,0.0,0.0,0.0,0.0,0.0,0.0,0.0,0.0,0.0,0.0,0.0,0.0,0.0,0.0,0.0,0.0,0.0,0.0,0.0,0.0,0.0,0.0,0.0,0.0,0.0,0.0,0.0,-3.3789,0.0,-3.4609,0.0,0.0,0.0,0.0,0.0,0.0,0.0,0.0,0.0,0.0,0.0,0.0,0.0,0.0,0.0,0.0,0.0,0.0,-1.6665,-1.6022,-1.669,-1.7694,-1.8036,-1.8765,-2.016,-2.2632,-2.4499,-2.5846,-2.6413,-2.6268,-2.5961,-2.6262,-2.6719,-2.6921,-2.6493,-2.6413,-2.599,-2.4409,-2.3297,-2.1783,-1.9569,-1.7417,-1.5622,-1.4525,-1.3518,-1.2854,-1.2854,-1.2786,-1.2678,-1.2528,-1.2522,-1.2454,-1.2298,-1.2223,-1.2216,-1.2291,-1.2142,-1.2067,-1.2074,-1.1993,-1.1918,-1.185,-1.185,-1.185,-1.1857,-1.1999,-1.206,-1.221,-1.1986,-1.204,-1.2176,-1.2101,-1.2162,-1.2443,-1.3332,-1.3635,-1.3793,-1.4773,-1.5109,-1.5269,0.0,0.0,0.0,0.0,0.0,0.0,0.0,0.0,0.0,0.0,0.0,0.0,0.0,0.0,0.0,0.0,0.0,0.0,0.0,0.0,0.0,0.0,0.0,0.0,0.0,0.0,0.0,0.0,0.0,0.0,0.0,0.0,0.0,-3.4219,0.0,0.0,0.0,0.0,0.0,0.0,0.0,0.0,0.0,0.0,0.0,0.0,0.0,0.0,0.0,0.0,0.0,0.0,0.0,0.0,-1.5985,-1.5894,-1.5783,-1.6056,-1.745,-1.8468,-2.0177,-2.3821,-2.5585,-2.6122,-2.5816,-2.5544,-2.5361,-2.5146,-2.5674,-2.6096,-2.5959,-2.5879,-2.5798,-2.5558,-2.3907,-2.2627,-2.2306,-1.9108,-1.672,-1.6416,-1.4399,-1.3078,-1.3078,-1.2649,-1.2379,-1.2257,-1.225,-1.2196,-1.2067,-1.204,-1.2033,-1.206,-1.2013,-1.1938,-1.1837,-1.1782,-1.1694,-1.1579,-1.1552,-1.1538,-1.1552,-1.1823,-1.1959,-1.1979,-1.185,-1.1877,-1.2013,-1.1884,-1.2065,-1.2799,-1.4252,-1.5129,-1.5588,-1.7379,-1.806,-1.812,0.0,0.0,0.0,0.0,0.0,0.0,0.0,0.0,0.0,0.0,0.0,0.0,0.0,0.0,0.0,0.0,0.0,0.0,0.0,0.0,0.0,0.0,0.0,0.0,0.0,0.0,0.0,0.0,0.0,0.0,0.0,0.0,0.0,0.0,0.0,0.0,0.0,0.0,0.0,0.0,0.0,0.0,0.0,0.0,0.0,0.0,0.0,0.0,0.0,0.0,-1.7582,0.0,0.0,0.0,-1.6733,-1.5972,-1.5835,-1.6209,-1.7881,-2.0289,-2.2722,-2.4644,-2.55,-2.5845,-2.5585,-2.5418,-2.5119,-2.4714,-2.5086,-2.533,-2.5585,-2.5571,-2.5558,-2.5518,-2.4987,-2.4047,-2.2341,-2.1199,-1.9872,-1.8071,-1.5949,-1.4654,-1.4654,-1.3162,-1.2115,-1.2094,-1.2094,-1.2081,-1.206,-1.1932,-1.1925,-1.206,-1.1809,-1.1728,-1.183,-1.1579,-1.1436,-1.1416,-1.1287,-1.1226,-1.1226,-1.1402,-1.1552,-1.1681,-1.1653,-1.1728,-1.1857,-1.1837,-1.2934,-1.4547,-1.4834,-1.5856,-1.7331,-1.7653,-1.793,-1.809,0.0,0.0,0.0,0.0,0.0,0.0,0.0,0.0,0.0,0.0,0.0,0.0,0.0,0.0,0.0,0.0,0.0,0.0,0.0,0.0,0.0,0.0,0.0,0.0,0.0,0.0,0.0,0.0,0.0,0.0,0.0,-3.1847,-3.2988,0.0,0.0,0.0,0.0,0.0,0.0,0.0,0.0,0.0,0.0,0.0,0.0,0.0,0.0,0.0,0.0,0.0,-1.8199,-1.7515,-1.7088,0.0,0.0,0.0,-1.5945,-1.5944,-1.6733,-1.9361,-2.2345,-2.4355,-2.5034,-2.512,-2.4958,-2.4783,-2.4502,-2.4235,-2.4356,-2.4422,-2.4743,-2.4917,-2.5024,-2.5024,-2.4783,-2.4288,-2.3375,-2.1836,-2.0508,-1.9492,-1.6519,-1.4491,-1.439,-1.282,-1.1687,-1.1687,-1.1687,-1.1687,-1.1687,-1.1619,-1.1613,-1.1681,-1.1558,-1.1525,-1.1586,-1.1369,-1.126,-1.1121,-1.1192,-1.1158,-1.1158,-1.219,-1.2315,-1.1497,-1.1586,-1.1653,-1.1714,-1.1714,-1.2894,-1.4669,-1.5821,-1.7398,-1.9129,-2.0414,-2.0983,-2.109,0.0,0.0,0.0,0.0,0.0,0.0,0.0,0.0,0.0,0.0,0.0,0.0,0.0,0.0,0.0,0.0,0.0,0.0,0.0,0.0,0.0,0.0,0.0,0.0,0.0,0.0,0.0,0.0,0.0,0.0,-3.0251,-3.1577,-3.3,0.0,-3.3262,0.0,0.0,0.0,0.0,0.0,0.0,0.0,0.0,0.0,0.0,0.0,0.0,0.0,0.0,0.0,-1.8603,-1.8025,-1.7244,-1.6887,0.0,0.0,0.0,-1.5806,-1.5846,-1.8364,-2.1505,-2.3254,-2.3787,-2.3924,-2.4079,-2.3977,-2.3808,-2.3581,-2.3541,-2.3634,-2.3928,-2.4222,-2.4422,-2.4422,-2.4235,-2.4102,-2.4102,-2.2519,-2.1221,-2.0943,-1.7861,-1.5402,-1.4795,-1.299,-1.1888,-1.1335,-1.1335,-1.1335,-1.1335,-1.1335,-1.1608,-1.2021,-1.2021,-1.216,-1.2711,-1.2138,-1.1495,-1.0906,-1.1453,-1.1718,-1.1582,-1.351,-1.3746,-1.2519,-1.227,-1.223,-1.2123,-1.1701,-1.2993,-1.5274,-1.6685,-1.8659,-2.1069,-2.2558,-2.326,-2.3367,0.0,0.0,0.0,0.0,0.0,0.0,0.0,0.0,0.0,0.0,0.0,0.0,0.0,0.0,0.0,0.0,0.0,0.0,0.0,0.0,0.0,0.0,0.0,0.0,0.0,0.0,0.0,0.0,0.0,0.0,-3.0888,-3.1827,-3.3989,-3.7012,-3.5121,-3.3681,-3.2617,0.0,0.0,0.0,0.0,0.0,0.0,0.0,0.0,0.0,0.0,0.0,0.0,0.0,-1.8499,-1.9214,-1.7305,-1.6714,-1.6593,0.0,0.0,0.0,-1.5769,-1.8387,-2.1119,-2.1292,-2.1754,-2.235,-2.2822,-2.3025,-2.2926,-2.2913,-2.2913,-2.3006,-2.3313,-2.3621,-2.3808,-2.3808,-2.3808,-2.3794,-2.3794,-2.3386,-2.3094,-2.2775,-2.0674,-1.863,-1.6621,-1.4701,-1.294,-1.131,-1.1172,-1.1172,-1.1172,-1.1172,-1.1993,-1.3617,-1.3617,-1.4428,-1.6185,-1.4244,-1.2476,-1.0744,-1.2437,-1.3218,-1.3227,-1.512,-1.5879,-1.5766,-1.4367,-1.3733,-1.376,-1.2093,-1.3584,-1.7107,-1.7107,-1.9495,-2.2722,-2.2873,-2.3073,-2.3327,0.0,0.0,0.0,0.0,0.0,0.0,0.0,0.0,0.0,0.0,0.0,0.0,0.0,0.0,0.0,0.0,0.0,0.0,0.0,0.0,0.0,0.0,0.0,0.0,0.0,0.0,0.0,0.0,0.0,-2.8492,-3.0405,-3.3236,-3.4639,-3.4701,-3.3293,-3.2867,-3.3066,-3.0937,0.0,0.0,0.0,0.0,0.0,0.0,0.0,0.0,0.0,0.0,-2.0659,0.0,-1.9819,-2.0413,-1.758,-1.7285,-1.7654,-1.6184,-1.5832,-1.5813,-1.5771,-1.6742,-1.7846,-1.87,-1.9807,-2.0916,-2.0961,-2.1673,-2.2245,-2.2203,-2.2324,-2.2633,-2.2916,-2.3336,-2.3554,-2.3741,-2.3607,-2.342,-2.322,-2.2926,-2.2565,-2.2084,-2.0435,-1.88,-1.7893,-1.5233,-1.3311,-1.2759,-1.1603,-1.1454,-1.2624,-1.2632,-1.3435,-1.5166,-1.53,-1.55,-1.6024,-1.542,-1.4688,-1.4101,-1.4623,-1.5005,-1.5014,-1.6785,-1.7607,-1.7607,-1.7032,-1.6358,-1.5484,-1.5063,-1.6402,-1.8716,-1.901,-2.0617,-2.2859,-2.2859,-2.2939,-2.3033,0.0,0.0,0.0,0.0,0.0,0.0,0.0,0.0,0.0,0.0,0.0,0.0,0.0,0.0,0.0,0.0,0.0,0.0,0.0,0.0,0.0,0.0,0.0,0.0,0.0,0.0,0.0,0.0,0.0,0.0,0.0,-3.2431,-3.3653,-3.2936,-3.1468,-3.2016,0.0,0.0,0.0,-3.0059,0.0,0.0,-2.828,0.0,0.0,0.0,0.0,-2.36,-2.2029,-2.0554,-2.0958,-2.1562,-1.8323,-1.7612,-1.7609,-1.6252,-1.5832,-1.5843,-1.5767,-1.5821,-1.6226,-1.7844,-1.8748,-1.9364,-1.9706,-2.0407,-2.1136,-2.1243,-2.1625,-2.2051,-2.2545,-2.2781,-2.2939,-2.3292,-2.3157,-2.2819,-2.2605,-2.2392,-2.2098,-2.1617,-2.0618,-1.9455,-1.8536,-1.6431,-1.4548,-1.3502,-1.2219,-1.2071,-1.3369,-1.3378,-1.4563,-1.6802,-1.7456,-1.751,-1.6818,-1.6818,-1.6431,-1.5913,-1.6431,-1.6818,-1.6818,-1.864,-1.9419,-1.9419,-1.9419,-1.8487,-1.7149,-1.6756,-1.7727,-1.9687,-1.9863,-2.1096,-2.2859,-2.2859,-2.2859,-2.2859,0.0,0.0,0.0,0.0,0.0,0.0,0.0,0.0,0.0,0.0,0.0,0.0,0.0,0.0,0.0,0.0,0.0,0.0,0.0,0.0,0.0,0.0,0.0,0.0,0.0,0.0,0.0,0.0,0.0,0.0,0.0,0.0,-3.0784,-3.2115,-3.0135,-3.1495,-3.5195,0.0,-3.3086,-3.248,0.0,-2.8365,-2.8537,0.0,0.0,0.0,-2.6879,-2.6811,-2.6767,-2.2434,-2.197,-2.2602,-1.9465,-1.7485,-1.6219,-1.5912,-1.5832,-1.5832,0.0,0.0,0.0,-1.8708,-1.8397,-1.7882,-1.9105,-1.9319,-1.9586,-2.0305,-2.0855,-2.1256,-2.1844,-2.1951,-2.2096,-2.2254,-2.2268,-2.2268,-2.1977,-2.1977,-2.1871,-2.1577,-2.1537,-2.076,-1.8792,-1.8512,-1.7087,-1.3709,-1.3456,-1.3456,-1.3456,-1.3456,-1.5135,-1.8512,-2.0195,-2.0322,-1.864,-1.864,-1.7731,-1.6043,-1.7731,-1.864,-1.864,-2.0322,-2.1109,-2.1109,-2.1109,-2.0221,-1.8626,-1.6918,-1.7583,-1.9652,-1.9663,-2.0935,-2.2859,-2.2859,-2.2859,-2.2859,0.0,0.0,0.0,0.0,0.0,0.0,0.0,0.0,0.0,0.0,0.0,0.0,0.0,0.0,0.0,0.0,0.0,0.0,0.0,0.0,0.0,0.0,0.0,0.0,0.0,0.0,0.0,0.0,0.0,0.0,0.0,0.0,0.0,0.0,-3.1309,-3.1822,-3.248,-3.0859,0.0,-3.123,-2.9141,-2.8836,0.0,0.0,0.0,0.0,0.0,-2.6464,-2.6082,-2.2872,-2.3756,-2.5393,-2.0756,-1.798,-1.6219,-1.5912,-1.5832,-1.5832,-1.5832,0.0,0.0,0.0,0.0,0.0,-1.7822,-1.8263,-1.8978,-1.9577,-2.0488,-2.1174,-2.1352,-2.1356,-2.1349,-2.1363,-2.1854,-2.2055,-2.1997,-2.197,-2.1849,-2.1269,-2.1229,-2.1062,-2.0462,-1.9291,-1.8116,-1.7076,-1.5913,-1.5784,-1.6947,-1.8244,-1.9419,-2.0322,-2.0856,-2.0843,-2.0322,-2.0322,-2.0195,-1.9674,-2.0195,-2.0322,-2.0462,-2.0856,-2.1109,-2.1109,-2.1109,-2.0895,-2.0464,-2.014,-2.056,-2.1314,-2.1507,-2.2185,-2.2859,-2.2859,-2.2859,-2.2859,0.0,0.0,0.0,0.0,0.0,0.0,0.0,0.0,0.0,0.0,0.0,0.0,0.0,0.0,0.0,0.0,0.0,0.0,0.0,0.0,0.0,0.0,0.0,0.0,0.0,0.0,0.0,0.0,0.0,0.0,0.0,0.0,0.0,0.0,0.0,0.0,0.0,0.0,0.0,0.0,-2.9375,0.0,0.0,-2.9726,-2.918,0.0,0.0,-2.822,-2.7791,-2.4858,-2.5502,-2.6522,-2.1595,-1.9085,-1.7753,-1.64,-1.6069,-1.6006,-1.6072,-1.6112,-1.6259,-1.6454,0.0,0.0,-1.6941,-1.7041,-1.7318,-1.7981,-1.9166,-2.0298,-2.0928,-2.1119,-2.1163,-2.1148,-2.1416,-2.1571,-2.1659,-2.1646,-2.1451,-2.1136,-2.0989,-2.0975,-2.1096,-2.0093,-1.9169,-1.85,-1.7602,-1.7429,-1.8221,-2.0131,-2.1056,-2.0935,-2.1042,-2.1109,-2.1109,-2.1109,-2.1109,-2.1109,-2.1109,-2.1109,-2.1109,-2.1109,-2.1109,-2.1109,-2.1109,-2.1109,-2.1122,-2.1296,-2.1617,-2.2004,-2.2178,-2.2498,-2.2859,-2.2859,-2.2859,-2.2859,0.0,0.0,0.0,0.0,0.0,0.0,0.0,0.0,0.0,0.0,0.0,0.0,0.0,0.0,0.0,0.0,0.0,0.0,0.0,0.0,0.0,0.0,0.0,0.0,0.0,0.0,0.0,0.0,0.0,0.0,0.0,0.0,0.0,0.0,0.0,0.0,0.0,0.0,0.0,-3.0605,-2.9922,-3.043,0.0,0.0,-3.1269,-3.1543,-3.1113,-3.0957,-3.0529,-2.7956,-2.717,-2.6503,-2.2391,-2.074,-1.9896,-1.7399,-1.67,-1.6623,-1.6837,-1.6905,-1.715,-1.7701,-1.7055,0.0,-1.6567,-1.6012,-1.5579,-1.6291,-1.7423,-1.8755,-2.0442,-2.0684,-2.0781,-2.0911,-2.0971,-2.1148,-2.1069,-2.1109,-2.1096,-2.1069,-2.0828,-2.0624,-2.0989,-2.0775,-2.0112,-1.8836,-1.8756,-1.8649,-1.8399,-2.0042,-2.0975,-2.0681,-2.0962,-2.1109,-2.1109,-2.1109,-2.1109,-2.1109,-2.1109,-2.1109,-2.1109,-2.1109,-2.1109,-2.1109,-2.1109,-2.1109,-2.1109,-2.1109,-2.1443,-2.1937,-2.1977,-2.2325,-2.2819,-2.2846,-2.2859,-2.2859,0.0,0.0,0.0,0.0,0.0,0.0,0.0,0.0,0.0,0.0,0.0,0.0,0.0,0.0,0.0,0.0,0.0,0.0,0.0,0.0,0.0,0.0,0.0,0.0,0.0,0.0,0.0,0.0,0.0,0.0,0.0,0.0,0.0,0.0,0.0,0.0,0.0,0.0,0.0,-2.9355,-2.9863,-3.0859,-3.2031,-3.1953,-3.1973,-3.1992,-3.1543,-3.1406,-3.1269,-3.0353,-2.8201,-2.5739,-2.4526,-2.2739,-2.0813,-1.9532,-1.8657,-1.8338,-1.9517,-1.9433,-1.9241,-1.9483,-1.9305,0.0,-1.6483,-1.6215,-1.6434,-1.6653,-1.6497,-1.6858,-1.8424,-1.8529,-1.8557,-1.9533,-2.052,-2.1067,-2.1042,-2.1109,-2.1155,-2.1078,-2.0997,-2.0752,-2.0156,-2.0361,-2.0454,-2.0224,-2.0459,-2.0472,-2.0185,-2.0823,-2.0975,-2.0681,-2.0962,-2.1109,-2.1109,-2.1109,-2.1109,-2.1109,-2.1109,-2.1109,-2.1109,-2.1109,-2.1109,-2.1109,-2.1109,-2.1109,-2.1109,-2.1109,-2.1323,-2.1657,-2.1897,-2.2205,-2.2539,-2.2779,-2.2859,-2.2859,0.0,0.0,0.0,0.0,0.0,0.0,0.0,0.0,0.0,0.0,0.0,0.0,0.0,0.0,0.0,0.0,0.0,0.0,0.0,0.0,0.0,0.0,0.0,0.0,0.0,0.0,0.0,0.0,0.0,0.0,0.0,0.0,0.0,0.0,0.0,0.0,0.0,0.0,-2.873,-2.9004,-2.9863,0.0,-3.1836,-3.1836,-3.2109,-3.2402,-3.1758,-3.1387,-3.1074,-3.0195,-2.8991,-2.7438,-2.5308,-2.4439,-2.3857,-2.2038,-2.1242,-2.1012,-2.1474,-2.1718,-2.1824,-2.1571,-2.0452,0.0,0.0,-1.6718,-1.6099,-1.6233,-1.6045,-1.6047,-1.6873,-1.7219,-1.778,-1.9118,-1.932,-1.9506,-2.0125,-2.0257,-2.0204,-2.0196,-2.0199,-2.0106,-1.9958,-2.0094,-2.0268,-2.0428,-2.0588,-2.0548,-2.0254,-2.0521,-2.0535,-2.0254,-2.0521,-2.0748,-2.0895,-2.0895,-2.0962,-2.1109,-2.1109,-2.1109,-2.1109,-2.1109,-2.1109,-2.1109,-2.1109,-2.1109,-2.1109,-2.1109,-2.1203,-2.1363,-2.1657,-2.1951,-2.2245,-2.2525,-2.2645,-2.2659,0.0,0.0,0.0,0.0,0.0,0.0,0.0,0.0,0.0,0.0,0.0,0.0,0.0,0.0,0.0,0.0,0.0,0.0,0.0,0.0,0.0,0.0,0.0,-2.8379,0.0,0.0,0.0,0.0,0.0,0.0,0.0,0.0,0.0,0.0,0.0,0.0,0.0,0.0,0.0,-2.9101,-2.9805,-3.0605,-3.1426,-3.168,-3.2148,-3.2578,-3.1797,-3.125,-3.0723,-2.9668,-2.9575,-2.9447,-2.643,-2.6334,-2.7009,-2.4568,-2.3928,-2.3837,-2.3487,-2.3931,-2.4417,-2.3668,-2.194,-2.0142,0.0,0.0,0.0,-1.6183,-1.6021,-1.5787,-1.5853,-1.6403,-1.7211,-1.8713,-1.8252,-1.7968,-1.8593,-1.8877,-1.9099,-1.9318,-1.9207,-1.9194,-1.9681,-1.9641,-1.9746,-2.004,-2.012,-2.0054,-1.9813,-2.0067,-2.0094,-1.9813,-2.008,-2.0347,-2.0588,-2.0641,-2.0802,-2.1029,-2.1082,-2.1109,-2.1109,-2.1109,-2.1109,-2.1109,-2.1109,-2.1109,-2.1109,-2.1109,-2.1109,-2.1136,-2.1443,-2.1697,-2.1951,-2.2298,-2.2418,-2.2458,-2.8848,-2.9277,0.0,0.0,0.0,0.0,0.0,0.0,0.0,0.0,0.0,0.0,0.0,0.0,0.0,0.0,0.0,0.0,-3.2871,0.0,0.0,0.0,0.0,0.0,-2.7246,0.0,0.0,0.0,0.0,0.0,0.0,0.0,0.0,0.0,-2.6328,0.0,0.0,0.0,-2.8066,-2.9512,-2.9609,-3.0176,-3.1094,-3.2226,-3.248,-3.2168,-3.168,-3.125,-3.0859,-3.0723,-3.0449,-3.0137,-2.9618,-2.892,-2.7975,-2.7046,-2.6385,-2.5898,-2.6619,-2.678,-2.6569,-2.5303,-2.4772,-2.3825,-2.0712,0.0,-1.8052,-1.7616,0.0,-1.5925,-1.6149,0.0,0.0,-1.7118,-1.7955,-1.7873,-1.6442,-1.7186,-1.8177,-1.9325,-1.8499,-1.8079,-1.8884,-1.8924,-1.9145,-1.9439,-1.9706,-1.984,-1.98,-2.0067,-2.0094,-1.9813,-2.008,-2.0254,-2.0281,-2.0548,-2.0695,-2.0722,-2.0989,-2.1109,-2.1109,-2.1109,-2.1109,-2.1109,-2.1109,-2.1109,-2.1109,-2.1109,-2.1109,-2.1136,-2.1443,-2.1577,-2.167,-2.2218,-2.2418,-2.2458,-2.8789,-2.9277,0.0,0.0,0.0,0.0,0.0,0.0,0.0,0.0,0.0,0.0,0.0,0.0,0.0,0.0,0.0,-3.2676,0.0,0.0,0.0,0.0,-2.8691,-2.8613,-2.8496,0.0,0.0,0.0,-2.8418,0.0,0.0,0.0,0.0,0.0,-2.6523,-2.6875,-2.7559,-2.7695,-2.8164,-2.8887,-2.9629,-3.0019,-3.0293,-3.1836,-3.2324,-3.2109,-3.168,-3.125,-3.0781,-3.0,-3.0137,-3.0469,-2.9687,-2.9609,-2.9692,-2.9203,-2.8577,-2.8179,-2.8539,-2.8293,-2.7801,-2.7454,-2.6082,-2.444,-2.2708,-2.0795,-1.9129,-1.8123,0.0,0.0,0.0,0.0,0.0,0.0,-1.682,-1.7225,-1.6855,-1.6729,-1.6691,-1.7241,-1.745,-1.7742,-1.8116,-1.8303,-1.8397,-1.833,-1.8897,-1.9166,-1.8911,-1.9448,-1.9636,-1.9546,-1.9666,-1.9681,-1.9721,-1.9839,-2.0199,-2.0681,-2.0802,-2.0949,-2.1109,-2.1109,-2.1109,-2.1109,-2.1109,-2.1109,-2.1109,-2.1109,-2.1109,-2.1122,-2.1243,-2.1296,-2.1363,-2.1951,-2.2164,-2.2364,-2.8613,0.0,0.0,0.0,0.0,0.0,0.0,0.0,0.0,0.0,0.0,0.0,-3.998,-3.8789,0.0,0.0,-3.5879,-3.4277,0.0,0.0,-3.0508,-2.9277,-2.9141,-2.9023,0.0,0.0,0.0,0.0,0.0,0.0,0.0,0.0,0.0,0.0,0.0,-2.7148,-2.7422,-2.8144,-2.8672,-2.9062,-2.9883,-3.0156,-3.0234,-3.1387,-3.1894,-3.1934,-3.1504,-3.1152,-3.0742,-2.9785,-3.0098,0.0,-2.9766,-3.0117,-3.0801,-3.0332,-3.0078,-2.9902,-2.9785,-2.9375,-2.8965,-2.8789,-2.7065,-2.5136,-2.4393,-2.2636,-2.0836,-1.9686,-1.8966,0.0,0.0,0.0,-1.6308,-1.6199,0.0,-1.6796,-1.7235,-1.654,-1.5888,-1.5849,-1.6881,-1.7437,-1.7121,-1.7424,-1.7623,-1.7595,-1.8037,-1.8196,-1.8247,-1.9027,-1.9453,-1.9367,-1.9448,-1.9452,-1.9417,-1.9365,-1.9773,-2.0411,-2.0641,-2.0967,-2.1109,-2.1109,-2.1109,-2.1109,-2.1109,-2.1109,-2.1109,-2.1109,-2.1109,-2.1109,-2.1109,-2.1362,-2.1795,-2.2531,-2.2752,-2.3098,-2.8223,-2.8652,0.0,0.0,0.0,0.0,0.0,0.0,0.0,0.0,0.0,0.0,0.0,0.0,0.0,0.0,0.0,-3.5508,-3.5859,0.0,-3.0547,-2.8418,-2.9121,-2.8769,0.0,0.0,0.0,0.0,0.0,0.0,0.0,0.0,0.0,0.0,-2.6836,-2.748,-2.8281,-2.8711,-2.9629,-3.0762,-3.0351,-3.0703,-3.1406,-3.1074,-3.1191,-3.1484,-3.1055,0.0,0.0,-3.084,-3.0859,0.0,0.0,0.0,-3.0801,-3.0332,-3.0508,-3.0762,-3.0293,0.0,-3.041,-2.873,-2.7969,-2.7168,-2.5469,-2.4388,-2.3619,-2.3123,-2.1626,-2.0256,-1.9731,-1.8561,0.0,0.0,-1.7114,0.0,0.0,-1.646,-1.6255,-1.5842,-1.6871,-1.7121,-1.6022,-1.6356,-1.6937,-1.7555,-1.7094,-1.7317,-1.8401,-1.9098,-1.9403,-1.9439,-1.9354,-1.9372,-1.9386,-1.9391,-1.9416,-1.9434,-2.0548,-2.1105,-2.1109,-2.1109,-2.1109,-2.1109,-2.1109,-2.1109,-2.1109,-2.1109,-2.1109,-2.1109,-2.1109,-2.209,-2.3649,-2.4291,-2.4531,-2.4879,0.0,0.0,0.0,0.0,0.0,0.0,0.0,-3.5199,0.0,0.0,-3.952,0.0,0.0,-4.2285,-4.1933,0.0,0.0,-3.8476,-3.7754,-3.5703,0.0,-3.2598,-3.2539,-3.1738,0.0,0.0,0.0,0.0,0.0,0.0,0.0,0.0,0.0,0.0,0.0,-2.748,-2.834,-2.9043,-2.9609,-3.0019,-3.0156,-3.0898,-3.1875,0.0,-3.1152,-3.1465,-3.1035,-3.0898,0.0,-3.0898,-3.0898,-3.0898,-3.0898,-3.0898,-3.0859,-3.0703,-3.0762,-3.0859,0.0,0.0,-3.0605,-2.9434,0.0,0.0,-2.6269,-2.5739,-2.5131,-2.3542,-2.322,-2.2484,-2.0189,-1.942,0.0,0.0,-1.6981,-1.664,0.0,-1.6042,-1.5945,-1.5857,-1.6487,-1.6819,-1.6424,-1.6507,-1.65,-1.6446,-1.646,-1.6596,-1.669,-1.7702,-1.8577,-1.9389,-1.9374,-1.9372,-1.9372,-1.9452,-1.9365,-1.9421,-2.0199,-2.0655,-2.1109,-2.1109,-2.1109,-2.1109,-2.1109,-2.1109,-2.1109,-2.1109,-2.1109,-2.1235,-2.2341,-2.3076,-2.3634,-2.4052,-2.5119,-2.6552,-2.9121,0.0,0.0,0.0,0.0,0.0,0.0,0.0,0.0,0.0,-4.0518,0.0,-4.457,0.0,-4.3965,0.0,-4.2715,-4.1016,-3.8945,-3.793,0.0,-3.4785,-3.4434,-3.3496,0.0,0.0,0.0,0.0,0.0,-2.8672,0.0,0.0,0.0,0.0,0.0,-2.7988,-2.8164,-2.9648,-3.0078,-2.9824,-3.0273,-3.0957,-3.166,0.0,-3.125,-3.168,0.0,-3.0898,-3.0898,-3.0898,-3.0898,-3.0898,-3.0898,-3.0898,-3.0859,-3.0703,-3.0762,-3.0859,-3.0684,-3.0762,0.0,-2.9785,-2.916,0.0,-2.7129,0.0,-2.6827,-2.5239,-2.4977,-2.4421,-2.212,-2.0588,-1.9255,-1.8156,-1.7475,-1.6693,0.0,-1.5843,-1.579,-1.577,-1.6188,-1.6576,-1.694,-1.6486,-1.6064,-1.5813,-1.6025,-1.6098,-1.5767,-1.6925,-1.8144,-1.9332,-1.9394,-1.9372,-1.9372,-1.9452,-1.9365,-1.9421,-2.0199,-2.0779,-2.1109,-2.1109,-2.1109,-2.1109,-2.1109,-2.1109,-2.1109,-2.1109,-2.1475,-2.209,-2.3201,-2.4301,-2.5317,-2.567,-2.7236,-2.9403,0.0,0.0,0.0,0.0,-3.0684,0.0,0.0,0.0,-3.7827,0.0,-4.1742,-4.291,-4.5527,-4.5058,-4.4883,-4.5703,-4.4941,-4.3027,-3.9707,-3.9805,0.0,0.0,-3.498,-3.4141,-3.2402,0.0,0.0,0.0,0.0,0.0,0.0,0.0,0.0,0.0,-2.8789,-2.8848,-2.7832,-3.0371,-3.0976,-3.0234,-3.0703,-3.0918,-3.0957,-3.0918,-3.1426,-3.2051,-3.1191,-3.0898,-3.0898,-3.0898,-3.0898,-3.0898,-3.0898,-3.0898,-3.0801,-3.0351,-3.0547,-3.0801,-3.0351,-3.0547,-3.0684,-2.9824,-2.959,0.0,0.0,0.0,-2.8672,-2.7832,-2.6933,-2.6056,-2.5392,-2.2148,-1.9584,-1.945,-1.8426,-1.7161,-1.5912,-1.5832,-1.5832,-1.5845,-1.5797,-1.6234,-1.7468,-1.656,-1.578,-1.583,-1.5774,-1.5843,-1.5791,-1.6959,-1.8075,-1.9254,-1.9398,-1.9359,-1.9372,-1.9377,-1.9389,-1.9555,-2.0521,-2.1091,-2.1096,-2.1096,-2.1235,-2.1642,-2.1362,-2.1362,-2.1362,-2.1362,-2.2341,-2.3698,-2.3822,-2.5774,-2.8618,-2.9016,-3.0794,-3.2851,-2.9726,-3.0254,-3.0996,0.0,-3.125,-3.178,0.0,0.0,0.0,0.0,-4.2958,-4.4707,-4.7285,-4.709,-4.6855,-4.707,-4.5723,0.0,0.0,0.0,0.0,-3.957,-3.8906,-3.7461,-3.5078,-3.4824,-3.3672,-3.1504,0.0,0.0,-2.9394,0.0,0.0,0.0,0.0,-2.8555,-2.7793,-2.9726,-3.041,-3.0234,-3.0703,-3.1269,-3.1777,0.0,-3.1426,-3.2051,-3.1191,-3.0898,-3.0898,-3.0898,-3.0898,-3.0898,-3.0898,-3.0898,-3.0859,-3.0742,-3.0801,-3.0859,-3.0742,-3.0801,-3.0762,-3.0176,-2.9805,-2.9316,0.0,0.0,0.0,0.0,0.0,0.0,0.0,0.0,-2.1354,-2.0638,-1.8369,-1.6481,-1.5885,-1.5832,-1.5912,-1.6126,-1.5953,-1.6286,-1.7505,-1.6481,-1.5817,-1.5761,-1.5777,-1.5763,-1.583,-1.6325,-1.7277,-1.842,-1.9084,-1.9401,-1.9359,-1.9426,-1.9865,-2.0659,-2.0997,-2.1081,-2.1091,-2.1091,-2.3713,-2.8219,-2.5798,-2.521,-2.5814,-2.5056,-2.5008,-2.5497,-2.6712,-2.8607,-3.0773,-3.1213,-3.1957,-3.2851,-3.0527,0.0,0.0,-3.293,0.0,0.0,-3.5234,-3.6269,0.0,-4.1367,-4.332,0.0,-4.6641,-4.7109,-4.7285,-4.7285,-4.625,0.0,-4.4492,0.0,0.0,-4.1211,-4.0351,-3.8848,-3.6621,-3.5976,-3.4609,-3.2441,-3.1133,0.0,-2.9824,0.0,0.0,0.0,0.0,-2.873,-2.8047,-2.9551,-3.043,-3.0781,-3.0859,-3.1172,0.0,-3.1074,-3.1191,-3.1543,-3.1074,-3.0898,-3.0898,-3.0898,-3.0898,-3.0898,-3.0898,-3.0898,-3.0898,-3.0898,-3.0898,-3.0898,-3.0898,-3.0898,-3.0781,-3.0312,-3.0019,-2.9609,-2.8769,-2.875,-2.873,0.0,-2.8125,-2.7806,0.0,0.0,-2.298,-2.048,-1.7905,-1.6032,-1.5845,-1.5832,-1.5885,-1.6059,-1.6192,-1.6483,-1.6728,-1.6209,-1.5822,-1.575,-1.5952,-1.5965,-1.5832,-1.6553,-1.7291,-1.7939,-1.8834,-1.9456,-1.9372,-1.9601,-1.9893,-2.0375,-2.0808,-2.2646,-2.5342,-2.5338,-2.7381,-3.0728,-2.7922,-2.702,-2.747,-2.6415,-2.647,-2.7211,-2.9104,-3.0553,-3.1855,-3.2285,-3.2598,-3.2851,0.0,-3.2754,0.0,0.0,0.0,0.0,0.0,-3.8164,0.0,-4.1816,0.0,-4.4883,-4.5312,-4.6308,-4.6914,-4.6855,-4.6465,-4.5547,-4.3984,-4.3711,-4.2969,-4.1484,-4.0547,-3.9277,-3.7578,-3.6601,-3.5098,-3.3047,-3.1601,-3.0644,-3.0176,0.0,0.0,0.0,-2.8945,-2.9043,-2.8359,-2.9531,-3.0469,-3.1152,-3.0898,-3.084,-3.0898,-3.0898,-3.0898,-3.0898,-3.0898,-3.0898,-3.0898,-3.0898,-3.0898,-3.0898,-3.0898,-3.0898,-3.0898,-3.0898,-3.0898,-3.0898,-3.0898,-3.084,-3.0684,-3.0234,-3.0117,-2.9883,-2.9023,-2.8887,-2.8809,-2.8379,-2.8242,-2.7941,0.0,0.0,-2.4181,-1.9782,-1.7413,-1.6035,-1.5885,-1.5858,-1.5845,-1.5885,-1.6746,0.0,-1.6021,-1.5893,-1.5822,-1.575,-1.6072,-1.6209,-1.5845,-1.6834,-1.7462,-1.7569,-1.8539,-1.9319,-1.9479,-1.9689,-1.9704,-1.9524,-2.141,-2.5402,-3.0953,-3.086,-3.0914,-3.0736,-2.8841,-2.8076,-2.7938,-2.7021,-2.7452,-2.8957,-3.0734,-3.1777,-3.2226,-3.2637,-3.2832,-3.293,-3.2637,-3.3906,-3.4844,0.0,0.0,-3.7851,-4.0137,-4.0859,-4.1797,-4.3691,-4.543,-4.666,-4.709,-4.7012,-4.6797,-4.6445,-4.6035,-4.5508,-4.4844,-4.3789,-4.3047,-4.2754,-4.1601,-4.0293,-3.8906,-3.7344,-3.584,-3.4375,-3.2031,-3.0644,-3.0176,0.0,0.0,0.0,-2.8633,-2.875,-2.834,-2.8906,-2.9238,-2.9434,-3.0059,-3.0547,-3.0898,-3.0898,-3.0898,-3.0898,-3.0898,-3.0898,-3.0898,-3.0898,-3.0898,-3.0898,-3.0898,-3.0898,-3.0898,-3.0898,-3.0898,-3.0898,-3.0898,-3.0605,-3.0215,-2.9785,-2.9687,-2.9453,-2.8594,-2.8672,-2.8809,-2.8379,-2.8027,-2.7734,-2.7532,0.0,0.0,-1.947,-1.8213,-1.7472,-1.6359,-1.5979,-1.5925,-1.6166,-1.7727,-1.8267,-1.6953,-1.6233,-1.5822,-1.575,-1.5885,-1.5885,-1.5832,-1.6259,-1.672,0.0,-1.765,-1.8594,0.0,0.0,-1.9691,-2.0103,-2.6315,-2.9745,-3.0963,-3.0882,-3.0953,-3.0937,-3.0488,-3.0332,-3.0332,-3.0157,-3.0157,-3.0547,-3.1229,-3.1777,-3.2226,-3.2637,-3.3008,-3.332,-3.4473,-3.5137,-3.5937,-3.6621,0.0,0.0,0.0,-4.3242,-4.3867,-4.4023,-4.4746,-4.5254,-4.5254,-4.5859,-4.6113,-4.5683,-4.5449,-4.5058,-4.4375,-4.3555,-4.2871,-4.2441,-4.1621,-4.0547,-3.9238,-3.7539,-3.6016,-3.4707,-3.1894,-3.041,0.0,0.0,-2.8379,-2.7988,-2.8184,-2.8535,-2.8945,0.0,0.0,-2.9609,-3.0019,-3.0469,-3.0898,-3.0898,-3.0898,-3.0859,-3.0625,-3.0527,-3.0566,-3.082,-3.0898,-3.0898,-3.0898,-3.0898,-3.0898,-3.0898,-3.0898,-3.0898,-3.0898,-3.0547,-3.0098,-2.9668,-2.9394,-2.9062,-2.8437,-2.8437,-2.8535,-2.834,-2.8125,-2.793,-2.7715,-2.5901,0.0,0.0,0.0,-1.8148,-1.6887,-1.6339,-1.6112,-1.6259,-1.7064,-1.7312,-1.6484,-1.6192,-1.6042,-1.5845,-1.6088,-1.6101,-1.5832,-1.6149,-1.6539,0.0,0.0,0.0,-2.0183,0.0,-2.1396,-2.2806,-2.6583,-2.921,-3.0863,-3.0914,-3.0918,-3.0898,-3.0898,-3.0898,-3.0898,-3.0898,-3.0898,-3.0957,-3.1601,-3.1992,-3.2246,-3.2891,-3.3242,-3.3418,-3.6348,-3.6562,-3.7266,-3.9043,-4.0234,-4.1523,-4.3301,-4.4687,-4.5195,-4.4258,-4.4121,-4.3965,-4.3535,-4.4707,-4.5332,-4.4785,-4.4746,-4.4375,-4.3496,-4.3047,-4.25,-4.1836,-4.1387,-4.0605,-3.9375,-3.7676,-3.6074,-3.457,-3.1816,-3.0293,-2.9902,-2.8906,-2.8281,0.0,0.0,0.0,0.0,0.0,-2.8848,-2.9941,-3.0019,-3.0391,-3.0879,-3.0781,-3.0742,-3.0684,-3.0234,-3.0059,-3.0117,-3.0488,-3.0664,-3.0742,-3.0742,-3.082,-3.0879,-3.0781,-3.082,-3.0859,-3.0664,-3.0351,-2.9961,-2.9531,-2.9101,-2.8691,-2.8359,-2.8301,-2.8301,-2.8301,-2.8301,-2.8164,-2.7754,-2.6009,0.0,0.0,0.0,-1.9216,-1.7719,-1.7484,-1.7148,-1.6677,-1.7106,-1.7133,-1.6602,-1.6759,-1.6512,-1.59,-1.6238,-1.6292,-1.5845,-1.6215,-1.6526,-1.6714,0.0,-1.8656,-2.0392,0.0,-2.2673,-2.4285,-2.6189,-2.8179,-3.0244,-3.0644,-3.0898,-3.0898,-3.0898,-3.0898,-3.0898,-3.0898,-3.0898,-3.0976,-3.1836,-3.2168,-3.2266,-3.3105,-3.3418,-3.3418,0.0,-3.8379,0.0,0.0,0.0,-4.2441,-4.3047,-4.4238,-4.5176,-4.5449,-4.5488,-4.5332,-4.4883,-4.498,-4.4746,-4.3906,-4.3828,-4.3457,-4.2598,-4.2148,-4.1875,-4.1797,-4.1387,-4.0742,-3.9844,-3.8125,-3.6211,-3.4141,-3.2285,-3.0586,-2.9043,-2.8906,0.0,0.0,0.0,0.0,0.0,-2.7422,-2.8242,-2.9062,-2.9473,-3.0137,-3.084,-3.043,-3.0254,-3.0195,-2.9785,-2.9629,-2.9629,-2.9687,-2.9941,-3.0254,-3.0254,-3.0547,-3.082,-3.0391,-3.0566,-3.0723,-2.9922,-2.9668,-2.9531,-2.9082,-2.8672,-2.834,-2.8301,-2.8301,-2.8301,-2.8301,-2.8301,-2.8164,-2.7754,-2.7143,-2.613,0.0,0.0,-2.1862,-1.8928,-1.9968,-2.0055,-1.7834,-1.9557,-2.0506,-1.932,-1.8534,-1.7494,-1.5912,-1.5859,-1.5858,-1.5832,-1.6139,-1.6249,-1.5922,-1.6497,-1.8184,-2.1033,-2.1107,-2.1257,-2.1502,-2.7518,-2.9554,-2.7961,-3.0001,-3.0898,-3.0898,-3.0898,-3.0898,-3.0898,-3.0898,-3.0898,-3.0976,-3.1836,-3.2168,-3.2266,-3.3105,-3.3418,-3.3418,0.0,0.0,0.0,0.0,0.0,0.0,0.0,-4.5078,-4.5391,-4.5293,-4.5293,-4.5117,-4.4687,-4.4394,-4.3984,-4.3379,-4.3086,-4.2676,-4.209,-4.1894,-4.168,-4.1426,-4.1269,-4.0781,-3.9922,-3.8437,-3.6621,-3.4453,-3.2734,-3.1152,-2.9668,0.0,0.0,0.0,0.0,-2.7363,-2.7559,-2.7891,-2.8535,-2.9355,-2.9766,-3.0332,-3.0859,-3.0684,-3.0605,-3.0527,-2.9824,-2.957,-2.9492,-2.8984,-2.9434,-3.0156,-2.9902,-3.0117,-3.0391,-2.9941,-3.0137,-3.0351,-2.9726,-2.957,-2.9473,-2.9023,-2.8613,-2.8301,-2.8301,-2.8301,-2.8301,-2.8301,-2.8301,-2.8242,-2.8066,-2.7695,-2.691,-2.5209,0.0,-2.305,-2.1378,-2.0426,-1.9638,-1.9051,-1.9304,-1.9272,-1.8458,-1.9191,-1.883,-1.6662,-1.6088,-1.5832,-1.5832,-1.5939,-1.6843,-1.8721,0.0,-1.7405,-2.0019,-2.0745,-2.1052,-2.1236,-2.7713,-3.0389,-2.9592,-3.049,-3.0898,-3.0898,-3.0898,-3.0898,-3.0898,-3.0898,-3.0898,-3.0976,-3.1657,-3.2007,-3.2266,-3.3105,-3.3418,-3.3544,-4.1211,0.0,-4.1465,0.0,-4.3476,-4.3711,-4.5254,-4.5371,-4.5137,-4.4687,-4.4629,-4.4473,-4.4062,-4.3711,-4.3301,-4.2754,-4.2422,-4.207,-4.1641,-4.1621,-4.1484,-4.1191,-4.1172,-4.0781,-3.9922,-3.8848,-3.7187,-3.4902,-3.3574,-3.2051,0.0,0.0,0.0,0.0,-2.7656,-2.7832,-2.8301,-2.8418,-2.8965,-2.9785,-3.0078,-3.0469,-3.0879,-3.0742,-3.0684,-3.0586,-2.9844,-2.9492,-2.9297,-2.8672,-2.9082,-2.9766,-2.9473,-2.9746,-3.0078,-2.9531,-2.9687,-2.9902,-2.9336,-2.9277,-2.9277,-2.8848,-2.8613,-2.8476,-2.8476,-2.8574,-2.8633,-2.8496,-2.8379,-2.8301,-2.8301,-2.8047,-2.7439,-2.6082,0.0,0.0,-2.3755,-2.1803,-2.0311,-1.9832,-2.0229,-1.9865,-1.838,-1.8843,-1.9145,-1.8819,-1.7294,-1.6361,-1.6305,-1.617,-1.7683,0.0,0.0,0.0,-2.2009,-2.2813,-2.2468,-2.1205,-2.7758,-3.095,-3.0898,-3.0898,-3.0898,-3.0898,-3.0898,-3.0898,-3.0898,-3.0898,-3.0957,-3.0976,-3.1378,-3.1745,-3.228,-3.3144,-3.3816,-3.4443,-4.2793,-4.3047,-4.3594,-4.5332,-4.5293,-4.5,-4.5039,-4.4687,-4.4258,-4.3789,-4.373,-4.3555,-4.3144,-4.3086,-4.2734,-4.1894,-4.1816,-4.1621,-4.1211,-4.1172,-4.1172,0.0,0.0,-4.0781,-3.9922,-3.9434,-3.793,-3.5391,-3.4902,0.0,-3.0859,0.0,-2.9101,-2.8301,-2.8711,-2.8672,-2.832,-2.873,-2.9414,-3.0195,-3.0195,-3.0469,-3.084,-3.0391,-3.0195,-3.0156,-2.9726,-2.9297,-2.8926,-2.8906,-2.8926,-2.8926,-2.8926,-2.9512,-3.0019,-2.918,-2.9238,-2.9394,-2.8535,-2.8613,-2.8828,-2.8398,-2.8613,-2.8906,-2.8906,-2.9238,-2.9434,-2.9004,-2.8574,-2.8301,-2.8301,-2.8281,-2.8133,-2.7452,0.0,0.0,-2.5809,-2.4908,-2.316,-1.9862,-2.3148,-2.3956,-1.9872,-1.7296,-1.7856,-2.2617,-1.9613,-1.762,-1.7582,0.0,0.0,-2.1987,-2.2571,0.0,-2.8186,-2.8236,-2.5795,-2.1205,-2.7783,-3.0856,-3.0898,-3.0898,-3.0898,-3.0898,-3.0898,-3.0898,-3.0898,-3.0898,-3.0839,-3.0911,-3.0876,-3.1436,-3.2343,-3.3097,-3.4713,-3.6508,-4.3359,-4.3496,-4.3789,-4.4648,-4.4687,-4.459,-4.459,-4.4492,-4.4355,-4.4199,-4.3906,-4.3555,-4.3125,-4.2812,-4.2402,0.0,-4.1543,-4.1308,0.0,-4.1172,-4.1172,-4.1172,-4.0879,-4.0469,-3.9902,-3.916,-3.7793,-3.582,0.0,0.0,0.0,-3.0273,-2.9531,-2.873,-2.918,-2.9453,-2.9609,-3.0078,-3.043,-3.0664,-3.0664,-3.0762,-3.0879,-3.0723,-3.0664,-3.0605,-3.0156,-2.9858,-2.9597,-2.9192,-2.8797,-2.8443,-2.8447,-2.8867,-2.9219,-2.8652,-2.8789,-2.9062,-2.8789,-2.9043,-2.9336,-2.9199,-2.9258,-2.9355,-2.9355,-2.9473,-2.9453,-2.9004,-2.8809,-2.8633,-2.834,-2.8301,-2.8133,-2.7452,-2.7199,0.0,-2.5031,-2.4083,-2.2502,-1.9792,-2.2115,-2.3434,-2.2039,-2.1266,-2.0702,-2.0644,-2.1107,-1.9886,0.0,0.0,0.0,0.0,-2.5245,0.0,-2.6513,-2.7715,-2.8173,-2.7852,-2.9922,-3.0837,-3.0898,-3.0898,-3.0898,-3.0898,-3.0898,-3.0898,-3.0898,-3.0898,-3.0957,-3.0996,-3.2194,-3.2407,-3.228,-3.3144,-3.4713,-3.6774,-4.4121,-4.4199,-4.4336,-4.4805,-4.4746,-4.457,-4.4414,-4.4394,-4.4336,-4.416,-4.3887,-4.3555,-4.3125,-4.2695,0.0,-4.1836,-4.1426,-4.1172,-4.1172,-4.1172,-4.1172,-4.1172,-4.0762,-4.0332,-3.9902,-3.918,0.0,-3.6738,-3.584,-3.418,-3.1836,-3.1387,-3.0723,-2.9902,-3.0176,-3.0351,-3.0469,-3.0762,-3.0898,-3.0898,-3.0898,-3.0898,-3.0898,-3.0898,-3.0898,-3.0859,-3.0566,-3.0211,-2.9813,-2.9557,-2.8965,-2.8339,-2.8252,-2.8447,-2.868,-2.8398,-2.8594,-2.8926,-2.8926,-2.9238,-2.957,-2.957,-2.9687,-2.9844,-3.0019,-3.0074,-2.9951,-2.9258,-2.9023,-2.8789,-2.8379,-2.8301,-2.8133,-2.7452,-2.692,-2.5918,-2.4121,-2.3438,-2.2531,-2.1067,-2.2128,-2.3095,-2.314,-2.31,-2.2483,-2.1009,-2.2218,0.0,0.0,0.0,-1.8364,-2.3907,-2.6797,-2.7741,-2.6677,-2.7753,-2.9165,-3.0963,-3.0918,-3.0858,-3.0898,-3.0898,-3.0898,-3.0898,-3.0898,-3.0898,-3.0898,-3.0898,-3.084,-3.1034,-3.2054,-3.2568,-3.2765,-3.3218,-3.4308,-3.5813,-4.4961,-4.5019,-4.5156,0.0,-4.5293,0.0,-4.4453,-4.4375,-4.4199,-4.3769,-4.3711,-4.3555,-4.3125,-4.2695,-4.2266,-4.1836,0.0,0.0,-4.1172,-4.1172,-4.1172,-4.1172,-4.0762,-4.0332,-3.9902,-3.9434,-3.8769,-3.7871,-3.623,-3.4785,-3.3496,-3.3047,-3.2402,-3.1601,-3.1582,-3.1328,-3.0937,-3.0937,-3.0918,-3.0898,-3.0898,-3.0898,-3.0898,-3.0898,-3.0898,-3.0898,-3.0898,-3.0332,-2.9702,-2.9892,-2.9192,-2.834,-2.8359,-2.8339,-2.8295,-2.831,-2.8633,-2.8965,-2.9004,-2.9297,-2.9629,-2.9648,-2.9941,-3.0198,-3.0781,-3.0876,-3.071,-2.9839,-2.9277,-2.8828,-2.8418,-2.832,-2.8133,-2.7412,-2.6361,-2.5099,-2.3447,-2.3221,-2.3161,-2.3198,0.0,0.0,-2.3255,-2.3149,-2.3186,0.0,-2.3268,0.0,0.0,0.0,-1.9398,-2.5637,-2.7471,-2.8396,-2.843,-2.8333,-2.9165,-3.0869,-3.0858,-3.0898,-3.0898,-3.0898,-3.0898,-3.0898,-3.0898,-3.0898,-3.0898,-3.0898,-3.0957,-3.0892,-3.0876,-3.1899,-3.3347,-3.3351,-3.3659,-3.4449,0.0,0.0,-4.5156,-4.5605,-4.5039,-4.4512,-4.4414,-4.4101,-4.3828,-4.3711,-4.3711,-4.3555,-4.3125,-4.2695,-4.2266,-4.1836,-4.1426,-4.1172,-4.1172,-4.1172,-4.1172,-4.1172,-4.0762,-4.0332,-3.9902,-3.9434,-3.8633,-3.7441,-3.6387,-3.5371,-3.4375,-3.3633,-3.2988,-3.248,-3.2148,-3.1777,-3.1367,-3.1367,-3.1191,-3.0898,-3.0898,-3.0898,-3.0898,-3.0898,-3.0898,-3.0898,-3.0898,-3.0466,-2.9912,-2.9941,-2.9191,-2.8257,-2.8287,-2.8309,-2.829,-2.8314,-2.8655,-2.9191,-2.9653,-2.9961,-3.0137,-3.0488,-3.0644,-3.0742,-3.0859,-3.0937,-3.0895,-3.0596,-2.999,-2.9277,-2.8848,-2.8516,-2.791,-2.6859,-2.6053,-2.5295,-2.3991,-2.3926,-2.4106,-2.4117,-2.4657,-2.5085,-2.5117,-2.3836,-2.4214,0.0,0.0,-2.4275,-2.6941,-2.4702,-2.473,-2.7594,-2.8081,-2.8987,-3.032,-2.8918,-2.9164,-3.0878,-3.0859,-3.0898,-3.0898,-3.0898,-3.0898,-3.0898,-3.0898,-3.0898,-3.0898,-3.0898,-3.0937,-3.0937,-3.0901,-3.1914,-3.3414,-3.3376,-3.6535,-4.0854,-4.5312,-4.5312,-4.5332,-4.5371,-4.5156,-4.4785,-4.418,-4.4219,-4.416,-4.375,-4.3711,-4.3555,-4.3125,-4.2695,-4.2266,-4.1836,-4.1426,-4.1172,-4.1172,-4.1172,-4.1172,-4.1172,-4.0762,-4.041,-4.0195,-3.9531,-3.8574,-3.7305,-3.6836,-3.6055,-3.5,-3.4551,-3.3867,-3.3066,-3.2851,-3.2402,-3.1797,-3.1601,-3.1387,-3.1152,-3.0976,-3.0898,-3.0898,-3.0898,-3.0898,-3.0898,-3.0898,-3.0584,-3.0054,-2.9984,-2.9595,-2.9108,-2.9361,-2.9536,-2.9502,-2.9439,-2.9385,-2.9447,-2.9698,-3.0198,-3.0566,-3.082,-3.0898,-3.0898,-3.0898,-3.0898,-3.0897,-3.06,-3.0172,-2.9668,-2.9043,-2.8574,-2.7871,-2.6602,-2.584,-2.5059,-2.4055,-2.4137,-2.4456,-2.4917,-2.5738,-2.6451,-2.6845,-2.5682,-2.5489,-2.6962,-2.6073,0.0,-2.708,-2.6943,-2.7361,-2.8277,-2.9036,-2.9944,-3.0943,-2.9949,-3.0007,-3.0898,-3.0898,-3.0898,-3.0898,-3.0898,-3.0898,-3.0898,-3.0898,-3.0898,-3.0898,-3.0937,-3.0878,-3.0936,-3.085,-3.1891,-3.3772,-3.6729,-4.0032,-4.2988,-4.5683,-4.5723,-4.5644,-4.5273,-4.5469,-4.5293,-4.418,-4.4531,-4.4648,-4.3906,-4.375,-4.3555,-4.3125,-4.2695,-4.2266,-4.1836,-4.1426,-4.1172,-4.1172,-4.1172,-4.1172,-4.1172,-4.082,-4.0586,-4.0527,-3.9648,-3.8574,-3.7305,-3.7305,-3.668,-3.5488,-3.543,-3.4805,-3.3711,-3.3574,-3.3086,-3.2324,-3.1894,-3.178,-3.192,-3.1329,-3.1152,-3.1327,-3.1093,-3.0937,-3.0898,-3.0898,-3.0586,-3.0195,-3.0139,-3.0019,-3.0122,-3.0658,-3.0917,-3.0908,-3.0908,-3.0427,-2.9833,-2.9833,-3.0296,-3.0898,-3.0898,-3.0898,-3.0898,-3.0898,-3.0898,-3.0781,-3.0391,-3.0234,-2.998,-2.9238,-2.8672,-2.791,-2.6777,-2.5723,-2.4785,-2.4004,0.0,-2.4493,-2.547,-2.6456,-2.7337,-2.8069,-2.7518,-2.6801,-2.5995,-2.7363,-2.7629,-2.6396,-2.7641,-2.8563,-2.8648,-3.0167,-3.0849,-3.0908,-3.0858,-3.0898,-3.0898,-3.0898,-3.0898,-3.0898,-3.0898,-3.0898,-3.0898,-3.0898,-3.0898,-3.0918,-3.0955,-3.1011,-3.1285,-3.1302,-3.2187,-3.4238,-4.0667,-4.3032,-4.3044,-4.5742,-4.5957,-4.6191,-4.6113,-4.5859,-4.5605,-4.541,-4.4883,-4.4433,-4.4316,-4.3945,-4.3555,-4.3125,-4.2695,-4.2266,-4.1836,-4.1426,-4.1172,-4.1172,-4.1172,-4.1172,-4.1172,-4.1113,-4.0898,-4.0527,-3.9648,-3.8574,-3.7305,-3.7305,-3.6836,-3.5918,-3.5566,-3.5293,-3.5059,-3.4297,-3.3691,-3.3203,-3.2773,-3.3195,-3.3865,-3.2575,-3.2554,-3.3319,-3.186,-3.1191,-3.0898,-3.0898,-3.0586,-3.0254,-3.0644,-3.0469,-3.0156,-3.0721,-3.0878,-3.0917,-3.0917,-3.0781,-3.0645,-3.0645,-3.082,-3.0898,-3.0898,-3.0898,-3.0898,-3.0898,-3.0898,-3.0859,-3.0801,-3.0469,-3.0156,-3.0019,-2.9062,-2.8105,-2.7559,-2.6113,-2.4883,-2.4394,0.0,-2.4996,-2.5189,-2.6645,-2.7491,-2.7258,-2.7467,-2.7435,-2.7117,-2.735,-2.7969,-2.8937,-2.927,-2.9721,-3.0413,-3.0804,-3.0853,-3.0917,-3.0859,-3.0898,-3.0898,-3.0898,-3.0898,-3.0898,-3.0898,-3.0898,-3.0898,-3.0898,-3.0898,-3.0898,-3.0937,-3.1683,-3.2973,-3.3051,-3.3187,-3.4211,-4.069,-4.302,-4.2975,-4.6055,-4.6172,-4.623,-4.5996,-4.5996,-4.5859,-4.5391,-4.5195,-4.4922,-4.4453,-4.4219,-4.3828,-4.3144,-4.2695,-4.2266,-4.1836,-4.1426,-4.1172,-4.1172,-4.1172,-4.1172,-4.1172,-4.1172,-4.0976,-4.0527,-3.9902,-3.9062,-3.7988,-3.7754,-3.7207,-3.6367,-3.6172,-3.584,-3.5371,-3.4961,-3.4414,-3.375,-3.332,-3.3819,-3.4777,-3.3854,-3.3747,-3.4106,-3.3176,-3.2173,-3.1191,-3.0976,-3.0762,-3.0605,-3.082,-3.0742,-3.0586,-3.082,-3.0898,-3.0898,-3.0898,-3.0898,-3.0898,-3.0898,-3.0898,-3.0898,-3.0898,-3.0898,-3.0898,-3.0898,-3.0898,-3.0898,-3.0898,-3.0723,-3.0488,-3.0234,-2.9336,-2.8496,-2.8066,-2.6348,0.0,-2.5117,-2.5098,-2.5254,-2.5723,-2.709,-2.8008,-2.8027,-2.8437,-2.8691,-2.8544,-2.8416,-2.8828,-2.9707,-3.0122,-3.0458,-3.0943,-3.0892,-3.0839,-3.0898,-3.0898,-3.0898,-3.0898,-3.0898,-3.0898,-3.0898,-3.0898,-3.0898,-3.0898,-3.0898,-3.0898,-3.0898,-3.0839,-3.1407,-3.2137,-3.3072,-3.5564,-3.8966,-4.1929,-4.301,-4.2986,-4.6308,-4.6308,-4.6191,-4.5879,-4.6094,-4.6074,-4.541,-4.5527,-4.541,-4.4648,-4.4453,-4.4101,-4.3301,-4.2832,-4.2402,-4.1992,-4.1562,-4.1269,-4.1172,-4.1172,-4.1172,-4.1172,-4.1172,-4.0976,-4.0527,-4.0117,-3.9453,-3.8574,-3.8144,-3.7822,-3.749,-3.6976,-3.6583,-3.6316,-3.5736,-3.5264,-3.4963,-3.4405,-3.5067,-3.6589,-3.5757,-3.55,-3.5721,-3.5005,-3.3609,-3.2037,-3.1699,-3.1307,-3.0898,-3.0898,-3.0898,-3.0898,-3.0898,-3.0898,-3.0898,-3.0898,-3.0898,-3.0898,-3.0898,-3.0898,-3.0898,-3.0898,-3.0898,-3.0898,-3.0898,-3.0898,-3.0898,-3.0898,-3.0898,-3.0781,-3.043,-2.98,-2.9242,-2.8652,0.0,-2.5917,-2.6113,-2.5742,-2.582,-2.6738,-2.7871,-2.8711,-2.9043,-2.9453,-2.9668,-2.957,-2.9595,-2.9692,-3.003,-3.0576,-3.0948,-3.0948,-3.0878,-3.0898,-3.0898,-3.0898,-3.0898,-3.0898,-3.0898,-3.0898,-3.0898,-3.0898,-3.0898,-3.0898,-3.0898,-3.0898,-3.0918,-3.0878,-3.0917,-3.1191,-3.4386,-3.8684,-4.3012,-4.2979,-4.2999,-4.2986,-4.6308,-4.6308,-4.6289,-4.6269,-4.6289,-4.6289,-4.6211,-4.5898,-4.5508,-4.5039,-4.4629,-4.4199,-4.3711,-4.3281,-4.2851,-4.2422,-4.1992,-4.1582,-4.1191,-4.1172,-4.1172,-4.1172,-4.1172,-4.0976,-4.0527,-4.0117,-3.9453,-3.8574,-3.8144,-3.8507,-3.9804,-3.7648,-3.7565,-3.903,-3.6509,-3.6242,-3.7607,-3.6623,-3.8043,-4.074,-3.8789,-3.8547,-3.942,-3.7882,-3.5794,-3.377,-3.3728,-3.2438,-3.0898,-3.0898,-3.0898,-3.0898,-3.0898,-3.0898,-3.0898,-3.0898,-3.0898,-3.0898,-3.0898,-3.0898,-3.0898,-3.0898,-3.0898,-3.0898,-3.0898,-3.0898,-3.0898,-3.0898,-3.0898,-3.0879,-3.084,-3.075,-3.0529,-2.9623,0.0,0.0,-2.7318,-2.6806,-2.694,-2.8086,-2.8945,-2.9492,-2.9512,-2.9902,-3.0,-2.959,-3.0332,-3.0605,-3.0176,-3.0605,-3.0859,-3.0859,-3.0879,-3.0898,-3.0898,-3.0898,-3.0898,-3.0898,-3.0898,-3.0898,-3.0898,-3.0898,-3.0898,-3.0898,-3.0898,-3.0898,-3.0879,-3.0858,-3.0859,-3.1721,-3.9265,-4.2593,-4.2963,-4.3012,-4.3011,-4.2986,-4.6308,-4.6308,-4.6308,-4.6308,-4.6308,-4.6308,-4.6308,-4.6172,-4.582,-4.5117,-4.4883,-4.4512,-4.3789,-4.332,-4.2891,-4.2461,-4.2051,-4.1621,-4.1211,-4.1172,-4.1172,-4.1172,-4.1172,-4.1094,-4.0937,-4.1384,-4.1412,-4.1065,-4.1594,-4.1934,-4.2141,-4.0097,-3.9309,-3.9269,-3.7109,-3.6784,-3.7884,-3.7527,-3.9206,-4.1828,-4.0692,-4.0481,-4.0711,-3.9497,-3.726,-3.4686,-3.4391,-3.2983,-3.1269,-3.1269,-3.1269,-3.123,-3.0976,-3.1074,-3.123,-3.0957,-3.1074,-3.123,-3.0957,-3.0898,-3.0898,-3.0898,-3.0898,-3.0957,-3.1368,-3.1094,-3.0976,-3.1368,-3.1094,-3.0898,-3.0898,-3.0853,-3.0804,-3.0486,0.0,-2.8463,-2.873,-2.7669,-2.7351,-2.8652,-2.9434,-2.9809,-2.9809,-3.0351,-3.0566,-3.041,-3.0703,-3.082,-3.0644,-3.0801,-3.0898,-3.0898,-3.0898,-3.0898,-3.0898,-3.0898,-3.0898,-3.0898,-3.0898,-3.0898,-3.0898,-3.0898,-3.0898,-3.0898,-3.0858,-3.0957,-3.0898,-3.0918,-3.3822,-3.8735,-4.181,-4.2949,-4.3037,-4.295,-4.2986,-4.2986,-4.6308,-4.6406,-4.6465,-4.6328,-4.6406,-4.6465,-4.6328,-4.6308,-4.6035,-4.5332,-4.5117,-4.4746,-4.4004,-4.3535,-4.3047,-4.248,-4.2168,-4.2053,-4.2082,-4.2042,-4.1907,-4.1172,-4.1172,-4.1463,-4.2042,-4.2472,-4.2836,-4.3564,-4.3889,-4.421,-4.4389,-4.2491,-4.1532,-4.1417,-3.9281,-3.8933,-3.9993,-3.9664,-4.0989,-4.3238,-4.2511,-4.2103,-4.2006,-4.1225,-3.915,-3.6618,-3.6384,-3.4944,-3.3064,-3.2612,-3.2731,-3.3023,-3.1722,-3.1484,-3.1641,-3.1211,-3.1387,-3.166,-3.1367,-3.1269,-3.1112,-3.1133,-3.1172,-3.1229,-3.1799,-3.1525,-3.1211,-3.1621,-3.1269,-3.0976,-3.125,-3.1112,-3.0836,-3.0859,-2.9917,-2.938,-2.9971,-2.8959,-2.8616,-2.9623,-3.0059,-3.0276,-3.0276,-3.0684,-3.0898,-3.0898,-3.0898,-3.0898,-3.0898,-3.0898,-3.0898,-3.0898,-3.0898,-3.0898,-3.0898,-3.0898,-3.0898,-3.0898,-3.0898,-3.0898,-3.0898,-3.0898,-3.0898,-3.0918,-3.0876,-3.123,-3.16,-3.1152,-3.5685,-4.2985,-4.3012,-4.2975,-4.2986,-4.2986,-4.3037,-4.3,-4.6308,-4.6641,-4.6797,-4.6387,-4.6641,-4.6777,-4.6367,-4.6308,-4.6152,-4.5723,-4.5293,-4.4863,-4.4433,-4.3984,-4.3359,-4.25,-4.2422,-4.2961,-4.4008,-4.4096,-4.3207,-4.1327,-4.1172,-4.2196,-4.4096,-4.3194,-4.3564,-4.5595,-4.4609,-4.505,-4.6798,-4.4524,-4.4428,-4.6144,-4.3265,-4.2959,-4.4468,-4.3398,-4.3965,-4.5397,-4.4267,-4.3815,-4.374,-4.3187,-4.1717,-3.9968,-3.9968,-3.8661,-3.6608,-3.5008,-3.5569,-3.6378,-3.3195,-3.2289,-3.209,-3.1641,-3.1836,-3.2168,-3.2168,-3.1988,-3.1731,-3.166,-3.1696,-3.1828,-3.2148,-3.1976,-3.166,-3.175,-3.1326,-3.1152,-3.2012,-3.1465,-3.0898,-3.0898,-3.0952,-3.0963,-3.0943,-3.0943,-3.0853,-3.0859,-3.0898,-3.0898,-3.0898,-3.0898,-3.0898,-3.0898,-3.0898,-3.0898,-3.0898,-3.0898,-3.0898,-3.0898,-3.0898,-3.0898,-3.0898,-3.0898,-3.0898,-3.0898,-3.0898,-3.0898,-3.0898,-3.0898,-3.0898,-3.0918,-3.0876,-3.18,-3.3235,-3.1716,-3.5786,-4.3037,-4.295,-4.2986,-4.2986,-4.2986,-4.2962,-4.3024,-4.7129,-4.7051,-4.6992,-4.7168,-4.6816,-4.6543,-4.6719,-4.6484,-4.6152,-4.5723,-4.5293,-4.4863,-4.4433,-4.3984,-4.3476,-4.293,-4.3838,-4.4949,-4.6063,-4.6146,-4.5871,-4.5276,-4.3945,-4.3511,-4.4096,-4.6089,-4.7328,-4.7539,-4.8132,-4.8582,-4.8738,-4.6656,-4.5974,-4.6144,-4.3499,-4.328,-4.4492,-4.3802,-4.4524,-4.5999,-4.5271,-4.4744,-4.4317,-4.3765,-4.2258,-4.0378,-4.0378,-3.9105,-3.726,-3.6816,-3.7027,-3.7282,-3.623,-3.4952,-3.385,-3.3706,-3.3196,-3.2539,-3.2246,-3.2578,-3.2851,-3.247,-3.2371,-3.2407,-3.2883,-3.2588,-3.209,-3.2338,-3.2168,-3.2155,-3.2129,-3.2433,-3.2316,-3.1072,-3.0897,-3.0879,-3.0878,-3.0858,-3.0897,-3.0879,-3.0898,-3.0898,-3.0898,-3.0898,-3.0898,-3.0898,-3.0898,-3.0898,-3.0898,-3.0898,-3.0898,-3.0898,-3.0898,-3.0898,-3.0898,-3.0898,-3.0898,-3.0898,-3.0898,-3.0898,-3.0898,-3.0898,-3.0937,-3.0839,-3.0937,-3.1856,-3.3747,-3.7746,-4.0865,-4.3037,-4.295,-4.2986,-4.3011,-4.3012,-4.295,-4.3254,-4.7519,-4.7363,-4.7207,-4.7305,-4.6894,-4.6582,-4.666,-4.6465,-4.6211,-4.5957,-4.5547,-4.5117,-4.4687,-4.4238,-4.3982,-4.398,-4.5911,-4.7321,-4.7365,-4.7895,-4.7781,-4.7029,-4.6588,-4.6441,-4.6441,-4.8117,-4.9288,-4.985,-5.024,-5.0243,-4.9916,-4.8576,-4.7758,-4.7418,-4.5823,-4.5429,-4.5837,-4.5302,-4.5478,-4.625,-4.5723,-4.5271,-4.4895,-4.4342,-4.3168,-4.1849,-4.1849,-4.0937,-3.9706,-3.9197,-3.868,-3.8236,-3.8457,-3.73,-3.5757,-3.4994,-3.4448,-3.3817,-3.2962,-3.3027,-3.3301,-3.2956,-3.2981,-3.304,-3.3316,-3.2878,-3.2519,-3.2805,-3.2721,-3.2446,-3.2617,-3.2868,-3.2571,-3.1638,-3.1304,-3.1072,-3.0937,-3.0898,-3.0898,-3.0898,-3.0898,-3.0898,-3.0898,-3.0898,-3.0898,-3.0898,-3.0898,-3.0898,-3.0898,-3.0898,-3.0898,-3.0898,-3.0954,-3.0856,-3.0856,-3.0908,-3.0908,-3.0856,-3.0856,-3.0873,-3.0923,-3.0923,-3.0883,-3.1071,-3.4243,-3.6263,-3.745,-4.1426,-4.2995,-4.3025,-4.3011,-4.3033,-4.2966,-4.3048,-4.3577,-4.483,-4.7695,-4.7637,-4.748,-4.7148,-4.6973,-4.6777,-4.6465,-4.6523,-4.6464,-4.6308,-4.6111,-4.5832,-4.5399,-4.4817,-4.4858,-4.5733,-4.8532,-4.9767,-4.8532,-4.9576,-4.9581,-4.7636,-4.9248,-5.0269,-5.0269,-4.9766,-5.0385,-5.2101,-5.1071,-5.0519,-5.0419,-4.9916,-4.964,-4.9565,-4.9012,-4.8485,-4.7958,-4.738,-4.6853,-4.6326,-4.5773,-4.5522,-4.5422,-4.4895,-4.4342,-4.3865,-4.3815,-4.3489,-4.2887,-4.1934,-4.0644,-3.9528,-4.0216,-3.95,-3.8082,-3.6329,-3.594,-3.5788,-3.4278,-3.3816,-3.3709,-3.367,-3.3544,-3.3418,-3.3418,-3.298,-3.2805,-3.334,-3.2812,-3.2519,-3.3281,-3.2793,-3.2266,-3.2226,-3.1894,-3.1484,-3.1055,-3.0976,-3.0937,-3.0937,-3.0918,-3.0898,-3.0898,-3.0898,-3.0898,-3.0898,-3.0898,-3.0898,-3.0898,-3.0898,-3.0879,-3.0956,-3.0888,-3.1164,-3.1717,-3.1643,-3.1449,-3.095,-3.141,-3.1737,-3.1698,-3.1698,-3.1698,-3.2086,-3.9462,-4.2761,-4.2972,-4.3035,-4.2985,-4.2961,-4.3022,-4.2975,-4.3059,-4.3604,-4.5125,-4.7831,-4.8516,-4.8047,-4.7754,-4.834,-4.7324,-4.6641,-4.7207,-4.8238,-4.829,-4.6464,-4.743,-4.8127,-4.7485,-4.5597,-4.5573,-4.8649,-5.0654,-5.1993,-5.2656,-5.2932,-5.2659,-5.1632,-5.205,-5.2327,-5.2327,-5.2203,-5.2092,-5.2101,-5.185,-5.1272,-5.0419,-5.0293,-5.0017,-4.9565,-4.9012,-4.8711,-4.851,-4.7556,-4.7054,-4.6903,-4.6351,-4.5874,-4.5472,-4.5347,-4.4945,-4.4392,-4.3966,-4.374,-4.3639,-4.3397,-4.3078,-4.2872,-4.3416,-4.2292,-4.0575,-4.0222,-3.9567,-3.8697,-3.7461,-3.6572,-3.5915,-3.5418,-3.4383,-3.3418,-3.3418,-3.334,-3.3301,-3.3398,-3.3281,-3.3203,-3.3379,-3.3281,-3.3047,-3.2715,-3.2578,-3.2383,-3.1953,-3.1601,-3.1387,-3.1387,-3.1094,-3.0898,-3.0898,-3.0898,-3.0898,-3.0898,-3.0898,-3.0898,-3.0898,-3.0898,-3.0954,-3.0923,-3.0937,-3.3135,-3.7729,-3.7746,-3.5511,-3.0933,-3.5535,-3.7822,-3.785,-3.785,-3.7785,-3.7924,-3.9599,-4.1418,-4.2936,-4.2975,-4.2975,-4.3048,-4.2958,-4.3022,-4.3496,-4.7838,-5.101,-5.3435,-4.8808,-4.8164,-4.7773,-4.8437,-4.8156,-4.827,-4.9162,-5.0565,-5.1122,-4.9952,-5.0569,-5.0891,-4.9773,-4.8513,-4.8715,-5.1293,-5.2708,-5.3735,-5.4451,-5.4099,-5.3507,-5.2955,-5.2929,-5.2929,-5.2929,-5.2929,-5.2779,-5.2503,-5.1975,-5.1398,-5.082,-5.0268,-4.9866,-4.959,-4.9289,-4.9012,-4.8711,-4.7857,-4.7355,-4.7079,-4.6527,-4.6125,-4.5874,-4.5874,-4.5522,-4.4995,-4.4719,-4.4593,-4.4568,-4.4292,-4.4367,-4.4618,-4.4618,-4.3813,-4.2725,-4.2018,-4.1469,-4.0814,-3.9417,-3.8454,-3.7551,-3.6452,-3.5376,-3.4383,-3.3544,-3.3418,-3.3418,-3.3418,-3.3418,-3.3418,-3.3418,-3.3418,-3.3281,-3.2871,-3.2793,-3.2656,-3.2226,-3.1973,-3.1978,-3.2431,-3.2327,-3.2432,-3.2892,-3.252,-3.1881,-3.0957,-3.0937,-3.0937,-3.0937,-3.0937,-3.093,-3.0913,-3.3569,-3.6593,-3.9672,-3.9668,-3.819,-3.5085,-3.824,-3.9721,-3.971,-4.078,-4.132,-4.1323,-4.125,-4.1966,-4.2957,-4.3026,-4.295,-4.2983,-4.2964,-4.4651,-4.7416,-5.1585,-5.4009,-5.5159,-4.8867,-4.8223,-4.7812,-4.8242,-4.9196,-5.0141,-5.098,-5.3093,-5.4252,-5.3828,-5.3995,-5.376,-5.2103,-5.2082,-5.2456,-5.302,-5.4156,-5.4955,-5.5072,-5.43,-5.3557,-5.2955,-5.2929,-5.2929,-5.2929,-5.2929,-5.2929,-5.2929,-5.2026,-5.1523,-5.1398,-5.0368,-4.9841,-4.9741,-4.964,-4.9339,-4.8862,-4.8184,-4.7657,-4.7205,-4.6577,-4.6301,-4.6301,-4.6301,-4.6024,-4.5623,-4.5522,-4.5497,-4.5422,-4.4945,-4.5095,-4.5422,-4.5045,-4.4844,-4.4536,-4.319,-4.288,-4.2664,-4.1098,-4.019,-3.9309,-3.7993,-3.7074,-3.616,-3.4855,-3.3875,-3.3544,-3.3776,-3.3729,-3.3623,-3.3796,-3.3603,-3.3398,-3.2969,-3.291,-3.2897,-3.2769,-3.2792,-3.3155,-3.4033,-3.3895,-3.4097,-3.5223,-3.4494,-3.32,-3.1052,-3.088,-3.1333,-3.2395,-3.2416,-3.2374,-3.2399,-3.712,-3.966,-3.9692,-3.969,-3.9722,-3.9669,-3.9674,-3.9717,-3.9773,-4.2025,-4.2986,-4.2971,-4.3008,-4.295,-4.3041,-4.2977,-4.3566,-4.4414,-4.4407,-4.7179,-5.1554,-5.425,-5.5206,-5.5279,-4.8867,-4.8457,-4.8262,-4.8691,-4.9928,-5.1001,-5.1505,-5.4941,-5.649,-5.404,-5.532,-5.5876,-5.4343,-5.4951,-5.4817,-5.3275,-5.4844,-5.5786,-5.5122,-5.4436,-5.3693,-5.2955,-5.2929,-5.2929,-5.2929,-5.2929,-5.2929,-5.2929,-5.2779,-5.2452,-5.1975,-5.1348,-5.0795,-5.0293,-4.9816,-4.9565,-4.9414,-4.836,-4.7857,-4.7707,-4.6702,-4.6301,-4.6301,-4.6301,-4.625,-4.6125,-4.5673,-4.5497,-4.5472,-4.5397,-4.5422,-4.5573,-4.5949,-4.5748,-4.5372,-4.5135,-4.5341,-4.549,-4.4259,-4.3311,-4.2394,-4.1704,-4.0403,-3.9355,-3.9108,-3.6144,-3.3776,-3.5211,-3.4685,-3.4358,-3.5273,-3.4705,-3.3848,-3.3398,-3.334,-3.3783,-3.5148,-3.506,-3.5219,-3.6126,-3.4753,-3.4185,-3.5156,-3.5134,-3.3967,-3.1052,-3.088,-3.3179,-3.8304,-3.8508,-3.8513,-3.849,-3.9242,-3.9699,-3.9694,-3.9722,-3.9744,-3.9705,-3.9674,-3.9717,-3.98,-4.2048,-4.2975,-4.2972,-4.2997,-4.3026,-4.3033,-4.3008,-4.5794,-5.0086,-5.0039,-5.0544,-5.1527,-5.4225,-5.521,-5.5842,-4.8867,-4.8516,-4.8685,-5.054,-5.1963,-5.362,-5.5581,-5.8118,-5.9228,-5.7965,-5.8507,-5.8325,-5.7025,-5.67,-5.6202,-5.541,-5.5756,-5.6088,-5.577,-5.4905,-5.416,-5.3596,-5.3105,-5.2929,-5.2929,-5.2929,-5.2929,-5.2929,-5.2628,-5.2352,-5.2076,-5.1222,-5.067,-5.0393,-4.9841,-4.959,-4.9515,-4.8385,-4.7908,-4.7807,-4.6728,-4.6301,-4.6301,-4.6301,-4.6301,-4.6276,-4.6024,-4.5949,-4.5949,-4.5949,-4.5949,-4.5999,-4.6225,-4.615,-4.5949,-4.5949,-4.6125,-4.62,-4.5698,-4.5022,-4.4108,-4.2688,-4.1801,-4.0982,-3.9711,-3.816,-3.7121,-3.7458,-3.7434,-3.7042,-3.5932,-3.6308,-3.6373,-3.4922,-3.5458,-3.6295,-3.7023,-3.6948,-3.7237,-3.8251,-3.7856,-3.7762,-3.8299,-3.8011,-3.7204,-3.5862,-3.5839,-3.698,-3.9586,-3.9742,-3.9749,-3.971,-3.971,-3.9715,-3.9697,-3.9665,-3.9735,-3.9674,-4.0946,-4.1555,-4.1597,-4.2562,-4.2992,-4.2961,-4.3026,-4.3022,-4.3248,-4.6283,-4.9003,-5.1222,-5.1238,-5.2093,-5.3614,-5.4734,-5.6934,-5.9553]}]]